     2              OBSERVATION DATA    GPS                 RINEX VERSION / TYPE
teqc 2002Apr3 20041109 01:32:59UTC                          PGM / RUN BY / DATE
                                                            COMMENT
L2: 1 -> 1; 5 -> 5; 60 -> 9                                 COMMENT
L2: 1 -> 1; 5 -> 5; 60 -> 9                                 COMMENT
L2: 1 -> 1; 5 -> 5; 60 -> 9                                 COMMENT
L2: 1 -> 1; 5 -> 5; 60 -> 9                                 COMMENT
L2: 1 -> 1; 5 -> 5; 60 -> 9                                 COMMENT
Original Marker Name: 0986                                  COMMENT
Campaign Name: CSRC/Caltrans post-San Simeon                COMMENT
4-Character Station Name: 05ML                              COMMENT
6-Character Antenna Code: TRZEPH                            COMMENT
Vertical Measurement Point: BPA                             COMMENT
Vertical Offset to Rinex Ref. Point: 0.0000                 COMMENT
Radial Measurement Point: RRP                               COMMENT
Radial Offset to Rinex Ref. Point: 0.0000                   COMMENT
Antenna Height from Field Measurement: 2.0000 m             COMMENT
Original XYZ: -2647788.9022 -4462924.1571 3696277.8780      COMMENT
New XYZ position is based on association with SCEC monument COMMENT
E1F1D3P9+0011. Position of that monument is believed to be  COMMENT
valid to within 1 m horizontally; vertical accuracy         COMMENT
should be no worse than 3-times this value.                 COMMENT
                                                            COMMENT
Revised Rinex header created by UCSD GPS archive for        COMMENT
GSAC on 11-Feb-2005 (2005:042) 22:03:54 GMT                 COMMENT
For assistance contact dagnew@ucsd.edu                      COMMENT
or anderson@python.ucsd.edu                                 COMMENT
                                                            COMMENT
05ML                                                        MARKER NAME
0986                                                        MARKER NUMBER
G. A. Stilinovich CALIF DEPT TRANSPORTATION DISTRICT 5      OBSERVER / AGENCY
0440100986 TRIMBLE 5700 NP 2.01 / SP 0.00                   REC # / TYPE / VERS
11884506 TRM41249.00                                        ANT # / TYPE
 -2647790.0000 -4462926.0000  3696279.0000                  APPROX POSITION XYZ
        2.0000        0.0000        0.0000                  ANTENNA: DELTA H/E/N
     1     1     0                                          WAVELENGTH FACT L1/2
     7    C1    L1    L2    P1    P2    S1    S2            # / TYPES OF OBSERV
     0                                                      INTERVAL
  2004     7    28    19     2   15.000000                  TIME OF FIRST OBS
  2004     7    28    20    16    0.000000                  TIME OF LAST OBS
                                                            END OF HEADER
 04  7 28 19  2 15.0000000  0  7G 1G11G14G20G22G23G25
  22317016.2464     -17884.23849    -15955.57047                  22317016.5294
        48.0004         32.7504
  21314664.6784      82846.00849     48521.85547                  21314662.2894
        51.5004         38.5004
  22633906.2644     245031.46549    151984.86347                  22633904.5714
        45.5004         31.2504
  23171271.4174     -65958.12149    -47156.50847                  23171269.7494
        45.7504         29.5004
  24216651.0784     193450.89149    139070.17646                  24216650.2814
        41.5004         22.7504
  23806003.9624     -53767.57049    -40217.17247                  23806002.0544
        44.2504         26.5004
  20563609.5954      77636.35949     46480.02748                  20563607.7954
        51.2504         42.5004
 04  7 28 19  2 30.0000000  0  7G 1G11G14G20G22G23G25
  22316061.2834     -22901.47749    -19865.08247                  22316061.1154
        47.2504         33.5004
  21318698.4054     104044.35949     65040.05147                  21318696.3724
        50.7504         38.5004
  22645859.3614     307846.43449    200931.57447                  22645857.2964
        46.5004         31.2504
  23167898.3564     -83684.22349    -60969.02747                  23167897.0714
        45.0004         27.0004
  24228752.1594     257040.87549    188620.70746                  24228751.8824
        41.7504         22.5004
  23803175.6254     -68633.00049    -51800.55147                  23803174.6944
        44.5004         27.2504
  20567403.8384      97574.74649     62016.44148                  20567402.0264
        52.0004         42.0004
 04  7 28 19  2 45.0000000  0  7G 1G11G14G20G22G23G25
  22315091.8074     -27995.55549    -23834.46147                  22315091.6764
        48.0004         33.2504
  21322732.3614     125244.05949     81559.28547                  21322730.1114
        51.0004         38.5004
  22657789.8844     370540.68449    249784.23447                  22657787.1984
        47.0004         30.2504
  23164501.9114    -101535.67249    -74879.22347                  23164500.2164
        46.5004         29.0004
  24240834.1554     320533.09849    238095.06646                  24240833.5414
        43.0004         23.2504
  23800327.8284     -83595.21949    -63459.34047                  23800326.2364
        43.5004         26.5004
  20571197.7344     117512.59449     77552.42648                  20571195.8414
        52.0004         42.5004
 04  7 28 19  3  0.0000000  0  7G 1G11G14G20G22G23G25
  22314111.1174     -33152.15649    -27852.56247                  22314110.9484
        47.5004         33.2504
  21326769.6134     146459.42249     98090.73447                  21326767.2314
        50.7504         38.5004
  22669699.6644     433128.35949    298553.84847                  22669696.5334
        47.2504         30.5004
  23161083.5084    -119497.88749    -88875.73047                  23161081.7494
        45.2504         27.7504
  24252900.9294     383941.84449    287504.39546                  24252899.9244
        43.5004         25.2504
  23797465.1454     -98639.83649    -75182.39547                  23797462.4884
        44.2504         27.0004
  20574994.5154     137464.34449     93099.25848                  20574992.1234
        52.0004         42.0004
 04  7 28 19  3 15.0000000  0  7G 1G11G14G20G22G23G25
  22313119.1674     -38362.91049    -31912.84447                  22313118.8784
        47.2504         33.0004
  21330811.9564     167698.73049    114640.84047                  21330809.1514
        51.0004         38.5004
  22681591.0914     495617.70749    347246.82447                  22681590.0144
        46.7504         30.5004
  23157645.8004    -137562.44149   -102951.95747                  23157643.9674
        45.5004         28.5004
  24264952.6484     447275.47749    336855.19146                  24264951.5584
        43.5004         25.0004
  23794587.8064    -113758.57449    -86963.15647                  23794586.4804
        43.0004         27.0004
  20578795.5654     157438.30549    108663.38748                  20578793.4164
        52.2504         41.7504
 04  7 28 19  3 30.0000000  0  7G 1G11G14G20G22G23G25
  22312117.5274     -43625.96949    -36013.89847                  22312118.3894
        47.7504         34.0004
  21334858.0354     188963.99249    131211.16847                  21334855.6824
        51.0004         38.2504
  22693463.4634     558010.41849    395864.49247                  22693462.8934
        46.7504         30.5004
  23154189.6314    -155727.18049   -117106.27747                  23154187.6454
        45.7504         28.5004
  24276991.5354     510535.76249    386148.81646                  24276990.1634
        44.0004         23.7504
  23791697.6784    -128949.49649    -98800.18747                  23791694.6974
        44.2504         26.5004
  20582600.8874     177436.36749    124246.29748                  20582598.7534
        52.0004         42.0004
 04  7 28 19  3 45.0000000  0  7G 1G11G14G20G22G23G25
  22311106.5564     -48939.67249    -40154.41047                  22311107.0054
        48.2504         34.5004
  21338910.2874     210256.93049    147803.06347                  21338907.6274
        50.2504         38.7504
  22705318.8464     620308.02349    444408.05147                  22705317.0704
        45.7504         30.5004
  23150713.5044    -173990.37549   -131337.31647                  23150712.6114
        46.0004         28.0004
  24289015.1874     573724.51649    435386.76246                  24289015.0124
        43.5004         25.2504
  23788792.9844    -144210.86349   -110692.08647                  23788790.7214
        43.5004         26.0004
  20586411.2084     197460.32049    139849.38748                  20586409.2844
        51.0004         42.2504
 04  7 28 19  4  0.0000000  0  7G 1G11G14G20G22G23G25
  22310086.4744     -54298.55949    -44330.14547                  22310086.1114
        48.0004         34.0004
  21342968.2964     231583.01649    164420.78947                  21342966.0644
        50.7504         39.0004
  22717157.0984     682515.92249    492881.72747                  22717155.2634
        45.5004         31.5004
  23147220.3404    -192346.41849   -145640.69947                  23147219.2574
        45.0004         28.0004
  24301026.5014     636847.07849    484573.07446                  24301026.9894
        41.5004         25.0004
  23785876.4724    -159537.17649   -122634.61747                  23785874.8754
        43.0004         27.7504
  20590227.5494     217515.39549    155476.72748                  20590225.6524
        51.5004         42.5004
 04  7 28 19  4 15.0000000  0  7G 1G11G14G20G22G23G25
  22309058.5034     -59702.09849    -48540.66447                  22309058.3364
        48.5004         34.0004
  21347033.2444     252942.77049    181064.74247                  21347030.6604
        51.5004         38.5004
  22728977.6084     744634.56649    541285.85947                  22728975.5884
        46.2504         31.5004
  23143709.8574    -210794.58649   -160015.86747                  23143709.0294
        45.5004         28.5004
  24313026.2694     699903.98049    533708.21546                  24313026.8744
        39.2504         23.0004
  23782947.0284    -174927.89849   -134627.35247                  23782945.1554
        43.0004         26.5004
  20594049.9434     237602.31649    171128.88348                  20594047.8134
        52.0004         42.2504
 04  7 28 19  4 30.0000000  0  7G 1G11G14G20G22G23G25
  22308021.9664     -65148.91449    -52784.90247                  22308021.5984
        48.0004         34.0004
  21351104.4994     274337.63749    197736.06647                  21351101.9864
        51.2504         38.5004
  22740781.6694     806665.12149    589621.33247                  22740778.2194
        46.7504         30.5004
  23140182.5044    -229333.29349   -174461.57847                  23140181.2394
        46.0004         29.2504
  24325013.5734     762896.52749    582793.23046                  24325013.7534
        41.2504         22.7504
  23780007.0904    -190381.52049   -146669.05547                  23780005.2434
        43.7504         28.2504
  20597878.6324     257722.42249    186806.89548                  20597876.8324
        52.0004         42.5004
 04  7 28 19  4 45.0000000  0  7G 1G11G14G20G22G23G25
  22306977.6894     -70636.07049    -57060.57447                  22306977.1754
        47.5004         33.5004
  21355182.4784     295770.48849    214436.99247                  21355180.4864
        49.5004         38.7504
  22752569.6784     868610.43849    637890.42247                  22752566.6484
        47.0004         30.5004
  23136637.7184    -247959.38349   -188975.38747                  23136636.1334
        45.7504         28.5004
  24336989.0344     825827.79349    631830.49646                  24336988.8324
        40.7504         22.5004
  23777054.5604    -205895.14549   -158757.55147                  23777052.3394
        44.2504         26.5004
  20601714.5194     277878.42249    202512.86748                  20601712.3604
        50.0004         42.2504
 04  7 28 19  5  0.0000000  0  7G 1G11G14G20G22G23G25
  22305926.5324     -76160.64549    -61365.41047                  22305926.7874
        48.7504         34.5004
  21359268.7204     317244.30549    231169.82847                  21359266.7984
        48.7504         38.5004
  22764341.1774     930473.42649    686095.33647                  22764339.8854
        46.2504         30.7504
  23133077.1824    -266669.77049   -203554.87947                  23133075.9194
        45.0004         29.5004
  24348953.2164     888700.60949    680822.20746                  24348952.8554
        40.7504         22.5004
  23774091.1744    -221465.68749   -170890.37947                  23774089.6124
        42.5004         26.5004
  20605557.3854     298073.49249    218249.29348                  20605555.2914
        50.0004         42.2504
 04  7 28 19  5 15.0000000  0  7G 1G11G14G20G22G23G25
  22304867.7714     -81722.62949    -65699.39547                  22304868.1814
        48.0004         33.5004
  21363362.9864     338759.17249    247934.66047                  21363360.8854
        50.5004         39.0004
  22776097.7324     992253.80549    734235.86747                  22776097.2834
        46.0004         31.5004
  23129500.7284    -285464.28549   -218199.93047                  23129499.3274
        45.5004         29.2504
  24360906.7364     951514.88749    729768.32046                  24360906.1624
        41.7504         24.5004
  23771118.1324    -237093.03149   -183067.48847                  23771115.6564
        43.5004         26.5004
  20609407.5304     318307.57449    234016.12148                  20609405.6134
        51.5004         42.5004
 04  7 28 19  5 30.0000000  0  7G 1G11G14G20G22G23G25
  22303803.0694     -87318.97749    -70060.14547                  22303802.3204
        48.7504         33.7504
  21367465.8724     360317.94149    264733.69547                  21367463.4564
        51.0004         39.0004
  22787839.0414    1053954.48849    782314.29347                  22787838.0584
        46.7504         31.0004
  23125909.0494    -304339.84849   -232908.14547                  23125907.4184
        46.5004         28.0004
  24372849.0724    1014273.68049    778671.23846                  24372849.2384
        41.2504         25.2504
  23768133.3614    -252774.35249   -195286.61347                  23768132.1744
        42.5004         26.7504
  20613265.9394     338583.68449    249815.69948                  20613264.0544
        52.5004         42.5004
 04  7 28 19  5 45.0000000  0  7G 1G11G14G20G22G23G25
  22302731.7564     -92949.61349    -74447.62547                  22302730.5764
        49.0004         34.2504
  21371576.8134     381920.94149    281567.19547                  21371574.5154
        51.5004         39.2504
  22799565.5144    1115575.52349    830330.66847                  22799563.0494
        46.5004         31.0004
  23122300.9874    -323296.14849   -247679.25447                  23122299.9024
        45.7504         29.2504
  24384781.9074    1076977.09449    827530.91446                  24384781.3184
        41.5004         22.5004
  23765138.8984    -268509.34849   -207547.59447                  23765137.4194
        44.0004         27.0004
  20617132.5534     358901.83249    265648.02048                  20617130.4904
        52.0004         42.7504
 04  7 28 19  6  0.0000000  0  7G 1G11G14G20G22G23G25
  22301653.9154     -98611.33249    -78859.33647                  22301653.9434
        47.5004         34.0004
  21375696.8074     403571.35549    298437.64547                  21375694.2344
        51.0004         38.7504
  22811277.0324    1177119.96549    878287.38747                  22811275.0494
        46.5004         29.7504
  23118679.9434    -342329.77349   -262510.61747                  23118677.9884
        46.2504         28.5004
  24396704.1814    1139628.28949    876349.95746                  24396703.1794
        42.5004         21.7504
  23762135.6554    -284294.84049   -219847.91446                  23762132.6544
        45.0004         25.5004
  20621007.4074     379265.14849    281515.54348                  20621005.5194
        52.5004         42.2504
 04  7 28 19  6 15.0000000  0  7G 1G11G14G20G22G23G25
  22300570.5844    -104303.94949    -83295.11347                  22300570.4864
        48.2504         34.0004
  21379825.5724     425269.31349    315345.13747                  21379823.1134
        51.2504         38.0004
  22822973.8054    1238588.05549    926184.58247                  22822971.4554
        45.7504         30.5004
  23115042.6794    -361440.15649   -277401.79347                  23115041.4044
        46.5004         29.5004
  24408615.8134    1202227.53549    925128.50046                  24408615.8664
        41.0004         21.7504
  23759122.2464    -300130.52749   -232187.36347                  23759119.9684
        44.0004         26.5004
  20624891.1794     399674.05149    297418.59048                  20624889.2604
        51.7504         42.5004
 04  7 28 19  6 30.0000000  0  7G 1G11G14G20G22G23G25
  22299482.0604    -110025.47349    -87753.41847                  22299481.3924
        48.2504         34.2504
  21383964.2584     447016.93449    332291.32847                  21383961.3844
        51.2504         38.5004
  22834656.8904    1299981.51649    974023.62147                  22834654.7784
        46.7504         30.2504
  23111392.2064    -380625.31249   -292351.24647                  23111389.9244
        46.0004         28.7504
  24420519.5564    1264776.75449    973868.09046                  24420518.3224
        42.0004         21.0004
  23756099.7994    -316014.28549   -244564.24247                  23756097.2964
        44.7504         27.5004
  20628784.0574     420130.40649    313358.61748                  20628782.1044
        52.5004         42.5004
 04  7 28 19  6 45.0000000  0  7G 1G11G14G20G22G23G25
  22298388.6044    -115770.73849    -92230.20747                  22298388.7024
        48.5004         34.0004
  21388112.9374     468819.26649    349280.15647                  21388110.3034
        51.0004         38.2504
  22846326.5194    1361305.46949   1021808.50847                  22846324.7174
        46.7504         31.5004
  23107727.7284    -399879.81249   -307354.73447                  23107726.1744
        46.0004         28.2504
  24432412.9004    1327281.05149   1022572.68446                  24432411.8414
        41.0004         20.0004
  23753068.2604    -331941.00849   -256974.64847                  23753065.5334
        43.5004         27.2504
  20632686.6334     440639.35549    329339.61348                  20632684.6384
        52.2504         42.2504
 04  7 28 19  7  0.0000000  0  7G 1G11G14G20G22G23G25
  22297290.1604    -121542.36349    -96727.55147                  22297290.0714
        49.0004         34.0004
  21392272.1364     490673.80149    366309.66047                  21392269.2344
        51.2504         38.7504
  22857981.5604    1422557.12549   1069537.07447                  22857980.6284
        45.5004         31.0004
  23104050.2544    -419206.16849   -322414.19947                  23104048.7324
        46.0004         28.7504
  24444298.9194    1389737.91449   1071240.25446                  24444298.2074
        41.2504         20.5004
  23750029.5974    -347913.26649   -269420.47347                  23750027.4394
        44.7504         28.5004
  20636598.7414     461198.19549    345359.49648                  20636596.7744
        52.0004         42.5004
 04  7 28 19  7 15.0000000  0  7G 1G11G14G20G22G23G25
  22296187.0244    -127337.76249   -101243.41847                  22296187.1634
        48.0004         33.7504
  21396440.7404     512583.21149    383381.92647                  21396438.8574
        51.0004         39.0004
  22869624.3384    1483739.01649   1117211.24247                  22869623.5444
        44.0004         30.5004
  23100359.6194    -438601.60949   -337527.49647                  23100357.6154
        45.7504         29.0004
  24456175.0774    1452149.82849   1119872.85546                  24456174.4224
        41.5004         22.5004
  23746981.1954    -363928.27749   -281899.66047                  23746979.5644
        44.0004         28.0004
  20640520.9064     481809.56649    361420.30948                  20640519.0794
        52.0004         42.0004
 04  7 28 19  7 30.0000000  0  7G 1G11G14G20G22G23G25
  22295080.5584    -133154.01649   -105775.53947                  22295080.4664
        48.2504         34.0004
  21400620.9344     534550.31349    400499.14547                  21400618.5334
        51.5004         38.5004
  22881254.7034    1544853.89849   1164833.20347                  22881252.4324
        45.7504         29.5004
  23096656.2204    -458063.04749   -352692.22347                  23096654.3664
        46.0004         29.7504
  24468043.7754    1514519.66049   1168472.62546                  24468043.3244
        41.7504         22.5004
  23743926.8024    -379983.28949   -294409.99647                  23743923.7514
        43.5004         27.5004
  20644454.1644     502476.38349    377524.31648                  20644451.8974
        52.2504         42.7504
 04  7 28 19  7 45.0000000  0  7G 1G11G14G20G22G23G25
  22293969.7884    -138991.41849   -110324.13347                  22293969.3974
        48.5004         33.5004
  21404812.3004     556574.89149    417661.14847                  21404809.9524
        49.7504         38.5004
  22892871.0764    1605901.42649   1212402.71147                  22892868.6184
        46.0004         30.0004
  23092940.0974    -477590.54749   -367908.44147                  23092938.5394
        45.0004         29.5004
  24479904.7944    1576847.19149   1217039.44946                  24479904.4314
        42.7504         25.5004
  23740863.9874    -396078.40249   -306951.58247                  23740861.5604
        44.7504         28.0004
  20648397.3314     523198.31649    393671.28148                  20648395.2784
        50.7504         42.5004
 04  7 28 19  8  0.0000000  0  7G 1G11G14G20G22G23G25
  22292855.2644    -144847.50049   -114887.28147                  22292855.3614
        48.2504         33.5004
  21409014.5254     578659.53149    434869.94947                  21409012.3424
        50.2504         38.2504
  22904475.6074    1666884.09849   1259921.66047                  22904473.8254
        44.7504         29.5004
  23089212.5244    -497181.33649   -383173.95347                  23089209.9374
        46.7504         29.2504
  24491757.3174    1639134.87949   1265575.24247                  24491757.0134
        43.0004         25.7504
  23737793.3514    -412211.15249   -319522.49247                  23737790.6694
        44.5004         27.2504
  20652351.4894     543977.87549    409863.15248                  20652349.6254
        52.2504         42.2504
 04  7 28 19  8 15.0000000  0  7G 1G11G14G20G22G23G25
  22291737.3954    -150722.02749   -119464.80947                  22291736.7464
        48.5004         33.5004
  21413228.8574     600804.21549    452125.54347                  21413226.3344
        50.2504         38.5004
  22916068.3544    1727801.85249   1307390.00847                  22916066.6624
        45.7504         30.5004
  23085472.3274    -516835.03149   -398488.50447                  23085469.8464
        46.0004         30.0004
  24503602.4254    1701382.89849   1314080.07846                  24503602.9834
        42.0004         23.0004
  23734716.4024    -428381.23449   -332122.50847                  23734713.2804
        45.5004         27.2504
  20656316.8064     564815.20749    426100.03948                  20656314.5124
        52.2504         42.0004
 04  7 28 19  8 30.0000000  0  7G 1G11G14G20G22G23G25
  22290617.2794    -156611.84449   -124054.25047                  22290616.1884
        47.5004         33.7504
  21417455.0814     623012.13749    469430.41047                  21417452.4814
        49.0004         38.5004
  22927648.7074    1788657.71549   1354810.13347                  22927647.8204
        46.0004         31.5004
  23081720.7814    -536548.46549   -413849.59847                  23081719.0864
        46.0004         30.0004
  24515441.2834    1763594.32049   1362556.44546                  24515441.2814
        41.5004         22.7504
  23731632.9764    -444585.51249   -344749.16047                  23731631.1004
        45.2504         27.5004
  20660293.2364     585713.33249    442384.28948                  20660291.1174
        51.0004         42.7504
 04  7 28 19  8 45.0000000  0  7G 1G11G14G20G22G23G25
  22289493.2474    -162515.12149   -128654.18047                  22289492.6824
        48.0004         34.5004
  21421693.2444     645285.06649    486785.93447                  21421690.5804
        50.2504         38.5004
  22939217.5694    1849453.41849   1402183.39847                  22939216.5684
        45.0004         30.7504
  23077958.5104    -556319.53949   -429255.60947                  23077956.6204
        45.7504         28.5004
  24527272.9664    1825771.02349   1411005.69546                  24527273.3584
        40.2504         22.7504
  23728543.2444    -460822.03149   -357400.93447                  23728540.3814
        45.5004         27.2504
  20664281.8464     606674.10549    458717.35548                  20664279.6964
        52.0004         41.5004
 04  7 28 19  9  0.0000000  0  7G 1G11G14G20G22G23G25
  22288367.2304    -168430.64549   -133263.65647                  22288367.1414
        48.7504         34.5004
  21425944.1934     667623.97749    504192.87547                  21425941.7434
        50.7504         38.2504
  22950776.1794    1910190.07849   1449510.63747                  22950773.5214
        46.5004         30.5004
  23074185.8964    -576146.86749   -444705.44547                  23074183.7404
        45.5004         29.7504
  24539098.4924    1887914.27349   1459428.88746                  24539099.1114
        40.5004         22.5004
  23725447.5544    -477089.65249   -370076.95747                  23725444.9454
        44.5004         26.2504
  20668282.7264     627698.75049    475100.20748                  20668280.6764
        52.0004         42.7504
 04  7 28 19  9 15.0000000  0  7G 1G11G14G20G22G23G25
  22287239.6464    -174357.59849   -137882.03547                  22287238.6784
        47.7504         33.7504
  21430208.3204     690031.50849    521653.28547                  21430205.4394
        50.2504         38.5004
  22962322.3764    1970868.46549   1496792.50447                  22962318.7664
        46.5004         30.5004
  23070401.3584    -596029.44949   -460198.33647                  23070400.1764
        44.7504         30.5004
  24550917.6584    1950024.83249   1507826.62946                  24550917.6264
        41.5004         21.0004
  23722346.6184    -493387.45749   -382776.46547                  23722343.3684
        45.2504         28.5004
  20672295.8864     648788.18449    491533.53548                  20672294.0894
        51.0004         42.5004
 04  7 28 19  9 30.0000000  0  7G 1G11G14G20G22G23G25
  22286109.3594    -180295.93749   -142509.28147                  22286109.5394
        47.5004         33.7504
  21434484.3604     712502.31349    539162.99647                  21434481.7444
        49.5004         38.2504
  22973857.2144    2031488.56349   1544028.94947                  22973855.4704
        45.0004         29.2504
  23066607.4664    -615966.95349   -475734.01647                  23066605.9704
        45.0004         28.5004
  24562730.9444    2012102.75449   1556198.94546                  24562731.1944
        41.7504         21.0004
  23719238.9444    -509715.23049   -395499.37947                  23719235.5484
        45.0004         27.2504
  20676321.6494     669942.38749    508017.33248                  20676319.5184
        52.7504         42.5004
 04  7 28 19  9 45.0000000  0  7G 1G11G14G20G22G23G25
  22284977.6144    -186242.91849   -147143.27347                  22284977.3654
        47.0004         34.0004
  21438775.2684     735050.23449    556732.80147                  21438772.5384
        48.5004         38.5004
  22985382.4814    2092052.87149   1591221.90247                  22985381.4974
        45.2504         30.2504
  23062803.8594    -635956.52049   -491310.27347                  23062801.4354
        45.2504         28.7504
  24574538.8024    2074150.57049   1604547.87946                  24574537.8424
        43.2504         20.0004
  23716126.1594    -526070.35949   -408243.56247                  23716124.3084
        44.5004         27.5004
  20680359.9084     691163.95349    524553.62148                  20680357.7034
        51.5004         43.0004
 04  7 28 19 10  0.0000000  0  7G 1G11G14G20G22G23G25
  22283844.7924    -192198.34849   -151783.84047                  22283844.2034
        47.2504         34.2504
  21443078.2054     757663.39849    574353.43847                  21443076.0864
        50.5004         38.5004
  22996897.5734    2152561.59449   1638371.50047                  22996896.7374
        45.7504         31.0004
  23058990.0064    -655997.70749   -506926.76647                  23058988.2794
        45.0004         29.5004
  24586340.4834    2136168.59849   1652873.55946                  24586339.7804
        43.0004         21.2504
  23713009.2174    -542452.46549   -421008.79347                  23713006.5774
        45.0004         27.7504
  20684410.9444     712453.22349    541142.66848                  20684408.9264
        51.7504         42.2504
 04  7 28 19 10 15.0000000  0  7G 1G11G14G20G22G23G25
  22282709.9754    -198161.93749   -156430.75047                  22282708.9444
        46.5004         34.2504
  21447394.8784     780347.76249    592029.56347                  21447392.4864
        50.0004         39.0004
  23008401.2434    2213014.92649   1685477.97347                  23008400.1454
        45.5004         30.5004
  23055166.6444    -676090.06249   -522583.11747                  23055164.7504
        43.7504         29.5004
  24598136.2634    2198157.18849   1701176.30146                  24598136.2224
        44.0004         24.0004
  23709886.3734    -558861.24649   -433794.80947                  23709884.0184
        44.2504         27.0004
  20688475.1544     733810.27049    557784.52348                  20688473.1264
        51.7504         42.5004
 04  7 28 19 10 30.0000000  0  7G 1G11G14G20G22G23G25
  22281574.1034    -204131.96949   -161082.70347                  22281573.0324
        47.2504         34.5004
  21451725.0304     803103.10949    609760.99247                  21451722.5514
        50.5004         38.5004
  23019895.3084    2273414.43449   1732542.50447                  23019893.2154
        46.0004         30.2504
  23051333.9564    -696231.66449   -538277.85247                  23051332.4934
        44.5004         29.7504
  24609927.6964    2260117.95349   1749457.32446                  24609926.5204
        43.0004         24.0004
  23706759.2024    -575294.96149   -446600.23047                  23706757.0274
        44.7504         26.7504
  20692552.6164     755236.75849    574480.48448                  20692550.5674
        51.5004         42.7504
 04  7 28 19 10 45.0000000  0  7G 1G11G14G20G22G23G25
  22280437.0304    -210106.83649   -165738.41047                  22280435.9364
        46.2504         34.5004
  21456068.6484     825929.41049    627547.71947                  21456066.6614
        49.5004         38.0004
  23031378.7494    2333761.60249   1779566.28147                  23031376.3744
        46.7504         31.0004
  23047492.1954    -716420.68749   -554009.53547                  23047490.1084
        43.2504         30.0004
  24621713.3624    2322052.50449   1797717.93846                  24621712.5434
        44.0004         24.5004
  23703627.8844    -591751.90249   -459423.75047                  23703625.1574
        45.0004         26.5004
  20696643.4034     776734.48049    591231.94948                  20696641.3474
        51.5004         42.2504
 04  7 28 19 11  0.0000000  0  7G 1G11G14G20G22G23G25
  22279299.2744    -216085.02049   -170396.71947                  22279298.7124
        46.5004         35.0004
  21460428.5704     848839.59449    645399.80147                  21460425.8694
        51.2504         38.2504
  23042852.1814    2394057.78549   1826550.30547                  23042849.9084
        45.2504         29.7504
  23043641.4334    -736655.55549   -569776.93047                  23043639.8414
        45.0004         29.0004
  24633494.0814    2383962.34449   1845959.25446                  24633494.3424
        42.7504         24.7504
  23700491.5044    -608230.48449   -472264.16447                  23700488.1284
        44.2504         26.7504
  20700748.2704     798304.81649    608040.01248                  20700745.8414
        52.5004         42.5004
 04  7 28 19 11 15.0000000  0  7G 1G11G14G20G22G23G25
  22278161.2004    -222065.21149   -175056.59047                  22278160.5764
        45.5004         34.2504
  21464801.5524     871821.36349    663307.66447                  21464799.3134
        50.2504         38.2504
  23054316.8884    2454304.43049   1873495.71547                  23054314.6514
        45.5004         29.5004
  23039782.2794    -756934.66049   -585578.79347                  23039780.7144
        45.5004         29.0004
  24645270.2124    2445848.77349   1894182.35546                  24645270.7744
        41.7504         23.5004
  23697351.6524    -624729.34849   -485120.37547                  23697349.6364
        44.2504         27.5004
  20704866.9594     819949.03149    624905.64148                  20704865.1034
        52.2504         42.2504
 04  7 28 19 11 30.0000000  0  7G 1G11G14G20G22G23G25
  22277022.5364    -228047.66449   -179718.21147                  22277022.6044
        45.0004         34.0004
  21469189.7624     894880.48049    681275.80947                  21469186.9004
        50.7504         38.0004
  23065772.5604    2514500.98449   1920402.10947                  23065770.8894
        46.5004         30.7504
  23035914.6514    -777258.07049   -601415.19147                  23035913.4954
        44.7504         30.0004
  24657042.8614    2507711.58649   1942386.97746                  24657043.4144
        41.0004         22.5004
  23694208.2034    -641248.85249   -497992.63347                  23694205.2754
        44.5004         26.2504
  20708999.5264     841666.84849    641828.62148                  20708997.4564
        52.2504         42.0004
 04  7 28 19 11 45.0000000  0  7G 1G11G14G20G22G23G25
  22275884.2264    -234029.99249   -184379.73047                  22275884.5374
        46.0004         34.2504
  21473592.7164     918017.74249    699304.84047                  21473590.0204
        50.0004         38.2504
  23077217.8834    2574649.76649   1967271.28147                  23077216.9574
        46.0004         30.7504
  23032039.7034    -797623.19949   -617284.10547                  23032037.5604
        44.2504         30.0004
  24668811.1584    2569552.98849   1990574.99646                  24668810.6574
        41.7504         22.5004
  23691061.1584    -657786.48849   -510879.06647                  23691059.2754
        44.7504         27.5004
  20713146.8064     863460.52349    658810.70748                  20713144.7164
        52.2504         42.0004
 04  7 28 19 12  0.0000000  0  7G 1G11G14G20G22G23G25
  22274745.9214    -240013.21549   -189041.94547                  22274745.5784
        46.0004         34.5004
  21478010.2484     941232.82449    717394.51247                  21478007.8894
        50.0004         38.5004
  23088654.5214    2634749.82449   2014102.46547                  23088653.4714
        45.2504         28.2504
  23028155.8444    -818030.84049   -633186.13747                  23028153.9454
        44.5004         29.2504
  24680574.9424    2631372.04749   2038745.62546                  24680574.6074
        42.2504         22.2504
  23687910.4874    -674343.18049   -523780.32447                  23687908.6394
        44.0004         27.7504
  20717308.0224     885329.09049    675851.15248                  20717306.1714
        52.0004         42.2504
 04  7 28 19 12 15.0000000  0  7G 1G11G14G20G22G23G25
  22273606.7794    -245997.21149   -193704.77347                  22273606.5304
        43.7504         35.0004
  21482442.9494     964525.42249    735544.57447                  21482440.3914
        49.0004         38.5004
  23100082.5754    2694801.15649   2060895.67247                  23100080.1244
        46.0004         30.0004
  23024264.8304    -838480.60249   -649120.98447                  23024263.2034
        44.0004         29.7504
  24692334.8164    2693168.93449   2086898.96546                  24692333.6444
        43.7504         22.0004
  23684756.0874    -690918.77349   -536696.30147                  23684753.7064
        44.0004         26.5004
  20721484.0444     907272.63349    692950.02348                  20721481.9214
        51.5004         42.2504
 04  7 28 19 12 30.0000000  0  7G 1G11G14G20G22G23G25
  22272468.7144    -251978.95349   -198365.84047                  22272468.4674
        45.5004         34.0004
  21486890.6884     987900.03549    753758.55947                  21486888.1854
        48.7504         38.2504
  23111501.7184    2754806.60949   2107653.18047                  23111498.8154
        47.2504         30.0004
  23020365.5984    -858969.34449   -665086.21147                  23020364.3564
        43.7504         30.0004
  24704090.4854    2754946.66449   2135037.42246                  24704088.5724
        44.0004         21.5004
  23681598.6544    -707510.15649   -549624.59447                  23681596.1684
        44.5004         27.7504
  20725674.6934     929294.11349    710109.62148                  20725672.2694
        51.5004         42.7504
 04  7 28 19 12 45.0000000  0  7G 1G11G14G20G22G23G25
  22271331.3964    -257957.68749   -203024.57447                  22271330.0084
        46.2504         35.2504
  21491354.0474    1011355.09049    772035.22347                  21491351.5624
        50.2504         38.5004
  23122910.9054    2814766.77049   2154375.38347                  23122908.9094
        46.0004         29.7504
  23016459.5514    -879496.18449   -681081.10247                  23016457.6224
        44.2504         30.2504
  24715843.5134    2816705.87149   2183161.43846                  24715842.0284
        44.0004         20.0004
  23678438.9134    -724116.53949   -562564.58247                  23678436.9234
        44.0004         27.7504
  20729880.1404     951394.40249    727330.62948                  20729877.5174
        52.0004         42.2504
 04  7 28 19 13  0.0000000  0  7G 1G11G14G20G22G23G25
  22270214.4544    -263823.18749   -207595.07047                  22270214.0034
        45.7504         34.5004
  21495853.8994    1035001.62549    790461.08647                  21495851.2594
        49.5004         38.2504
  23134333.0944    2874791.80549   2201148.11347                  23134332.3904
        44.5004         30.5004
  23012567.2984    -899950.68049   -697019.66447                  23012565.6204
        43.0004         30.0004
  24727612.4684    2878556.79349   2231356.91846                  24727612.3774
        41.7504         22.0004
  23675296.4784    -740627.84449   -575430.44147                  23675294.8394
        43.0004         27.0004
  20734121.4134     973683.43849    744698.71548                  20734119.5014
        50.7504         41.5004
 04  7 28 19 13 15.0000000  0  7G 1G11G14G20G22G23G25
  22269128.1184    -269532.25449   -212043.67247                  22269127.9314
        46.0004         35.2504
  21500398.5764    1058883.28149    809070.16047                  21500396.2614
        50.0004         38.2504
  23145776.0104    2934924.87549   2248005.03547                  23145775.9054
        45.5004         30.5004
  23008696.5124    -920289.37949   -712867.96147                  23008694.7064
        42.7504         29.0004
  24739408.6044    2940542.70349   2279657.52046                  24739408.3004
        42.5004         21.7504
  23672181.0744    -757000.59049   -588188.37947                  23672178.6974
        44.5004         28.2504
  20738406.9864     996204.39149    762247.50448                  20738404.8974
        51.5004         42.0004
 04  7 28 19 13 30.0000000  0  7G 1G11G14G20G22G23G25
  22268042.0394    -275239.59049   -216490.91447                  22268041.8094
        45.7504         35.5004
  21504958.5984    1082845.57849    827742.07847                  21504955.7734
        50.0004         38.5004
  23157210.4374    2995011.30149   2294825.58647                  23157208.9664
        45.2504         29.0004
  23004819.4754    -940666.66449   -728746.34847                  23004817.5684
        42.7504         29.7504
  24751200.1364    3002508.88749   2327942.80546                  24751199.7144
        41.0004         22.2504
  23669062.2764    -773389.38749   -600958.79747                  23669060.7374
        44.5004         27.5004
  20742707.3004    1018802.66049    779856.55948                  20742705.2404
        52.0004         42.5004
 04  7 28 19 13 45.0000000  0  7G 1G11G14G20G22G23G25
  22266956.9614    -280941.98449   -220934.31647                  22266957.1044
        46.7504         34.5004
  21509533.5414    1106890.79749    846478.61747                  21509531.3234
        49.5004         38.2504
  23168636.3464    3055054.23049   2341612.27347                  23168633.9834
        46.0004         29.2504
  23000934.7924    -961079.18449   -744652.17247                  23000932.6154
        43.2504         29.7504
  24762988.6184    3064458.48849   2376215.13346                  24762989.2284
        39.0004         20.5004
  23665941.3254    -789790.99249   -613739.22747                  23665938.7854
        44.5004         28.5004
  20747022.8914    1041481.36749    797528.27348                  20747020.8384
        52.0004         43.0004
 04  7 28 19 14  0.0000000  0  7G 1G11G14G20G22G23G25
  22265872.6614    -286640.62949   -225374.79347                  22265872.2054
        46.5004         34.5004
  21514125.4774    1131018.71549    865279.57847                  21514123.0394
        49.5004         37.7504
  23180053.9364    3115052.16449   2388363.92647                  23180050.8774
        47.0004         29.7504
  22997043.4754    -981527.97349   -760586.27047                  22997041.6454
        44.2504         30.0004
  24774772.9564    3126390.21949   2424473.48446                  24774774.5044
        38.0004         20.5004
  23662817.9634    -806206.64849   -626530.57847                  23662816.0184
        45.0004         29.5004
  20751353.7004    1064239.36749    815261.79748                  20751351.6434
        51.7504         42.7504
 04  7 28 19 14 15.0000000  0  7G 1G11G14G20G22G23G25
  22264788.8264    -292335.99649   -229812.70747                  22264787.9744
        47.5004         33.2504
  21518732.3364    1155227.85549    884143.84047                  21518730.0804
        50.2504         38.5004
  23191462.1774    3175004.59449   2435080.09847                  23191460.4154
        46.2504         30.2504
  22993145.5914   -1002013.18749   -776548.76247                  22993142.6944
        45.0004         30.7504
  24786556.1114    3188303.73049   2472717.67646                  24786556.5674
        39.5004         21.2504
  23659690.8594    -822636.78549   -639333.21947                  23659688.3084
        44.7504         28.0004
  20755699.4344    1087076.12949    833056.68848                  20755697.6014
        51.5004         42.5004
 04  7 28 19 14 30.0000000  0  7G 1G11G14G20G22G23G25
  21963912.3104    -298028.92649   -234248.73447                  21963911.9724
        47.5004         34.5004
  21223562.8324    1179522.63749    903074.83647                  21223560.3924
        49.5004         38.5004
  22903069.6534    3234915.05949   2481763.56647                  22903068.8384
        46.0004         29.0004
  22689446.8704   -1022536.52049   -792540.94947                  22689444.9044
        45.7504         30.0004
  24498542.4364    3250202.61749   2520950.47746                  24498542.6894
        40.2504         22.2504
  23356769.9224    -839082.79349   -652148.24247                  23356766.7264
        45.0004         29.0004
  20460267.8794    1109992.55549    850913.64148                  20460265.6124
        51.7504         42.2504
 04  7 28 19 14 45.0000000  0  7G 1G11G14G20G22G23G25
  21962830.8824    -303715.47749   -238679.78547                  21962830.6924
        47.5004         35.0004
  21228200.0864    1203891.62149    922063.65247                  21228197.5954
        49.0004         38.5004
  22914461.8604    3294778.72349   2528410.52047                  22914461.6974
        44.5004         29.0004
  22685535.9914   -1043091.79749   -808558.01247                  22685533.6234
        45.7504         30.7504
  24510317.7564    3312081.75449   2569167.90246                  24510317.7064
        41.2504         23.5004
  23353636.9024    -855539.29749   -664971.42247                  23353635.9164
        44.7504         29.5004
  20464643.7164    1132988.94149    868832.91048                  20464641.7564
        51.5004         42.2504
 04  7 28 19 15  0.0000000  0  7G 1G11G14G20G22G23G25
  21961750.4624    -309392.38749   -243103.33647                  21961749.8544
        45.5004         35.0004
  21232856.4024    1228360.53949    941130.32847                  21232854.0094
        49.0004         38.0004
  22925846.7074    3354603.08249   2575026.87147                  22925844.9484
        45.2504         29.7504
  22681618.4344   -1063676.50849   -824598.02347                  22681616.5064
        45.0004         29.2504
  24522091.3924    3373949.02049   2617376.07046                  24522091.3154
        43.5004         25.0004
  23350504.0144    -872003.60949   -677800.70747                  23350501.3894
        44.2504         29.0004
  20469035.9574    1156070.33649    886818.41448                  20469033.9564
        50.2504         42.2504
 04  7 28 19 15 15.0000000  0  7G 1G11G14G20G22G23G25
  21960671.6854    -315060.56649   -247520.06647                  21960671.4424
        47.2504         35.5004
  21237528.4454    1252910.37949    960260.07447                  21237525.7654
        50.5004         38.7504
  22937222.5024    3414387.11749   2621611.84447                  22937219.9504
        45.7504         29.7504
  22677696.3044   -1084291.30949   -840661.50447                  22677693.2164
        45.0004         30.7504
  24533861.4224    3435803.39849   2665574.22746                  24533861.4154
        43.2504         25.2504
  23347369.4834    -888476.74249   -690636.85247                  23347367.5994
        44.0004         30.2504
  20473444.3994    1179235.66449    904869.32448                  20473442.3294
        51.5004         42.5004
 04  7 28 19 15 30.0000000  0  7G 1G11G14G20G22G23G25
  21959595.2094    -320718.57449   -251928.87547                  21959594.2554
        46.0004         34.7504
  21242216.3794    1277549.30149    979459.22747                  21242214.5064
        49.7504         38.5004
  22948590.8644    3474132.16849   2668166.43447                  22948588.0194
        45.2504         27.5004
  22673767.8254   -1104934.68049   -856747.21947                  22673765.6314
        45.0004         30.5004
  24545629.5824    3497646.26249   2713763.40646                  24545629.7624
        43.0004         25.5004
  23344233.2934    -904957.18049   -703478.68447                  23344230.8274
        46.0004         29.5004
  20477868.6174    1202486.34049    922986.73448                  20477866.5944
        52.0004         42.2504
 04  7 28 19 15 45.0000000  0  7G 1G11G14G20G22G23G25
  21958521.1174    -326363.21949   -256327.27347                  21958520.1064
        46.0004         35.0004
  21246922.7464    1302278.94549    998729.07047                  21246920.2434
        49.0004         38.5004
  22959953.6794    3533841.33649   2714693.03547                  22959951.5484
        44.0004         27.5004
  22669833.9014   -1125603.30549   -872852.60547                  22669832.2314
        44.0004         30.5004
  24557396.4114    3559480.82449   2761946.10246                  24557397.3164
        43.5004         24.0004
  23341096.1054    -921441.67249   -716323.68747                  23341093.9634
        45.5004         30.2504
  20482310.0694    1225825.44549    941173.06348                  20482307.9114
        51.0004         42.5004
 04  7 28 19 16  0.0000000  0  7G 1G11G14G20G22G23G25
  21957448.8124    -331996.96949   -260717.18047                  21957447.9334
        46.0004         34.7504
  21251645.8874    1327099.10949   1018069.45747                  21251643.1134
        50.0004         38.5004
  22971308.9424    3593512.18849   2761189.77747                  22971307.7214
        45.5004         29.5004
  22665895.6754   -1146299.28149   -888979.32047                  22665893.8104
        43.5004         30.0004
  24569161.4904    3621304.65249   2810120.41846                  24569161.9984
        43.5004         22.5004
  23337958.1454    -937932.65249   -729173.76247                  23337955.0524
        44.5004         29.5004
  20486767.5924    1249250.60249    959426.43048                  20486765.7544
        50.5004         42.5004
 04  7 28 19 16 15.0000000  0  7G 1G11G14G20G22G23G25
  21956379.1934    -337617.65249   -265096.91047                  21956378.1544
        44.7504         34.7504
  21256386.4344    1352010.58649   1037480.99247                  21256383.5674
        48.5004         38.5004
  22982657.3984    3653146.73449   2807658.23847                  22982656.2694
        45.7504         30.2504
  22661952.9314   -1167020.23449   -905125.48847                  22661950.7654
        43.5004         30.5004
  24580925.2104    3683119.89549   2858288.07846                  24580924.9344
        42.7504         22.5004
  23334818.8594    -954427.88749   -742027.11747                  23334816.7784
        44.5004         29.7504
  20491241.8914    1272763.90249    977748.48848                  20491239.7024
        50.7504         42.2504
 04  7 28 19 16 30.0000000  0  7G 1G11G14G20G22G23G25
  21955311.8854    -343226.49649   -269467.41847                  21955311.0674
        44.7504         35.2504
  21261143.7514    1377011.87149   1056962.50847                  21261141.2064
        48.5004         38.2504
  22993997.9714    3712743.64549   2854097.37947                  22993995.9404
        45.0004         27.5004
  22658005.1894   -1187767.19549   -921291.93447                  22658002.6604
        44.2504         30.5004
  24592685.5954    3744925.28149   2906448.07846                  24592685.8674
        42.0004         21.5004
  23331678.7604    -970928.61349   -754884.75847                  23331675.5204
        44.5004         28.2504
  20495732.9944    1296363.90649    996138.11348                  20495731.0644
        50.0004         43.0004
 04  7 28 19 16 45.0000000  0  6G 1G11G14G20G23G25
  21954247.1314    -348821.96549   -273827.49247                  21954246.6534
        44.5004         35.5004
  21265918.9744    1402104.51249   1076515.20747                  21265916.4394
        49.0004         38.2504
  23005331.6054    3772304.52049   2900508.44547                  23005329.5504
        44.0004         27.7504
  22654052.3684   -1208538.43749   -937477.29747                  22654050.0974
        43.0004         30.5004
  23328538.1974    -987433.07449   -767745.34047                  23328536.2484
        45.0004         29.7504
  20500240.5604    1320052.34849   1014596.63748                  20500238.5004
        49.7504         43.0004
 04  7 28 19 17  0.0000000  0  6G 1G11G14G20G23G25
  21953184.9624    -354402.52049   -278175.96147                  21953184.3184
        45.0004         35.2504
  21270711.5434    1427290.51249   1096140.65647                  21270709.2324
        49.0004         38.0004
  23016659.4364    3831830.67249   2946892.43847                  23016656.9384
        44.5004         28.0004
  22650094.9144   -1229332.19549   -953680.20747                  22650092.8784
        42.0004         30.7504
  23325396.4734   -1003939.68749   -780607.57847                  23325394.2814
        43.7504         28.0004
  20504765.5654    1343830.48849   1033125.05948                  20504763.5324
        49.5004         41.7504
 04  7 28 19 17 15.0000000  0  6G 1G11G14G20G23G25
  21952126.7204    -359965.16849   -282510.46547                  21952126.1254
        46.2504         35.0004
  21275522.5584    1452572.50449   1115840.90647                  21275520.0084
        50.2504         38.2504
  23027981.1984    3891325.07449   2993251.71147                  23027978.9144
        45.5004         29.0004
  22646134.6204   -1250145.27749   -969898.15247                  22646132.8994
        43.7504         30.7504
  23322255.6324   -1020445.55549   -793469.21947                  23322252.6104
        44.0004         28.5004
  20509308.2654    1367701.53549   1051725.88348                  20509306.0764
        50.7504         42.0004
 04  7 28 19 17 30.0000000  0  6G 1G11G14G20G23G25
  21951072.0764    -365508.39549   -286829.83247                  21951071.3004
        45.0004         34.5004
  21280352.4924    1477952.91849   1135617.84447                  21280350.0024
        50.5004         38.0004
  23039296.8184    3950789.24249   3039587.39147                  23039295.3674
        45.5004         29.0004
  22642171.2934   -1270975.82049   -986129.71547                  22642168.7134
        45.0004         30.5004
  23319115.5294   -1036948.98849   -806328.98847                  23319112.8424
        44.0004         29.5004
  20513868.5444    1391666.90249   1070400.19948                  20513866.6514
        50.0004         42.2504
 04  7 28 19 17 45.0000000  0  6G 1G11G14G20G23G25
  21950021.3144    -371029.90649   -291132.28147                  21950020.4484
        45.2504         35.0004
  21285200.9484    1503432.34449   1155471.94147                  21285198.1414
        50.5004         38.5004
  23050606.3954    4010225.28149   3085901.16847                  23050605.5004
        44.0004         28.2504
  22638203.3954   -1291821.45749  -1002373.05547                  22638201.4114
        43.2504         31.0004
  23315975.8714   -1053447.77749   -819185.12147                  23315973.6024
        45.0004         30.0004
  20518447.6154    1415728.57449   1089149.55948                  20518445.0984
        50.0004         42.2504
 04  7 28 19 18  0.0000000  0  6G 1G11G14G20G23G25
  21948974.1924    -376530.64149   -295418.55147                  21948973.6004
        46.0004         35.5004
  21290068.0934    1529010.33649   1175402.84447                  21290065.9074
        51.0004         38.5004
  23061911.1704    4069632.23449   3132192.25847                  23061909.1864
        43.5004         27.2504
  22634234.2174   -1312682.84849  -1018628.66447                  22634231.6944
        44.0004         30.0004
  23312836.4354   -1069942.79749   -832038.33247                  23312833.2374
        44.0004         28.5004
  20523043.9774    1439885.64549   1107973.25848                  20523041.7954
        51.0004         42.7504
 04  7 28 19 18 15.0000000  0  6G 1G11G14G20G23G25
  21947932.3744    -382007.36749   -299686.10947                  21947931.3194
        46.7504         35.5004
  21294954.0134    1554684.82449   1195408.93047                  21294951.5004
        49.5004         38.5004
  23073212.0934    4129013.31649   3178463.22747                  23073209.4564
        44.7504         28.0004
  22630261.7344   -1333556.57849  -1034893.88347                  22630260.0124
        42.0004         30.5004
  23309699.1714   -1086430.70349   -844885.98447                  23309696.4944
        44.2504         29.7504
  20527659.9244    1464141.35249   1126873.80548                  20527658.1244
        50.7504         42.0004
 04  7 28 19 18 30.0000000  0  6G 1G11G14G20G23G25
  21946894.1664    -387463.90649   -303937.93047                  21946892.9284
        47.5004         35.5004
  21299860.6424    1580469.51649   1215500.89547                  21299858.3634
        49.0004         37.5004
  23084506.2964    4188364.45349   3224710.85547                  23084503.2784
        46.2504         28.5004
  22626286.1684   -1354446.09449  -1051171.39147                  22626284.7744
        44.5004         31.2504
  23306562.5144   -1102915.15649   -857730.96547                  23306558.3474
        44.5004         29.0004
  20532293.7844    1488491.80549   1145848.18848                  20532291.3434
        50.0004         42.0004
 04  7 28 19 18 45.0000000  0  6G 1G11G14G20G23G25
  21945859.5844    -392898.64149   -308172.76247                  21945859.0194
        47.7504         35.5004
  21304784.8184    1606347.68849   1235665.69947                  21304782.7204
        49.5004         37.7504
  23095794.5724    4247687.23849   3270936.41847                  23095792.4354
        44.7504         28.5004
  22622309.0304   -1375349.66049  -1067459.86347                  22622307.0884
        44.0004         31.5004
  23303426.4954   -1119394.66849   -870572.09047                  23303423.8454
        43.7504         29.5004
  20536945.7684    1512938.50849   1164897.57048                  20536943.5714
        50.0004         42.5004
 04  7 28 19 19  0.0000000  0  6G 1G11G14G20G23G25
  21944829.8584    -398309.88749   -312389.29747                  21944829.0484
        47.7504         35.5004
  21309728.4534    1632324.97349   1255907.73447                  21309726.0034
        50.0004         38.0004
  23107078.2624    4306983.48049   3317141.25047                  23107075.8824
        44.0004         26.7504
  22618328.7334   -1396265.35949  -1083757.79347                  22618326.6864
        43.0004         31.0004
  23300291.7724   -1135867.36749   -883407.93447                  23300288.4854
        45.2504         30.2504
  20541616.3334    1537483.10949   1184023.24648                  20541614.0844
        51.0004         42.5004
 04  7 28 19 19 15.0000000  0  6G 1G11G14G20G23G25
  21943803.4854    -403701.60249   -316590.61747                  21943802.8654
        46.5004         35.5004
  21314691.1934    1658404.53549   1276229.46547                  21314688.5284
        51.5004         38.5004
  23118356.1674    4366249.05549   3363322.17247                  23118354.4404
        44.0004         27.2504
  22614345.5254   -1417196.93449  -1100068.07847                  22614343.4624
        43.0004         31.5004
  23297158.2124   -1152337.15649   -896241.44547                  23297155.8414
        44.7504         29.0004
  20546305.0674    1562121.63749   1203222.09848                  20546302.7714
        51.0004         42.5004
 04  7 28 19 19 30.0000000  0  6G 1G11G14G20G23G25
  21942781.5184    -409072.61349   -320775.79747                  21942780.7434
        46.5004         35.2504
  21319672.0804    1684579.52049   1296625.55547                  21319669.8904
        51.0004         38.2504
  23129628.5104    4425485.10549   3409480.11347                  23129626.8664
        44.5004         28.7504
  22610359.4874   -1438142.86749  -1116389.56647                  22610357.4484
        43.2504         31.2504
  23294024.3364   -1168802.83649   -909071.82447                  23294021.5384
        45.0004         29.7504
  20551011.4214    1586855.19949   1222495.00848                  20551009.4374
        52.0004         42.5004
 04  7 28 19 19 45.0000000  0  6G 1G11G14G20G23G25
  21941763.9864    -414421.70749   -324943.88747                  21941763.3374
        46.0004         35.2504
  21324672.4674    1710856.17649   1317100.86347                  21324669.6404
        51.5004         38.2504
  23140895.3624    4484692.67249   3455615.87147                  23140893.4764
        45.0004         28.5004
  22606371.1714   -1459101.82449  -1132721.19947                  22606369.2064
        44.0004         32.0004
  23290891.7174   -1185263.12149   -921897.94947                  23290890.9044
        44.0004         30.2504
  20555736.5144    1611684.96549   1241842.88748                  20555734.6744
        51.2504         42.7504
 04  7 28 19 20  0.0000000  0  6G 1G11G14G20G23G25
  21940750.4924    -419747.94549   -329094.18047                  21940749.5524
        45.5004         34.7504
  21329691.3364    1737231.41449   1337653.00047                  21329688.9704
        51.2504         38.0004
  23152156.7484    4543872.67649   3501730.16847                  23152154.4774
        44.0004         27.0004
  22602380.4844   -1480072.68749  -1149062.10547                  22602378.7784
        43.2504         31.5004
  23287760.8784   -1201717.24249   -934719.29347                  23287758.3724
        44.5004         30.2504
  20560479.8884    1636611.87149   1261266.45748                  20560477.9974
        51.5004         42.5004
 04  7 28 19 20 15.0000000  0  6G 1G11G14G20G23G25
  21939740.1434    -425054.84049   -333229.39847                  21939739.5414
        46.2504         35.0004
  21334729.0644    1763705.12949   1358281.85947                  21334726.7564
        50.5004         37.5004
  23163411.7004    4603021.53949   3547820.17247                  23163410.3854
        44.2504         28.0004
  22598386.9404   -1501058.64149  -1165414.77047                  22598385.3934
        43.2504         31.7504
  23284630.7814   -1218168.41849   -947538.32447                  23284628.6674
        44.0004         29.2504
  20565241.3414    1661632.20349   1280762.81648                  20565239.5564
        51.0004         42.7504
 04  7 28 19 20 30.0000000  0  6G 1G11G14G20G23G25
  21938734.5584    -430339.63749   -337347.40247                  21938733.6244
        46.2504         35.0004
  21339785.6434    1790277.95349   1378987.95747                  21339783.5844
        50.7504         38.2504
  23174662.8104    4662141.90649   3593887.96947                  23174660.9974
        44.2504         28.2504
  22594391.1574   -1522056.79349  -1181776.93047                  22594389.3264
        44.7504         31.5004
  23281501.2404   -1234613.91449   -960352.96147                  23281498.2584
        44.2504         29.5004
  20570020.3904    1686748.56649   1300334.02048                  20570018.7354
        49.7504         42.5004
 04  7 28 19 20 45.0000000  0  6G 1G11G14G20G23G25
  21937733.3794    -435601.29349   -341447.36747                  21937731.9844
        47.0004         35.5004
  21344861.7144    1816951.49649   1399772.53547                  21344859.4264
        51.0004         38.0004
  23185907.9184    4721234.77349   3639934.33247                  23185906.8954
        45.0004         29.5004
  22590393.5474   -1543065.89849  -1198147.64547                  22590391.3254
        45.7504         32.0004
  23278372.8404   -1251052.74249   -973162.38747                  23278370.2324
        44.5004         30.0004
  20574818.4314    1711961.98849   1319980.84448                  20574816.7234
        50.5004         42.7504
 04  7 28 19 21  0.0000000  0  6G 1G11G14G20G23G25
  21936735.9564    -440841.43749   -345530.57847                  21936735.2154
        46.5004         36.0004
  21349956.0414    1843724.12149   1420634.32047                  21349953.5454
        51.5004         37.7504
  23197147.5614    4780298.54349   3685958.02047                  23197146.2864
        44.7504         29.0004
  22586393.4494   -1564087.11349  -1214527.79747                  22586390.9624
        46.0004         33.0004
  23275245.4234   -1267486.30549   -985967.70747                  23275242.9934
        43.5004         30.0004
  20579634.7354    1737270.74249   1339701.94948                  20579632.6684
        50.7504         42.0004
 04  7 28 19 21 15.0000000  0  6G 1G11G14G20G23G25
  21935743.1954    -446058.27749   -349595.62947                  21935742.4704
        47.0004         36.0004
  21355070.0524    1870597.50049   1441574.60247                  21355067.7974
        51.2504         38.0004
  23208381.4604    4839334.84449   3731960.32847                  23208379.2694
        44.0004         27.5004
  22582390.4374   -1585118.62949  -1230915.96947                  22582389.0064
        45.5004         32.2504
  23272119.3544   -1283912.79749   -998767.52747                  23272117.4444
        44.0004         29.7504
  20584469.6474    1762676.62549   1359498.75048                  20584467.2944
        51.5004         42.2504
 04  7 28 19 21 30.0000000  0  6G 1G11G14G20G23G25
  21934754.3244    -451254.86749   -353644.89147                  21934753.3894
        46.0004         35.0004
  21360202.7564    1897568.68049   1462591.10247                  21360200.0734
        51.0004         38.0004
  23219609.7954    4898340.62149   3777938.85247                  23219607.3044
        43.7504         27.2504
  22578386.2104   -1606163.16849  -1247314.27347                  22578384.8524
        46.2504         32.5004
  23268994.5774   -1300335.25449  -1011564.17647                  23268991.6374
        43.7504         30.2504
  20589321.6054    1788176.44149   1379368.74248                  20589319.6564
        50.5004         42.2504
 04  7 28 19 21 45.0000000  0  6G 1G11G14G20G23G25
  21933770.0004    -456429.61749   -357677.14847                  21933768.9654
        46.5004         35.7504
  21365353.8844    1924639.15649   1483684.98047                  21365351.4674
        51.2504         38.0004
  23230833.4154    4957317.44549   3823894.80147                  23230829.9904
        44.0004         27.7504
  22574379.5124   -1627218.90649  -1263721.31647                  22574377.8864
        45.5004         31.5004
  23265870.1764   -1316752.02749  -1024356.43447                  23265868.4574
        44.2504         30.2504
  20594192.4154    1813771.61349   1399313.03948                  20594190.2444
        51.0004         42.0004
 04  7 28 19 22  0.0000000  0  6G 1G11G14G20G23G25
  21932789.5484    -461581.19949   -361691.34047                  21932788.3324
        45.7504         35.2504
  21370524.3074    1951810.18849   1504857.20347                  21370522.2434
        51.2504         38.0004
  23242050.9034    5016266.53949   3869829.14147                  23242048.7384
        44.2504         28.5004
  22570370.5224   -1648284.36349  -1280135.93747                  22570368.4364
        46.5004         32.0004
  23262747.0864   -1333161.72349  -1037143.15247                  23262744.2454
        44.0004         29.5004
  20599081.7384    1839463.50049   1419332.68848                  20599079.4594
        49.7504         41.7504
 04  7 28 19 22 15.0000000  0  6G 1G11G14G20G23G25
  21931813.0184    -466711.05149   -365688.60947                  21931812.1894
        47.5004         35.0004
  21375713.3504    1979080.04749   1526106.44547                  21375711.5504
        51.0004         38.2504
  23253262.8944    5075186.36749   3915740.66447                  23253261.6564
        44.5004         29.7504
  22566360.1694   -1669360.62149  -1296558.98847                  22566357.5084
        47.2504         32.0004
  23259625.6284   -1349565.70349  -1049925.41447                  23259624.0024
        42.0004         28.7504
  20603988.3034    1865250.67249   1439426.59448                  20603986.1734
        51.2504         42.5004
 04  7 28 19 22 30.0000000  0  6G 1G11G14G20G23G25
  21930841.2774    -471817.23049   -369667.41447                  21930840.6084
        46.5004         35.2504
  21380922.2984    2006450.95749   1547434.41447                  21380919.7574
        50.0004         38.0004
  23264469.3084    5134078.87549   3961630.90647                  23264468.0084
        44.5004         30.0004
  22562347.3734   -1690445.51249  -1312988.75447                  22562345.6224
        44.7504         31.7504
  23256505.7594   -1365961.99649  -1062701.72347                  23256502.0294
        44.0004         27.5004
  20608913.9074    1891135.00049   1459596.20348                  20608911.8994
        51.0004         42.5004
 04  7 28 19 22 45.0000000  0  6G 1G11G14G20G23G25
  21929874.3534    -476898.25449   -373626.63747                  21929873.6764
        46.7504         35.7504
  21386150.0034    2033924.26649   1568842.18447                  21386147.5594
        50.2504         37.7504
  23275671.4574    5192945.62149   4007501.09847                  23275669.0874
        44.0004         28.0004
  22558333.6854   -1711537.40649  -1329423.96547                  22558332.4254
        46.2504         32.7504
  23253387.3844   -1382349.14149  -1075470.85947                  23253384.2534
        43.2504         27.7504
  20613858.4744    1917117.87549   1479842.61348                  20613856.4214
        51.0004         42.5004
 04  7 28 19 23  0.0000000  0  6G 1G11G14G20G23G25
  21928912.0324    -481955.25049   -377567.13347                  21928911.4824
        47.2504         35.5004
  21391397.3964    2061498.77049   1590328.81347                  21391395.0394
        50.5004         37.7504
  23286868.2774    5251785.27349   4053350.17247                  23286865.6634
        44.7504         28.0004
  22554319.1654   -1732637.16049  -1345865.31247                  22554317.5004
        47.7504         32.5004
  23250269.8224   -1398728.14149  -1088233.64547                  23250266.7854
        42.2504         27.5004
  20618821.3984    1943197.95349   1500164.74248                  20618819.3834
        51.5004         42.7504
 04  7 28 19 23 15.0000000  0  6G 1G11G14G20G23G25
  21927954.2544    -486989.77749   -381490.10947                  21927952.9844
        47.5004         35.7504
  21396663.4884    2089172.80549   1611892.99247                  21396661.0474
        50.7504         37.7504
  23298059.2214    5310596.17249   4099176.82447                  23298057.6874
        42.7504         27.5004
  22550302.1194   -1753746.04349  -1362313.76647                  22550300.4174
        46.7504         32.5004
  23247154.6684   -1415100.52049  -1100991.35547                  23247150.6804
        42.0004         28.7504
  20623802.4734    1969373.72349   1520561.45348                  20623800.4164
        51.5004         43.0004
 04  7 28 19 23 30.0000000  0  6G 1G11G14G20G23G25
  21927001.0994    -491997.91049   -385392.52747                  21927000.3514
        48.0004         36.0004
  21401949.3974    2116950.02349   1633537.58647                  21401947.1274
        50.2504         37.7504
  23309246.5324    5369382.18449   4144984.07447                  23309244.3924
        43.2504         28.2504
  22546284.1604   -1774859.96149  -1378766.14147                  22546282.2374
        46.5004         32.2504
  23244041.1664   -1431462.31649  -1113740.71947                  23244038.0454
        43.2504         29.7504
  20628802.5694    1995649.22349   1541035.87548                  20628800.4334
        51.7504         42.5004
 04  7 28 19 23 45.0000000  0  6G 1G11G14G20G23G25
  21926052.8974    -496980.89549   -389275.33647                  21926051.6324
        49.0004         35.5004
  21407254.7834    2144829.49649   1655261.83647                  21407252.2544
        49.7504         37.5004
  23320427.6844    5428142.00449   4190770.94547                  23320426.1484
        44.0004         29.5004
  22542265.3094   -1795979.90649  -1395223.22747                  22542263.2684
        47.2504         31.7504
  23240929.3254   -1447814.64149  -1126482.72347                  23240925.8604
        43.0004         28.5004
  20633821.1644    2022022.92649   1561586.82848                  20633819.2094
        50.7504         42.7504
 04  7 28 19 24  0.0000000  0  6G 1G11G14G20G23G25
  21925109.6024    -501938.76249   -393138.58647                  21925108.5564
        49.2504         36.0004
  21412579.7014    2172811.09449   1677065.66447                  21412577.0754
        50.0004         37.7504
  23331604.2814    5486875.63749   4236537.39547                  23331603.1584
        43.7504         29.7504
  22538244.9294   -1817105.66849  -1411684.83647                  22538243.2104
        48.0004         32.0004
  23237819.8694   -1464157.54749  -1139217.42247                  23237815.4774
        43.0004         29.2504
  20638858.7654    2048494.67249   1582214.16448                  20638856.3794
        51.7504         42.7504
 04  7 28 19 24 15.0000000  0  6G 1G11G14G20G23G25
  21924170.9114    -506869.93049   -396981.04347                  21924170.1234
        48.7504         36.0004
  21417923.7774    2200896.12949   1698950.11347                  21417921.6184
        50.0004         38.5004
  23342776.0164    5545584.50449   4282284.54347                  23342775.0314
        42.5004         28.0004
  22534224.4144   -1838235.40249  -1428149.54347                  22534222.1514
        47.5004         32.2504
  23234711.0104   -1480489.43449  -1151943.53147                  23234707.8464
        43.2504         29.5004
  20643914.9414    2075065.91849   1602919.02748                  20643912.8404
        52.0004         42.0004
 04  7 28 19 24 30.0000000  0  6G 1G11G14G20G23G25
  21923237.9354    -511772.33649   -400801.08247                  21923237.5834
        49.0004         36.2504
  21423288.5334    2229086.71549   1720916.79747                  21423285.8074
        49.5004         38.5004
  23353942.7984    5604270.71549   4328014.04747                  23353941.6594
        42.0004         27.0004
  22530202.8584   -1859366.77749  -1444615.53147                  22530201.0844
        47.5004         32.2504
  23231606.5444   -1496808.12149  -1164659.35247                  23231603.2574
        42.7504         30.2504
  20648990.3774    2101738.82049   1623703.11748                  20648988.2974
        51.0004         42.0004
 04  7 28 19 24 45.0000000  0  6G 1G11G14G20G23G25
  21922310.3764    -516646.75849   -404599.30547                  21922309.8594
        49.0004         36.0004
  21428672.6074    2257382.00849   1742965.07847                  21428670.4364
        50.0004         38.0004
  23365107.1664    5662933.43849   4373725.25847                  23365104.6014
        42.5004         28.2504
  22526181.3744   -1880500.45749  -1461083.30547                  22526179.3224
        47.2504         31.7504
  23228503.6264   -1513114.38749  -1177365.48047                  23228499.3724
        45.2504         30.5004
  20654085.5774    2128512.45749   1644565.69548                  20654083.3974
        52.2504         42.2504
 04  7 28 19 25  0.0000000  0  6G 1G11G14G20G23G25
  21921388.5824    -521491.52349   -408374.42247                  21921388.2124
        49.2504         36.0004
  21434077.3884    2285783.56349   1765096.14847                  21434074.6964
        50.2504         38.0004
  23376266.0614    5721574.16449   4419419.32847                  23376263.8974
        44.0004         28.2504
  22522159.9064   -1901634.34849  -1477551.24647                  22522157.4614
        47.5004         31.2504
  23225402.6254   -1529406.43049  -1190060.53147                  23225400.5414
        44.5004         30.5004
  20659199.8914    2155388.31349   1665507.92248                  20659197.2334
        51.5004         42.0004
 04  7 28 19 25 15.0000000  0  6G 1G11G14G20G23G25
  21920472.2224    -526307.10949   -412126.80947                  21920471.5954
        49.0004         36.7504
  21439502.2804    2314290.77749   1787309.56347                  21439499.6244
        49.2504         37.7504
  23387420.6414    5780192.41449   4465095.87147                  23387419.9544
        43.7504         29.0004
  22518138.0684   -1922768.86349  -1494019.69947                  22518135.6594
        47.7504         32.0004
  23222305.1874   -1545684.82049  -1202744.94947                  23222301.7524
        44.7504         30.2504
  20664333.5574    2182365.95349   1686529.46148                  20664331.2904
        51.0004         42.2504
 04  7 28 19 25 30.0000000  0  6G 1G11G14G20G23G25
  21919561.5654    -531091.73449   -415855.05547                  21919560.8824
        48.7504         36.2504
  21444947.3564    2342905.47349   1809606.72347                  21444945.2344
        50.7504         38.2504
  23398571.4314    5838790.03949   4510756.31647                  23398570.6254
        42.5004         27.7504
  22514116.5964   -1943901.88349  -1510486.96547                  22514114.6884
        47.5004         32.0004
  23219210.3604   -1561947.61349  -1215417.17647                  23219207.9754
        44.5004         30.5004
  20669486.8464    2209446.89549   1707631.49648                  20669484.6334
        52.0004         42.5004
 04  7 28 19 25 45.0000000  0  6G 1G11G14G20G23G25
  21918656.3264    -535848.66849   -419561.73447                  21918655.3734
        49.5004         36.5004
  21450412.1954    2371624.29349   1831985.02747                  21450409.6864
        51.0004         38.0004
  23409717.9294    5897363.68049   4556398.08647                  23409716.8214
        43.2504         28.5004
  22510094.4224   -1965036.43449  -1526955.42247                  22510093.1694
        47.7504         32.7504
  23216118.0524   -1578197.91849  -1228079.72747                  23216115.1584
        42.5004         30.5004
  20674659.2054    2236627.90649   1728811.50848                  20674657.0704
        52.5004         42.0004
 04  7 28 19 26  0.0000000  0  6G 1G11G14G20G23G25
  21917756.9074    -540576.74249   -423245.92647                  21917755.9834
        48.5004         36.0004
  21455897.7024    2400448.39849   1854445.35547                  21455895.3024
        51.0004         38.5004
  23420860.3174    5955914.39549   4602022.00047                  23420858.1184
        43.0004         26.0004
  22506072.6694   -1986171.05149  -1543423.93047                  22506070.7274
        47.5004         31.0004
  23213028.1454   -1594434.66049  -1240731.69547                  23213025.6444
        43.5004         30.2504
  20679851.0554    2263910.11749   1750070.37548                  20679848.4384
        52.2504         42.0004
 04  7 28 19 26 15.0000000  0  6G 1G11G14G20G23G25
  21916862.9514    -545274.25849   -426906.30547                  21916862.1114
        48.7504         36.0004
  21461402.8584    2429379.35949   1876988.96547                  21461400.6164
        50.5004         37.7504
  23431997.3654    6014443.91849   4647629.41447                  23431994.8464
        43.7504         27.2504
  22502051.2494   -2007303.78149  -1559890.97747                  22502048.9014
        47.5004         31.2504
  23209941.4004   -1610656.07849  -1253371.67247                  23209938.8774
        43.5004         30.5004
  20685061.8584    2291295.14549   1771409.36748                  20685059.6944
        52.0004         41.7504
 04  7 28 19 26 30.0000000  0  6G 1G11G14G20G23G25
  21915974.8074    -549940.33649   -430542.18747                  21915974.2354
        48.5004         36.5004
  21466928.9314    2458418.06649   1899616.52047                  21466926.2994
        49.0004         37.5004
  23443132.1714    6072953.17649   4693221.04347                  23443129.8514
        42.5004         28.0004
  22498030.7424   -2028433.42249  -1576355.61747                  22498028.5074
        47.7504         32.5004
  23206857.8214   -1626861.26249  -1265999.02747                  23206854.9974
        42.5004         31.0004
  20690292.7754    2318783.61749   1792828.96148                  20690290.5894
        50.5004         41.7504
 04  7 28 19 26 45.0000000  0  6G 1G11G14G20G23G25
  21915092.8364    -554575.50849   -434153.97747                  21915092.1484
        49.7504         36.5004
  21472475.0314    2487563.94149   1922327.58247                  21472472.4074
        49.5004         38.0004
  23454261.3544    6131441.52049   4738796.35547                  23454259.8934
        41.0004         26.5004
  22494009.8764   -2049560.36749  -1592818.15247                  22494008.0014
        47.0004         32.2504
  23203776.6234   -1643050.57449  -1278614.02047                  23203774.0944
        44.0004         30.5004
  20695543.2724    2346374.99249   1814328.73448                  20695541.3864
        51.2504         41.7504
 04  7 28 19 27  0.0000000  0  6G 1G11G14G20G23G25
  21914216.7334    -559180.00449   -437741.87547                  21914215.6784
        49.5004         36.5004
  21478041.4824    2516816.52749   1945121.80147                  21478038.8764
        49.0004         37.5004
  23465386.7004    6189908.67649   4784355.15246                  23465385.5464
        40.2504         24.7504
  22489990.3084   -2070684.61749  -1609278.57047                  22489988.8494
        47.2504         32.0004
  23200699.1454   -1659224.11749  -1291216.72747                  23200696.4564
        42.2504         31.5004
  20700813.3254    2374068.92249   1835908.41848                  20700811.3124
        50.7504         42.0004
 04  7 28 19 27 15.0000000  0  6G 1G11G14G20G23G25
  21913346.3724    -563753.71549   -441305.78547                  21913345.3304
        49.5004         36.2504
  21483628.7324    2546175.77749   1967999.12947                  21483626.0744
        50.5004         37.5004
  23476508.8674    6248354.61349   4829897.44146                  23476507.0994
        40.5004         24.0004
  22485971.0974   -2091805.73049  -1625736.54347                  22485969.0174
        47.0004         33.0004
  23197624.7344   -1675381.96149  -1303807.20347                  23197621.6904
        43.0004         31.5004
  20706102.8834    2401865.56649   1857568.14148                  20706100.6684
        51.5004         42.0004
 04  7 28 19 27 30.0000000  0  6G 1G11G14G20G23G25
  21912482.2864    -568294.77749   -444844.25847                  21912481.3694
        50.2504         36.7504
  21489236.1844    2575643.43449   1990960.93847                  21489233.5074
        51.0004         38.2504
  23487627.1514    6306781.13749   4875424.59046                  23487624.2734
        40.0004         23.0004
  22481953.0544   -2112921.69149  -1642190.54347                  22481950.2494
        47.2504         32.5004
  23194553.1904   -1691522.17249  -1316383.93747                  23194548.8034
        43.7504         30.7504
  20711412.6154    2429766.50449   1879309.13748                  20711410.3574
        51.5004         42.2504
 04  7 28 19 27 45.0000000  0  6G 1G11G14G20G23G25
  21911624.2784    -572804.00849   -448357.91447                  21911622.9404
        49.5004         36.2504
  21494863.9644    2605218.84049   2014006.69947                  21494861.4354
        50.0004         37.5004
  23498741.9544    6365187.53149   4920936.06646                  23498739.7054
        42.0004         25.0004
  22477935.5514   -2134032.99649  -1658640.90647                  22477933.1184
        47.5004         32.0004
  23191484.7394   -1707645.42249  -1328947.46947                  23191481.1664
        42.5004         31.0004
  20716741.0554    2457770.87549   1901130.73048                  20716739.0704
        51.5004         42.5004
 04  7 28 19 28  0.0000000  0  6G 1G11G14G20G23G25
  21910772.0984    -577280.68049   -451846.21947                  21910771.3384
        49.0004         36.7504
  21500512.5364    2634902.27749   2037136.65647                  21500509.9074
        50.7504         38.2504
  23509852.5344    6423574.32849   4966432.26647                  23509851.1904
        41.7504         26.5004
  22473918.8934   -2155138.69949  -1675086.87147                  22473917.4024
        47.2504         32.2504
  23188420.2164   -1723751.02349  -1341497.25047                  23188416.0424
        43.0004         31.0004
  20722090.0564    2485879.22349   1923033.33648                  20722088.1064
        51.2504         42.2504
 04  7 28 19 28 15.0000000  0  6G 1G11G14G20G23G25
  21909926.2394    -581724.10949   -455308.60547                  21909925.4724
        49.0004         36.0004
  21506181.5374    2664694.85249   2060351.64547                  21506179.2464
        50.0004         38.0004
  23520958.9544    6481942.31349   5011913.79347                  23520958.6014
        40.0004         26.5004
  22469904.4084   -2176237.81649  -1691527.71547                  22469902.4304
        48.5004         33.2504
  23185359.2664   -1739838.14149  -1354032.64147                  23185354.4614
        43.2504         31.2504
  20727458.6854    2514092.37549   1945017.61348                  20727456.6354
        51.0004         42.2504
 04  7 28 19 28 30.0000000  0  6G 1G11G14G20G23G25
  21909086.6314    -586137.85249   -458747.85247                  21909085.8904
        49.7504         36.5004
  21511871.2454    2694592.78149   2083648.71547                  21511868.6194
        49.5004         37.7504
  23532061.8254    6540287.85549   5057377.80946                  23532061.0054
        38.5004         24.0004
  22465889.9064   -2197333.64549  -1707966.01247                  22465887.8734
        48.0004         33.2504
  23182299.8674   -1755910.30549  -1366556.34047                  23182296.7324
        43.2504         31.5004
  20732846.5604    2542406.57849   1967080.63348                  20732844.3184
        51.0004         42.5004
 04  7 28 19 28 45.0000000  0  6G 1G11G14G20G23G25
  21908252.2914    -590520.01649   -462162.50447                  21908252.0034
        49.7504         36.2504
  21517580.7944    2724597.65249   2107029.13747                  21517578.2224
        50.2504         38.2504
  23543161.2174    6598612.73049   5102825.73846                  23543158.9744
        39.2504         25.5004
  22461876.2294   -2218424.08249  -1724400.09847                  22461874.4374
        47.2504         32.5004
  23179244.9514   -1771965.69949  -1379067.00047                  23179241.4024
        41.5004         30.5004
  20738254.3534    2570823.53549   1989223.71148                  20738252.3554
        51.0004         42.7504
 04  7 28 19 29  0.0000000  0  6G 1G11G14G20G23G25
  21907424.8814    -594870.29349   -465552.31647                  21907423.9244
        49.7504         36.7504
  21523311.3004    2754709.83249   2130493.16447                  21523308.6614
        50.7504         38.0004
  23554256.5414    6656917.31349   5148257.88347                  23554252.9934
        41.5004         25.7504
  22457864.0174   -2239508.50049  -1740829.49647                  22457861.9274
        47.0004         32.7504
  23176192.9484   -1788003.87949  -1391564.22747                  23176189.1944
        42.0004         31.0004
  20743681.6764    2599343.49649   2011447.06348                  20743679.2884
        50.7504         42.7504
 04  7 28 19 29 15.0000000  0  6G 1G11G14G20G23G25
  21906603.2174    -599188.73849   -468917.29747                  21906602.2294
        49.7504         37.0004
  21529062.0454    2784929.12949   2154040.66447                  21529059.4444
        50.5004         38.0004
  23565347.7004    6715201.44949   5193674.11747                  23565345.1434
        42.2504         26.2504
  22453852.7874   -2260586.72349  -1757254.06247                  22453850.9044
        47.2504         32.7504
  23173143.8614   -1804024.82849  -1404048.05547                  23173140.7834
        42.7504         31.0004
  20749128.3674    2627966.30949   2033750.56348                  20749125.7724
        51.0004         42.5004
 04  7 28 19 29 30.0000000  0  6G 1G11G14G20G23G25
  21905786.7904    -603477.87149   -472259.45747                  21905786.1024
        49.5004         37.5004
  21534832.3254    2815253.02049   2177669.66047                  21534830.0354
        50.2504         38.2504
  23576434.3794    6773462.56349   5239072.36747                  23576432.9434
        41.5004         29.0004
  22449842.9984   -2281661.12549  -1773675.65647                  22449841.0494
        48.5004         32.7504
  23170098.4114   -1820031.07049  -1416520.37547                  23170094.6204
        42.0004         31.5004
  20754594.1844    2656689.28149   2056132.09848                  20754591.7564
        51.0004         42.2504
 04  7 28 19 29 45.0000000  0  6G 1G11G14G20G23G25
  21904977.4914    -607731.15649   -475573.68447                  21904976.7864
        49.5004         37.2504
  21540623.6634    2845688.00449   2201385.23047                  21540621.3824
        51.0004         37.5004
  23587517.8844    6831707.13749   5284457.71547                  23587517.2564
        40.2504         28.5004
  22445834.4784   -2302724.84449  -1790088.91847                  22445832.5434
        48.2504         33.0004
  23167056.8584   -1836015.74649  -1428975.91847                  23167053.7894
        41.5004         30.5004
  20760080.3514    2685518.98449   2078596.80548                  20760078.0364
        50.2504         42.5004
 04  7 28 19 30  0.0000000  0  6G 1G11G14G20G23G25
  21904174.7604    -611950.23849   -478861.25047                  21904173.3194
        50.0004         36.2504
  21546436.0944    2876232.10949   2225185.83247                  21546433.7344
        50.2504         37.7504
  23598597.9194    6889933.57449   5329828.93847                  23598597.0354
        42.5004         28.7504
  22441827.8644   -2323779.18749  -1806494.88347                  22441825.7934
        48.2504         33.0004
  23164018.0524   -1851980.58649  -1441416.02747                  23164015.8094
        43.2504         32.2504
  20765586.2244    2714453.54749   2101143.21948                  20765583.9554
        50.7504         42.0004
 04  7 28 19 30 15.0000000  0  6G 1G11G14G20G23G25
  21903378.0044    -616136.43449   -482123.20347                  21903376.9974
        49.5004         36.5004
  21552268.8794    2906884.06649   2249070.46547                  21552266.6084
        51.0004         38.0004
  23609673.7364    6948140.63349   5375185.07047                  23609672.9444
        42.5004         26.2504
  22437822.9454   -2344825.28949  -1822894.43047                  22437820.6244
        48.0004         33.5004
  23160983.2804   -1867926.89149  -1453841.66047                  23160980.8464
        43.0004         31.5004
  20771111.8084    2743491.59049   2123770.26648                  20771109.6954
        51.0004         42.0004
 04  7 28 19 30 30.0000000  0  6G 1G11G14G20G23G25
  21902587.8044    -620288.07849   -485358.23047                  21902586.9214
        49.0004         37.0004
  21558122.8504    2937645.41849   2273040.33247                  21558119.9534
        50.0004         38.2504
  23620747.4664    7006329.78149   5420527.28147                  23620744.8244
        42.5004         28.0004
  22433819.8824   -2365861.13749  -1839285.97747                  22433818.4134
        48.7504         33.5004
  23157952.9764   -1883853.01249  -1466251.55547                  23157950.9204
        43.0004         31.5004
  20776657.7324    2772634.55949   2146479.07448                  20776655.4054
        50.7504         42.2504
 04  7 28 19 30 45.0000000  0  6G 1G11G14G20G23G25
  21901804.2524    -624406.27349   -488567.18047                  21901803.0334
        50.0004         36.7504
  21563997.0604    2968514.98449   2297094.54747                  21563994.2894
        50.5004         37.7504
  23631816.7004    7064499.89549   5465854.63347                  23631815.1054
        44.0004         27.5004
  22429818.4624   -2386887.64549  -1855670.24647                  22429816.9914
        48.0004         33.2504
  23154926.6194   -1899760.02349  -1478646.57047                  23154922.6444
        43.0004         31.5004
  20782223.2184    2801881.41849   2169268.83648                  20782220.8584
        50.5004         42.2504
 04  7 28 19 31  0.0000000  0  6G 1G11G14G20G23G25
  21901027.2784    -628488.35249   -491748.01247                  21901026.6754
        50.0004         37.0004
  21569892.8164    2999495.37549   2321235.09847                  21569890.2334
        51.2504         38.0004
  23642882.5734    7122653.57849   5511169.18047                  23642881.3604
        43.2504         27.5004
  22425819.5894   -2407901.86349  -1872044.93047                  22425817.8304
        48.2504         34.0004
  23151903.8604   -1915645.12149  -1491024.52747                  23151900.1684
        43.7504         31.0004
  20787808.9734    2831234.66049   2192141.49248                  20787806.9764
        50.7504         42.5004
 04  7 28 19 31 15.0000000  0  6G 1G11G14G20G23G25
  21900257.3824    -632534.84849   -494901.09047                  21900256.4124
        49.5004         36.7504
  21575809.0124    3030585.94949   2345461.51647                  21575806.3264
        50.0004         38.0004
  23653945.3784    7180790.24249   5556470.42247                  23653944.7764
        42.5004         26.5004
  22421823.3254   -2428903.99649  -1888410.21147                  22421820.9814
        48.5004         34.2504
  23148884.6964   -1931508.72749  -1503385.74647                  23148881.8264
        44.0004         32.0004
  20793414.8194    2860693.66049   2215096.56348                  20793412.7814
        50.7504         42.0004
 04  7 28 19 31 30.0000000  0  6G 1G11G14G20G23G25
  21899494.2404    -636545.52349   -498026.27347                  21899492.9184
        48.7504         37.0004
  21581746.0704    3061786.82449   2369773.88347                  21581743.4284
        50.7504         37.5004
  23665006.1754    7238910.21949   5601758.68047                  23665004.6594
        43.0004         28.5004
  22417829.1364   -2449893.62549  -1904765.75847                  22417826.6394
        48.7504         33.7504
  23145869.7744   -1947350.66849  -1515730.06247                  23145865.7814
        44.2504         30.5004
  20799040.7674    2890258.51649   2238134.11348                  20799038.5514
        51.0004         42.2504
 04  7 28 19 31 45.0000000  0  6G 1G11G14G20G23G25
  21898737.8364    -640519.91049   -501123.17647                  21898736.4264
        49.0004         36.7504
  21587704.2744    3093098.41049   2394172.51647                  21587702.0284
        51.0004         37.5004
  23676062.0574    7297013.85549   5647034.23047                  23676061.4284
        43.5004         26.0004
  22413837.4484   -2470869.96949  -1921110.95347                  22413835.1084
        47.5004         33.7504
  23142859.6954   -1963170.41849  -1528057.07847                  23142857.0794
        43.2504         30.5004
  20804686.9004    2919929.68849   2261254.50848                  20804685.0634
        51.5004         42.5004
 04  7 28 19 32  0.0000000  0  6G 1G11G14G20G23G25
  21897988.2574    -644457.90649   -504191.72747                  21897987.3384
        48.7504         36.7504
  21593684.3164    3124520.62149   2418657.35247                  21593681.3974
        50.5004         37.5004
  23687116.4294    7355101.30549   5692297.18046                  23687114.5064
        43.2504         25.2504
  22409848.1534   -2491832.62549  -1937445.45747                  22409846.2764
        48.0004         33.5004
  23139853.2044   -1978967.66449  -1540366.58647                  23139849.1484
        43.0004         31.0004
  20810353.4994    2949707.24249   2284457.79748                  20810351.5234
        51.0004         42.5004
 04  7 28 19 32 15.0000000  0  6G 1G11G14G20G23G25
  21897245.9024    -648358.12549   -507230.83247                  21897245.0014
        49.5004         36.2504
  21599684.7864    3156054.86349   2443229.48447                  21599681.9994
        51.2504         37.5004
  23698166.7994    7413173.85949   5737548.50447                  23698165.4094
        44.0004         25.7504
  22405862.1254   -2512780.10249  -1953768.12947                  22405860.2614
        48.2504         34.0004
  23136851.3064   -1994741.08249  -1552657.52747                  23136847.2024
        42.5004         30.0004
  20816040.6724    2979592.40249   2307744.94148                  20816038.6474
        52.5004         42.5004
 04  7 28 19 32 30.0000000  0  6G 1G11G14G20G23G25
  21896510.6514    -652222.43049   -510241.96547                  21896509.7204
        49.2504         36.5004
  21605706.5734    3187698.98049   2467887.22347                  21605703.5534
        51.5004         37.2504
  23709214.5034    7471229.58249   5782786.71947                  23709213.4444
        43.2504         27.5004
  22401878.5844   -2533713.96549  -1970080.21947                  22401876.1174
        48.2504         34.5004
  23133853.9724   -2010492.69149  -1564931.43747                  23133850.7104
        41.2504         30.2504
  20821747.7684    3009583.10949   2331114.32448                  20821745.3994
        52.2504         42.2504
 04  7 28 19 32 45.0000000  0  6G 1G11G14G20G23G25
  21895781.9774    -656052.62149   -513226.50047                  21895780.9894
        50.0004         36.7504
  21611748.4844    3219451.31649   2492629.30147                  21611746.6494
        51.0004         37.2504
  23720258.6404    7529266.74649   5828010.46547                  23720257.9514
        43.0004         26.7504
  22397897.0424   -2554635.69149  -1986382.85547                  22397894.9004
        48.0004         33.5004
  23130860.3914   -2026223.95749  -1577189.52747                  23130855.2274
        42.7504         29.7504
  20827474.3724    3039677.32449   2354564.35548                  20827472.0184
        52.2504         42.5004
 04  7 28 19 33  0.0000000  0  6G 1G11G14G20G23G25
  21895060.2284    -659846.25049   -516182.55147                  21895058.7464
        50.2504         37.0004
  21617811.7184    3251314.18049   2517457.50047                  21617809.3324
        51.0004         37.7504
  23731300.3044    7587287.87149   5873221.70347                  23731298.6004
        43.2504         27.0004
  22393918.8664   -2575542.52749  -2002673.87547                  22393916.4564
        48.2504         33.5004
  23127871.3814   -2041932.37949  -1589429.80147                  23127867.0804
        44.0004         29.5004
  20833221.0964    3069877.46549   2378096.93848                  20833218.9144
        51.5004         42.7504
 04  7 28 19 33 15.0000000  0  6G 1G11G14G20G23G25
  21894344.7584    -663603.34449   -519110.13747                  21894343.5124
        49.5004         37.2504
  21623896.2014    3283287.37549   2542371.67647                  21623893.5824
        50.2504         37.0004
  23742338.2954    7645292.85249   5918420.35546                  23742336.6414
        43.7504         25.5004
  22389943.6484   -2596434.19949  -2018953.07047                  22389941.4574
        48.5004         34.2504
  23124886.8754   -2057617.96549  -1601652.30147                  23124882.6674
        45.2504         31.0004
  20838988.5144    3100183.52749   2401712.05548                  20838985.4264
        51.0004         42.2504
 04  7 28 19 33 30.0000000  0  6G 1G11G14G20G23G25
  21893636.9904    -667324.04349   -522009.35547                  21893635.7244
        49.0004         37.2504
  21630001.3584    3315370.58249   2567371.56647                  21629998.8524
        51.0004         37.7504
  23753372.9164    7703281.36349   5963606.22347                  23753370.9884
        44.0004         26.0004
  22385970.5624   -2617310.64149  -2035220.39847                  22385968.8504
        49.0004         34.5004
  23121905.6284   -2073280.88349  -1613857.11347                  23121901.3214
        45.2504         30.5004
  20844775.5704    3130595.10549   2425409.38348                  20844773.1144
        52.5004         42.2504
 04  7 28 19 33 45.0000000  0  6G 1G11G14G20G23G25
  21892936.7284    -671004.53549   -524877.25447                  21892935.7824
        49.7504         37.0004
  21636128.1554    3347567.62549   2592460.16447                  21636125.8304
        51.0004         38.2504
  23764405.7894    7761257.33249   6008782.28947                  23764403.4844
        44.2504         26.7504
  22382001.1674   -2638167.79349  -2051472.72347                  22381998.9804
        48.5004         33.5004
  23118929.7184   -2088917.27049  -1626041.27047                  23118928.6204
        45.5004         31.7504
  20850583.4204    3161116.00449   2449191.91048                  20850580.9584
        51.5004         42.2504
 04  7 28 19 34  0.0000000  0  6G 1G11G14G20G23G25
  21592451.2064    -674647.93749   -527716.23847                  21592449.6904
        49.5004         36.2504
  21342484.5714    3379877.64849   2617636.79347                  21342481.6664
        51.5004         38.5004
  23475642.8394    7819221.57449   6053949.23047                  23475640.9394
        44.5004         26.5004
  22078242.8074   -2659009.57849  -2067713.05947                  22078240.7574
        47.5004         33.7504
  22816166.6504   -2104530.93749  -1638207.72747                  22816163.3514
        45.5004         31.5004
  20556619.5944    3191745.15649   2473058.78548                  20556617.1254
        52.2504         42.0004
 04  7 28 19 34 15.0000000  0  6G 1G11G14G20G23G25
  21591765.1384    -678252.90649   -530525.28547                  21591763.9674
        49.7504         37.0004
  21348653.2184    3412297.10949   2642898.71147                  21348651.0214
        50.7504         37.7504
  23486670.0634    7877167.25849   6099101.70747                  23486667.7034
        44.0004         26.5004
  22074280.5024   -2679832.17249  -2083938.43747                  22074278.3264
        48.0004         34.5004
  22813199.9264   -2120118.91049  -1650354.16047                  22813197.0254
        46.0004         30.7504
  20562467.7164    3222479.18049   2497007.38348                  20562465.3354
        52.0004         43.0004
 04  7 28 19 34 30.0000000  0  6G 1G11G14G20G23G25
  21591085.7544    -681821.38349   -533305.89547                  21591084.6464
        49.5004         36.7504
  21354843.5114    3444826.41849   2668246.22347                  21354841.1204
        51.0004         37.2504
  23497693.4714    7935096.40249   6144241.26647                  23497691.7834
        44.5004         27.2504
  22070321.5574   -2700638.40649  -2100151.07047                  22070319.3034
        48.0004         34.7504
  22810238.3334   -2135683.96549  -1662482.72347                  22810235.2174
        46.0004         31.5004
  20568336.3854    3253318.36349   2521037.91048                  20568334.0624
        52.5004         42.7504
 04  7 28 19 34 45.0000000  0  6G 1G11G14G20G23G25
  21590413.6734    -685351.72749   -536056.79347                  21590412.5604
        49.5004         37.0004
  21361054.6704    3477466.74649   2693680.23447                  21361052.3304
        50.2504         37.0004
  23508714.3434    7993010.86749   6189369.41447                  23508713.2114
        44.5004         27.2504
  22066365.3574   -2721426.30949  -2116349.41447                  22066363.5844
        47.2504         34.5004
  22807281.2914   -2151224.27049  -1674592.01247                  22807277.1024
        45.7504         30.5004
  20574225.1804    3284264.37549   2545151.68048                  20574223.0934
        50.7504         42.0004
 04  7 28 19 35  0.0000000  0  6G 1G11G14G20G23G25
  21589749.3604    -688843.78949   -538777.85547                  21589748.0984
        48.5004         36.2504
  21367287.3034    3510218.32849   2719200.94147                  21367285.1614
        51.5004         37.2504
  23519732.5824    8050910.64849   6234486.10947                  23519730.8134
        44.0004         27.2504
  22062413.1564   -2742195.50049  -2132533.17247                  22062410.9624
        47.5004         33.5004
  22804327.9444   -2166739.68049  -1686681.89547                  22804324.9664
        45.2504         30.5004
  20580134.2914    3315317.04749   2569348.57048                  20580132.0594
        51.5004         42.2504
 04  7 28 19 35 15.0000000  0  6G 1G11G14G20G23G25
  21589092.0994    -692297.85949   -541469.30147                  21589090.9884
        49.5004         36.5004
  21373541.0104    3543080.82849   2744808.06647                  21373538.5624
        52.0004         37.5004
  23530746.8994    8108795.45749   6279591.14847                  23530745.8564
        44.0004         26.7504
  22058464.2884   -2762945.93449  -2148702.32847                  22058462.0014
        48.0004         33.5004
  22801380.2344   -2182230.43049  -1698752.56247                  22801377.1944
        46.0004         30.7504
  20586063.6664    3346476.12549   2593628.37948                  20586061.3804
        51.7504         42.0004
 04  7 28 19 35 30.0000000  0  6G 1G11G14G20G23G25
  21588442.5884    -695711.61749   -544129.35247                  21588441.0724
        49.5004         37.2504
  21379815.8184    3576056.34049   2770503.27347                  21379813.2864
        51.2504         37.7504
  23541759.5624    8166667.67649   6324686.42447                  23541758.7814
        43.2504         27.0004
  22054520.1684   -2783674.93049  -2164854.78147                  22054517.6874
        49.0004         34.2504
  22798437.4024   -2197694.16849  -1710802.17647                  22798433.2314
        46.2504         30.5004
  20592013.8734    3377743.77349   2617992.78148                  20592012.0134
        52.5004         41.7504
 04  7 28 19 35 45.0000000  0  6G 1G11G14G20G23G25
  21587800.3394    -699084.60949   -546757.64147                  21587799.2724
        49.5004         36.5004
  21386112.3754    3609145.35949   2796286.91047                  21386109.8944
        50.2504         37.0004
  23552769.9024    8224527.66449   6369772.06647                  23552769.8234
        41.7504         26.0004
  22050579.3794   -2804381.81649  -2180989.98847                  22050577.3324
        47.5004         33.7504
  22795500.6414   -2213130.25849  -1722830.27747                  22795496.3364
        46.7504         31.7504
  20597984.3454    3409120.21549   2642441.95748                  20597982.2064
        51.2504         42.0004
 04  7 28 19 36  0.0000000  0  6G 1G11G14G20G23G25
  21587165.9444    -702417.91849   -549354.99647                  21587164.5584
        49.2504         36.5004
  21392430.0044    3642346.67249   2822158.07047                  21392428.0914
        50.0004         37.0004
  23563777.1944    8282374.43849   6414847.43046                  23563777.6154
        40.0004         25.0004
  22046643.1984   -2825067.44949  -2197108.64147                  22046640.5844
        48.5004         33.5004
  22792567.8284   -2228539.84049  -1734837.69547                  22792564.3604
        45.7504         31.5004
  20603975.7604    3440604.25849   2666974.97348                  20603973.5914
        51.7504         41.7504
 04  7 28 19 36 15.0000000  0  6G 1G11G14G20G23G25
  21586539.9794    -705710.96549   -551920.99647                  21586538.3704
        50.0004         37.0004
  21398769.8464    3675660.68449   2848117.02347                  21398767.7154
        50.5004         37.5004
  23574783.1664    8340208.35949   6459912.77346                  23574782.7364
        40.5004         22.7504
  22042711.1584   -2845731.00849  -2213210.10247                  22042708.0734
        48.5004         34.0004
  22789640.7884   -2243922.37549  -1746824.04347                  22789636.7194
        46.5004         31.7504
  20609987.4084    3472196.28949   2691592.15248                  20609984.7784
        51.7504         42.2504
 04  7 28 19 36 30.0000000  0  6G 1G11G14G20G23G25
  21585920.9904    -708962.14549   -554454.35547                  21585919.5924
        49.7504         36.7504
  21405131.4374    3709088.89149   2874164.96947                  21405128.8654
        50.7504         38.0004
  23585786.7494    8398031.16049   6504969.48446                  23585786.1884
        40.5004         25.2504
  22038783.4304   -2866370.50849  -2229292.81247                  22038780.9184
        48.7504         33.7504
  22786718.9864   -2259275.94549  -1758787.84447                  22786716.0744
        46.0004         31.5004
  20616020.0444    3503898.05149   2716294.82848                  20616017.6884
        52.0004         42.0004
 04  7 28 19 36 45.0000000  0  6G 1G11G14G20G23G25
  21585309.7534    -712174.18449   -556957.21947                  21585308.5894
        50.0004         36.5004
  21411513.4404    3742628.35949   2900299.60947                  21411511.3904
        50.5004         38.2504
  23596787.1504    8455840.00849   6550015.30146                  23596786.7154
        40.5004         23.7504
  22034859.7024   -2886988.53949  -2245358.80147                  22034857.4114
        48.7504         33.5004
  22783802.5414   -2274603.41049  -1770731.27747                  22783799.2604
        46.0004         31.5004
  20622072.7994    3535706.43449   2741080.58248                  20622070.6584
        52.0004         41.7504
 04  7 28 19 37  0.0000000  0  6G 1G11G14G20G23G25
  21584706.0114    -715345.66849   -559428.48447                  21584704.7604
        49.5004         37.0004
  21417917.4994    3776280.55149   2926522.07847                  21417914.9254
        50.0004         38.0004
  23607785.8104    8513636.41849   6595051.43446                  23607785.4134
        41.7504         23.5004
  22030940.9534   -2907583.29349  -2261406.63347                  22030938.8204
        49.0004         33.7504
  22780891.3714   -2289903.20749  -1782653.17247                  22780887.7934
        45.5004         32.0004
  20628146.6424    3567622.83249   2765950.50048                  20628144.3404
        51.7504         42.0004
 04  7 28 19 37 15.0000000  0  6G 1G11G14G20G23G25
  21584110.5184    -718476.22349   -561867.85247                  21584108.8604
        49.5004         37.5004
  21424342.3254    3810045.61349   2952832.51647                  21424340.1004
        51.0004         37.7504
  23618782.0324    8571420.57449   6640078.00446                  23618781.2484
        41.0004         24.2504
  22027025.9304   -2928154.07449  -2277435.79747                  22027023.9424
        48.0004         33.7504
  22777984.5854   -2305175.05949  -1794553.23847                  22777981.6434
        44.7504         32.2504
  20634240.6984    3599647.59449   2790904.86748                  20634238.2684
        52.5004         42.0004
 04  7 28 19 37 30.0000000  0  6G 1G11G14G20G23G25
  21583522.1404    -721566.97349   -564276.20347                  21583521.1124
        50.0004         37.2504
  21430789.1554    3843922.35249   2979229.97747                  21430786.7004
        49.0004         37.5004
  23629775.6104    8629191.43849   6685094.23846                  23629774.4194
        40.7504         25.2504
  22023116.1844   -2948701.81649  -2293447.02047                  22023113.5934
        48.2504         33.5004
  22775083.5224   -2320419.90249  -1806432.30547                  22775081.8394
        45.2504         31.7504
  20640355.0484    3631779.36349   2815942.60948                  20640352.8734
        51.2504         42.2504
 04  7 28 19 37 45.0000000  0  6G 1G11G14G20G23G25
  21582941.7094    -724618.69949   -566654.15247                  21582940.0324
        50.0004         37.0004
  21437256.3964    3877909.80149   3005713.70747                  21437254.3374
        51.0004         37.5004
  23640766.5434    8686948.21149   6730099.49647                  23640764.7744
        41.7504         26.0004
  22019210.4214   -2969227.03149  -2309440.68047                  22019207.7114
        49.0004         33.5004
  22772187.3214   -2335638.53149  -1818290.93047                  22772185.1154
        46.0004         31.5004
  20646489.9304    3664017.26649   2841063.05548                  20646487.3264
        52.2504         42.0004
 04  7 28 19 38  0.0000000  0  6G 1G11G14G20G23G25
  21582368.3894    -727627.89849   -568998.96147                  21582367.0984
        49.5004         37.0004
  21443746.0414    3912011.50049   3032286.44947                  21443743.9444
        50.7504         37.2504
  23651755.2354    8744694.38349   6775096.45646                  23651753.5334
        42.7504         25.0004
  22015309.6674   -2989725.87949  -2325413.78547                  22015307.2574
        48.5004         34.0004
  22769297.0704   -2350827.32849  -1830126.30547                  22769294.4864
        46.0004         32.0004
  20652645.2444    3696364.54349   2866268.73448                  20652642.7094
        52.5004         42.0004
 04  7 28 19 38 15.0000000  0  6G 1G11G14G20G23G25
  21581804.2444    -730594.64849   -571310.69547                  21581802.4604
        49.5004         36.7504
  21450257.0724    3946227.06349   3058947.91047                  21450254.6904
        50.5004         37.2504
  23662742.0204    8802429.92649   6820085.21147                  23662739.8124
        44.0004         26.5004
  22011413.6674   -3010198.10549  -2341366.15247                  22011411.4514
        48.7504         34.5004
  22766412.2704   -2365986.39849  -1841938.52047                  22766409.3004
        46.5004         32.0004
  20658821.6034    3728820.96949   2891559.45748                  20658819.0784
        52.2504         42.5004
 04  7 28 19 38 30.0000000  0  6G 1G11G14G20G23G25
  21581246.8644    -733522.22749   -573591.90647                  21581245.5164
        49.5004         37.5004
  21456789.1784    3980553.17649   3085695.53147                  21456786.6714
        50.7504         37.5004
  23673726.1104    8860151.58649   6865063.13346                  23673723.3554
        43.7504         24.5004
  22007522.5254   -3030646.67649  -2357300.08247                  22007519.9534
        48.7504         35.5004
  22763532.6344   -2381118.83249  -1853730.01247                  22763529.4984
        46.5004         32.0004
  20665018.1104    3761383.23449   2916932.65248                  20665015.6914
        51.7504         42.0004
 04  7 28 19 38 45.0000000  0  6G 1G11G14G20G23G25
  21580697.8124    -736407.51649   -575840.15647                  21580696.2464
        50.0004         37.5004
  21463342.7734    4014992.79749   3112531.58247                  21463340.6184
        50.2504         38.0004
  23684707.7334    8917862.41849   6910032.63346                  23684705.0214
        43.5004         24.2504
  22003636.5364   -3051068.31249  -2373213.03147                  22003634.0074
        48.5004         35.0004
  22760659.3364   -2396221.64549  -1865498.37947                  22760654.9954
        46.7504         31.5004
  20671234.7454    3794054.36349   2942390.67648                  20671232.7544
        51.2504         42.5004
 04  7 28 19 39  0.0000000  0  6G 1G11G14G20G23G25
  21580156.9134    -739252.69549   -578057.17247                  21580155.4404
        50.0004         38.0004
  21469917.0554    4049543.55149   3139454.25847                  21469915.3744
        49.2504         37.5004
  23695687.4484    8975560.21949   6954991.96946                  23695684.6864
        43.0004         22.5004
  21999755.3424   -3071464.89849  -2389106.46947                  21999752.6864
        49.0004         34.7504
  22757790.6604   -2411296.85949  -1877245.27347                  22757785.7244
        47.7504         31.5004
  20677472.3204    3826832.07849   2967931.75848                  20677470.4244
        51.5004         42.5004
 04  7 28 19 39 15.0000000  0  6G 1G11G14G20G23G25
  21579622.6504    -742058.62949   -580243.59447                  21579620.8484
        49.5004         37.5004
  21476512.8984    4084204.41049   3166462.70747                  21476510.8234
        50.2504         37.5004
  23706664.5594    9033244.02049   6999940.39846                  23706662.2494
        43.2504         22.5004
  21995878.1494   -3091837.05549  -2404980.85947                  21995875.9384
        49.5004         34.2504
  22754926.8294   -2426345.37549  -1888971.35547                  22754921.2754
        46.7504         31.5004
  20683729.6784    3859715.36749   2993555.10248                  20683727.7864
        51.7504         42.2504
 04  7 28 19 39 30.0000000  0  6G 1G11G14G20G23G25
  21579096.1644    -744825.54349   -582399.61347                  21579094.3854
        50.0004         37.7504
  21483130.1634    4118975.02349   3193556.68047                  21483127.9404
        50.5004         37.2504
  23717638.1494    9090913.65249   7044877.76646                  23717635.8434
        42.7504         24.7504
  21992006.3064   -3112184.60949  -2420836.07847                  21992004.2834
        49.0004         35.0004
  22752068.2594   -2441367.21949  -1900676.66847                  22752063.7894
        47.0004         32.2504
  20690007.1824    3892703.84449   3019260.41048                  20690005.0874
        51.7504         42.0004
 04  7 28 19 39 45.0000000  0  6G 1G11G14G20G23G25
  21578577.7074    -747549.85549   -584522.42647                  21578575.8954
        49.7504         36.7504
  21489768.0754    4153858.84049   3220738.87547                  21489765.8574
        50.5004         37.7504
  23728611.2134    9148572.68449   7089806.88346                  23728608.5854
        42.5004         23.5004
  21988139.4634   -3132503.80149  -2436669.19547                  21988137.4334
        48.7504         34.5004
  22749214.7524   -2456358.84049  -1912358.39147                  22749210.6324
        46.5004         32.5004
  20696305.2744    3925800.84449   3045050.28148                  20696302.9104
        51.5004         42.2504
 04  7 28 19 40  0.0000000  0  6G 1G11G14G20G23G25
  21578067.7494    -750229.75449   -586610.64147                  21578065.8684
        50.5004         37.2504
  21496428.3754    4188857.70349   3248010.70347                  21496425.5654
        50.2504         37.2504
  23739580.6664    9206222.97749   7134729.18046                  23739579.3064
        41.7504         22.5004
  21984278.8414   -3152792.51249  -2452478.56647                  21984276.7774
        48.5004         35.0004
  22746367.9054   -2471318.43449  -1924015.19947                  22746364.7274
        44.5004         31.5004
  20702624.5874    3959007.93049   3070925.94148                  20702621.7334
        51.7504         42.2504
 04  7 28 19 40 15.0000000  0  6G 1G11G14G20G23G25
  21577565.6994    -752867.84449   -588666.27347                  21577564.1574
        49.5004         37.0004
  21503109.4314    4223968.85249   3275370.03947                  21503106.8964
        50.7504         37.0004
  23750549.1634    9263861.80949   7179642.53546                  23750547.4184
        41.5004         23.5004
  21980423.4984   -3173053.02349  -2468265.95747                  21980421.3224
        48.7504         35.2504
  22743526.9304   -2486248.51249  -1935648.96947                  22743524.0154
        46.0004         32.5004
  20708964.1234    3992322.48849   3096885.33648                  20708961.3724
        52.0004         42.0004
 04  7 28 19 40 30.0000000  0  6G 1G11G14G20G23G25
  21577072.2204    -755462.19549   -590687.83247                  21577070.1454
        49.7504         37.5004
  21509812.7424    4259194.09049   3302818.28147                  21509810.3504
        50.7504         37.2504
  23761515.8074    9321491.23849   7224548.56646                  23761514.2464
        41.5004         22.5004
  21976573.7454   -3193283.10249  -2484029.64547                  21976571.1434
        49.7504         35.0004
  22740691.9624   -2501147.00849  -1947258.12947                  22740689.2734
        47.0004         32.7504
  20715324.4744    4025746.38349   3122929.94148                  20715321.9374
        51.7504         41.7504
 04  7 28 19 40 45.0000000  0  7G 1G11G14G20G16G23G25
  21576586.6754    -758012.84849   -592675.33247                  21576584.8224
        49.5004         37.2504
  21516537.6314    4294533.07049   3330355.13747                  21516535.4244
        51.2504         37.0004
  23772480.3984    9379111.14549   7269447.15246                  23772479.3094
        41.0004         22.2504
  21972730.0124   -3213482.46549  -2499769.39147                  21972727.6654
        49.0004         35.2504
  24563088.9574     -23311.09059
        38.7504
  22737863.0294   -2516013.89849  -1958842.66447                  22737860.4094
        46.2504         33.0004
  20721705.6034    4059279.41449   3149059.57448                  20721703.2294
        51.7504         42.2504
 04  7 28 19 41  0.0000000  0  7G 1G11G14G20G16G23G25
  21576109.4584    -760521.06649   -594629.77347                  21576107.6224
        50.0004         37.0004
  21523283.6074    4329984.53149   3357979.65247                  21523281.1874
        50.7504         37.0004
  23783443.6064    9436720.21149   7314337.30546                  23783441.7514
        41.7504         23.5004
  21968891.9224   -3233652.10549  -2515485.97747                  21968889.4754
        50.0004         35.5004
  24558234.3364     -48826.63749    -28925.57856                  24558236.3674
        40.5004         20.5004
  22735039.9394   -2530850.40249  -1970403.53947                  22735037.4594
        46.7504         33.2504
  20728106.9624    4092920.20349   3175273.18448                  20728104.9504
        51.7504         42.2504
 04  7 28 19 41 15.0000000  0  7G 1G11G14G20G16G23G25
  21575640.0764    -762987.21549   -596551.43447                  21575638.2734
        50.2504         37.7504
  21530051.2444    4365548.01249   3385691.44547                  21530049.0784
        51.0004         37.5004
  23794403.8194    9494318.21149   7359218.85947                  23794402.7554
        42.7504         26.2504
  21965059.3064   -3253792.11749  -2531179.46947                  21965057.2034
        48.7504         35.5004
  24553373.7374     -74367.64549    -48827.50446                  24553376.2874
        39.5004         20.5004
  22732222.3094   -2545656.90249  -1981941.03547                  22732219.4604
        46.2504         32.7504
  20734529.4614    4126668.28949   3201570.38748                  20734527.4264
        51.5004         41.7504
 04  7 28 19 41 30.0000000  0  7G 1G11G14G20G16G23G25
  21575178.6994    -765410.72349   -598439.86347                  21575176.8264
        49.2504         37.5004
  21536839.7874    4401223.82849   3413490.77347                  21536837.8614
        49.5004         37.0004
  23805362.3934    9551905.65249   7404092.18446                  23805361.1314
        41.0004         25.2504
  21961232.5694   -3273901.67649  -2546849.24647                  21961230.1174
        48.2504         35.2504
  24548508.1344     -99933.21149    -68748.60546                  24548510.7034
        38.0004         19.5004
  22729410.3014   -2560432.78549  -1993454.67247                  22729406.5974
        46.0004         33.0004
  20740971.8214    4160524.01249   3227951.46948                  20740969.5534
        51.2504         41.7504
 04  7 28 19 41 45.0000000  0  7G 1G11G14G20G16G23G25
  21574725.0944    -767794.10949   -600297.03147                  21574723.8124
        50.2504         37.5004
  21543649.5164    4437009.30549   3441375.55547                  21543647.6794
        50.7504         36.0004
  23816317.6234    9609479.88749   7448955.15246                  23816317.2694
        40.0004         23.0004
  21957410.9694   -3293983.02749  -2562497.03147                  21957408.8074
        48.7504         35.0004
  24543637.9184    -125525.47749    -88690.49646                  24543641.1514
        37.5004         18.2504
  22726604.0454   -2575180.47349  -2004946.34447                  22726600.4584
        47.0004         33.0004
  20747434.3784    4194484.66049   3254414.32048                  20747432.1334
        51.0004         42.2504
 04  7 28 19 42  0.0000000  0  7G 1G11G14G20G16G23G25
  21574279.0974    -770137.09049   -602122.71947                  21574277.4784
        50.0004         37.2504
  21550480.7124    4472904.60549   3469345.91047                  21550478.2454
        50.5004         37.2504
  23827271.9594    9667041.35549   7493808.21546                  23827271.3254
        40.5004         22.7504
  21953595.3314   -3314035.56249  -2578122.36347                  21953592.7404
        49.5004         35.0004
  24538762.6964    -151143.68449   -108652.62946                  24538766.0584
        38.7504         19.2504
  22723803.5904   -2589899.63349  -2016415.77347                  22723798.8124
        47.2504         32.5004
  20753916.6904    4228550.49649   3280959.13748                  20753914.5474
        50.7504         41.7504
 04  7 28 19 42 15.0000000  0  7G 1G11G14G20G16G23G25
  21573840.8194    -772441.00449   -603917.95347                  21573839.4004
        50.0004         37.2504
  21557331.7064    4508908.16849   3497400.63347                  21557329.5914
        49.5004         37.2504
  23838222.7824    9724588.50849   7538650.13746                  23838222.1194
        41.0004         24.0004
  21949785.0264   -3334060.37549  -2593726.10247                  21949782.3444
        49.5004         35.5004
  24533881.7994    -176788.89149   -128635.69946                  24533885.7114
        37.5004         19.0004
  22721006.8374   -2604591.68049  -2027864.09847                  22721002.7994
        46.0004         31.5004
  20760418.9594    4262720.02349   3307584.73848                  20760416.6594
        51.2504         41.7504
 04  7 28 19 42 30.0000000  0  7G 1G11G14G20G16G23G25
  21573410.1394    -774704.60949   -605681.78547                  21573408.3594
        49.7504         37.2504
  21564203.7854    4545021.16849   3525540.62147                  21564201.3074
        51.0004         37.5004
  23849171.6064    9782122.70749   7583481.96146                  23849169.7994
        41.5004         24.7504
  21945979.5924   -3354055.87549  -2609306.99247                  21945977.3914
        49.0004         35.0004
  24528997.1954    -202459.27749   -148638.44146                  24529000.7914
        36.5004         19.0004
  22718216.5474   -2619255.19949  -2039290.18047                  22718213.0434
        45.7504         31.7504
  20766941.1364    4296994.29749   3334291.97748                  20766938.9074
        51.0004         42.0004
 04  7 28 19 42 45.0000000  0  7G 1G11G14G20G16G23G25
  21572986.6844    -776928.48049   -607414.64847                  21572985.4214
        49.2504         38.2504
  21571096.6644    4581242.93849   3553765.37147                  21571094.2574
        50.2504         37.5004
  23860117.5334    9839643.35249   7628303.23447                  23860115.5294
        42.7504         27.0004
  21942180.0764   -3374022.42249  -2624865.32047                  21942177.4584
        48.2504         35.7504
  24524107.5664    -228155.12149   -168661.00846                  24524110.5544
        37.5004         20.0004
  22715431.7254   -2633890.70749  -2050694.44547                  22715427.2634
        45.5004         31.7504
  20773483.0734    4331372.46149   3361080.15648                  20773480.8974
        51.0004         42.0004
 04  7 28 19 43  0.0000000  0  7G 1G11G14G20G16G23G25
  21572571.4704    -779112.18449   -609116.21947                  21572569.7304
        49.5004         37.2504
  21578010.2594    4617573.59049   3582074.96147                  21578007.9354
        51.0004         37.2504
  23871060.3834    9897150.88749   7673114.30547                  23871059.0334
        42.2504         26.7504
  21938386.5064   -3393959.21549  -2640400.48847                  21938383.2874
        49.0004         36.0004
  24519212.9414    -253875.58649   -188702.80546                  24519216.2284
        38.0004         19.5004
  22712651.4424   -2648497.82849  -2062076.57447                  22712647.9324
        46.2504         31.7504
  20780044.8514    4365854.89849   3387949.58648                  20780042.3924
        52.0004         42.0004
 04  7 28 19 43 15.0000000  0  7G 1G11G14G20G16G23G25
  21572163.2194    -781257.03949   -610787.52347                  21572161.5764
        50.5004         37.7504
  21584944.2694    4654011.70749   3610468.29747                  21584942.0644
        51.0004         37.2504
  23882000.7674    9954643.87949   7717914.00446                  23881999.7624
        41.2504         25.0004
  21934597.6124   -3413867.42649  -2655913.36747                  21934595.5544
        48.2504         34.7504
  24514313.9304    -279621.68449   -208764.55946                  24514316.2984
        38.2504         18.5004
  22709877.5544   -2663077.84849  -2073437.59447                  22709873.4334
        46.0004         33.2504
  20786626.2354    4400440.07849   3414899.07848                  20786623.6644
        51.5004         42.2504
 04  7 28 19 43 30.0000000  0  7G 1G11G14G20G16G23G25
  21571762.7544    -783360.27749   -612426.39147                  21571761.2784
        50.0004         37.7504
  21591898.7314    4690560.05549   3638947.52747                  21591896.4424
        50.7504         37.2504
  23892938.9254   10012125.30549   7762704.67647                  23892938.0704
        42.0004         25.7504
  21930815.4404   -3433743.80149  -2671401.41447                  21930813.4654
        49.0004         35.5004
  24509410.3134    -305389.99649   -228843.61346                  24509412.4114
        40.0004         20.0004
  22707108.5604   -2677627.71149  -2084775.10247                  22707104.7014
        46.0004         32.2504
  20793227.4064    4435130.73449   3441930.75848                  20793225.4764
        51.5004         41.7504
 04  7 28 19 43 45.0000000  0  7G 1G11G14G20G16G23G25
  21571370.7694    -785421.80149   -614032.75047                  21571369.2944
        49.5004         37.5004
  21598874.5964    4727218.53949   3667512.57047                  21598872.6164
        50.7504         36.5004
  23903875.8044   10069595.29749   7807486.46946                  23903874.2394
        41.5004         25.2504
  21927039.4444   -3453587.93449  -2686864.37147                  21927036.7324
        49.5004         35.7504
  24504501.8754    -331180.17649   -248939.73446                  24504504.2394
        39.0004         19.5004
  22704345.8054   -2692147.35249  -2096089.06247                  22704343.0304
        47.0004         33.0004
  20799849.0894    4469926.85249   3469044.63348                  20799846.8304
        52.0004         42.0004
 04  7 28 19 44  0.0000000  0  7G 1G11G14G20G16G23G25
  21570986.2954    -787442.08649   -615606.98847                  21570984.8664
        49.5004         37.7504
  21605871.2364    4763986.50449   3696162.93047                  21605869.3874
        51.0004         36.2504
  23914810.2394   10127053.21549   7852258.86746                  23914807.7374
        42.5004         25.5004
  21923268.9664   -3473399.95749  -2702302.30947                  21923266.4734
        50.0004         36.2504
  24499589.7704    -356992.20349   -269052.83246                  24499592.4574
        39.0004         19.5004
  22701588.0854   -2706637.23049  -2107379.84847                  22701584.6494
        46.7504         32.7504
  20806490.4644    4504827.79349   3496240.16848                  20806488.3304
        52.0004         42.0004
 04  7 28 19 44 15.0000000  0  7G 1G11G14G20G16G23G25
  21570609.5404    -789420.39549   -617148.50447                  21570608.0704
        49.5004         38.2504
  21612889.3874    4800864.49649   3724899.00447                  21612887.1274
        51.0004         36.5004
  23925742.0684   10184499.81649   7897022.44547                  23925739.8024
        43.0004         26.5004
  21919505.4554   -3493178.97749  -2717714.52047                  21919502.7224
        49.0004         35.2504
  24494674.0874    -382825.01249   -289182.10946                  24494676.7124
        37.7504         19.2504
  22698837.0004   -2721096.60249  -2118646.85547                  22698833.1854
        47.5004         33.7504
  20813151.9104    4539833.92249   3523517.67248                  20813149.6554
        51.7504         41.5004
 04  7 28 19 44 30.0000000  0  7G 1G11G14G20G16G23G25
  21570241.2594    -791356.22349   -618656.92647                  21570240.0594
        49.0004         37.7504
  21619927.8614    4837852.83249   3753721.08647                  21619925.5444
        51.2504         37.2504
  23936670.7194   10241935.68449   7941777.65646                  23936669.4154
        43.0004         25.2504
  21915747.6074   -3512924.17249  -2733100.36347                  21915745.7134
        49.5004         36.0004
  24489754.6974    -408677.64149   -309326.87546                  24489756.9074
        39.0004         19.2504
  22696091.0324   -2735524.90649  -2129889.65247                  22696087.8234
        47.0004         33.0004
  20819833.5574    4574945.73449   3550877.53548                  20819830.9824
        51.7504         42.0004
 04  7 28 19 44 45.0000000  0  7G 1G11G14G20G16G23G25
  21569880.9534    -793250.87549   -620133.25847                  21569879.5184
        50.0004         37.5004
  21626987.3604    4874950.21149   3782628.12947                  21626984.4694
        50.2504         37.0004
  23947598.4394   10299359.56349   7986523.52346                  23947596.1814
        42.2504         25.5004
  21911997.1204   -3532636.50449  -2748460.60947                  21911994.8164
        50.0004         35.7504
  24484830.8224    -434551.07049   -329487.81246                  24484833.5454
        38.5004         18.5004
  22693351.0474   -2749923.27049  -2141109.14147                  22693347.7714
        47.0004         32.5004
  20826534.8224    4610161.85249   3578318.66448                  20826532.9014
        52.0004         42.0004
 04  7 28 19 45  0.0000000  0  7G 1G11G14G20G16G23G25
  21569528.5004    -795102.37949   -621575.97347                  21569526.9914
        49.5004         38.0004
  21634067.8654    4912158.34049   3811621.47347                  21634065.3754
        50.2504         37.0004
  23958524.1604   10356773.43849   8031261.61346                  23958521.7024
        41.7504         23.5004
  21908252.2944   -3552313.73049  -2763793.50847                  21908249.4204
        49.2504         35.0004
  24479903.0834    -460442.82849   -349663.01246                  24479906.0654
        39.5004         20.0004
  22690617.4064   -2764289.81249  -2152303.80547                  22690613.5824
        48.0004         33.7504
  20833256.6464    4645484.07049   3605842.47748                  20833254.1674
        51.2504         41.7504
 04  7 28 19 45 15.0000000  0  7G 1G11G14G20G16G23G25
  21569183.5244    -796914.29749   -622987.84447                  21569182.1234
        50.5004         37.7504
  21641168.5454    4949473.38349   3840698.12947                  21641166.4404
        50.5004         36.5004
  23969447.1284   10414173.55149   8075988.94146                  23969444.7184
        42.0004         25.5004
  21904513.9274   -3571959.21149  -2779101.65647                  21904511.4924
        48.5004         36.0004
  24474972.9674    -486356.12149   -369855.05546                  24474975.2374
        41.2504         21.0004
  22687888.6584   -2778627.96549  -2163476.34847                  22687885.3044
        47.0004         33.5004
  20839997.7734    4680908.60549   3633446.01648                  20839995.5014
        52.5004         41.5004
 04  7 28 19 45 30.0000000  0  7G 1G11G14G20G16G23G25
  21568846.5274    -798683.82449   -624366.67647                  21568845.4034
        50.5004         37.5004
  21648290.5544    4986898.23049   3869860.32847                  21648288.1574
        50.0004         37.2504
  23980367.5024   10471562.81649   8120707.84446                  23980365.8894
        41.7504         22.2504
  21900782.2184   -3591569.69149  -2794382.53147                  21900780.1184
        49.0004         35.5004
  24470037.8204    -512287.60949   -390061.21946                  24470040.9694
        40.2504         19.5004
  22685166.6024   -2792934.85949  -2174624.55547                  22685161.5634
        47.2504         32.0004
  20846758.6114    4716438.25849   3661131.46148                  20846756.6064
        51.5004         41.7504
 04  7 28 19 45 45.0000000  0  7G 1G11G14G20G16G23G25
  21568518.8784    -800406.01649   -625708.62947                  21568517.8994
        50.0004         38.0004
  21655433.8164    5024437.56649   3899111.76247                  21655431.6424
        50.0004         37.0004
  23991286.8164   10528946.19149   8165422.13746                  23991285.5014
        39.5004         22.5004
  21897057.9624   -3611139.93749  -2809632.05947                  21897055.5454
        48.7504         35.5004
  24465100.5204    -538232.02749   -410277.46546                  24465103.4154
        41.5004         20.5004
  22682450.6554   -2807205.54349  -2185744.52047                  22682446.0554
        46.2504         32.5004
  20853540.7324    4752077.69949   3688902.45748                  20853538.5764
        51.0004         41.5004
 04  7 28 19 46  0.0000000  0  7G 1G11G14G20G16G23G25
  21568199.3414    -802085.10549   -627016.99247                  21568198.1274
        50.0004         37.7504
  21662598.3894    5062086.96949   3928448.94147                  21662596.0964
        50.5004         37.0004
  24002204.3004   10586319.43849   8210128.57446                  24002203.0714
        38.2504         21.0004
  21893340.8034   -3630674.05549  -2824853.43047                  21893337.9784
        48.7504         36.0004
  24460160.0704    -564193.24249   -430506.81646                  24460162.4304
        40.5004         22.0004
  22679740.8044   -2821444.08649  -2196839.46147                  22679736.9654
        46.7504         32.5004
  20860342.8554    4787822.57449   3716755.59848                  20860340.6134
        52.2504         41.5004
 04  7 28 19 46 15.0000000  0  7G 1G11G14G20G16G23G25
  21567888.0374    -803722.98049   -628293.23847                  21567886.9504
        51.5004         38.2504
  21669783.0274    5099844.38749   3957870.31647                  21669781.0684
        50.7504         36.7504
  24013120.0774   10643680.66049   8254825.60546                  24013118.6924
        40.0004         21.5004
  21889629.7004   -3650173.48049  -2840047.77047                  21889627.4684
        49.7504         35.7504
  24455216.3734    -590172.69549   -450750.38346                  24455219.0144
        41.5004         20.5004
  22677036.7944   -2835652.43449  -2207910.87547                  22677032.2834
        46.5004         32.0004
  20867164.3574    4823670.74249   3744689.24648                  20867162.1214
        52.0004         41.5004
 04  7 28 19 46 30.0000000  0  7G 1G11G14G20G16G23G25
  21567584.9434    -805316.89149   -629535.23047                  21567583.0924
        51.0004         38.2504
  21676989.3604    5137712.51649   3987377.94147                  21676987.0994
        50.0004         36.5004
  24024032.8484   10701032.58649   8299515.37546                  24024033.2764
        39.7504         21.0004
  21885926.7084   -3669635.08249  -2855212.64147                  21885924.3644
        50.2504         36.2504
  24450270.1554    -616167.27349   -471005.73446                  24450272.7184
        41.0004         20.0004
  22674339.4614   -2849827.78149  -2218956.57447                  22674335.4774
        46.7504         33.0004
  20874006.3014    4859624.89149   3772705.47348                  20874003.9564
        51.7504         41.5004
 04  7 28 19 46 45.0000000  0  7G 1G11G14G20G16G23G25
  21567289.2274    -806868.80149   -630744.49647                  21567288.0674
        51.2504         38.5004
  21684215.9624    5175689.09449   4016970.06647                  21684213.5614
        50.5004         37.0004
  24034945.3334   10758373.30149   8344196.43046                  24034944.7254
        38.5004         22.0004
  21882229.5124   -3689060.73849  -2870349.49247                  21882227.7514
        48.5004         35.0004
  24445318.8724    -642178.47349   -491274.03946                  24445322.0054
        39.5004         21.7504
  22671648.3924   -2863972.06249  -2229978.05547                  22671643.6474
        47.2504         32.7504
  20880867.8014    4895682.91049   3800802.62948                  20880865.3894
        52.0004         42.0004
 04  7 28 19 47  0.0000000  0  7G 1G11G14G20G16G23G25
  21567001.8184    -808377.58249   -631920.15647                  21567000.4884
        50.5004         38.0004
  21691463.7184    5213775.21549   4046647.55947                  21691460.5124
        50.2504         37.2504
  24045855.4864   10815704.00449   8388869.62546                  24045853.7514
        40.2504         21.0004
  21878540.7274   -3708448.85249  -2885457.10247                  21878537.7234
        49.2504         35.5004
  24440366.7914    -668204.70749   -511554.05146                  24440368.8814
        40.0004         20.5004
  22668962.8364   -2878084.00049  -2240974.32847                  22668958.5274
        47.2504         33.5004
  20887749.5604    4931845.75449   3828981.46948                  20887747.2664
        52.0004         42.2504
 04  7 28 19 47 15.0000000  0  7G 1G11G14G20G16G23G25
  21566723.3814    -809843.78949   -633062.64547                  21566721.8204
        50.5004         38.0004
  21698731.7164    5251970.08649   4076409.79347                  21698729.4414
        50.2504         37.2504
  24056763.0214   10873024.12949   8433534.68046                  24056760.2844
        40.2504         19.0004
  21874858.4054   -3727799.71549  -2900535.69147                  21874855.5034
        49.2504         35.5004
  24435410.6384    -694246.15649   -531845.90646                  24435413.5124
        39.7504         21.0004
  22666282.9044   -2892164.22349  -2251945.89547                  22666279.6554
        47.5004         33.7504
  20894651.1974    4968112.67649   3857241.40648                  20894648.5244
        51.7504         42.0004
 04  7 28 19 47 30.0000000  0  7G 1G11G14G20G16G23G25
  21566452.0064    -811267.49649   -634172.01247                  21566450.9274
        50.5004         37.7504
  21706020.7594    5290273.37549   4106256.50847                  21706018.0734
        50.7504         37.2504
  24067669.0584   10930333.53549   8478191.34846                  24067666.5424
        42.5004         21.2504
  21871182.9844   -3747113.13349  -2915585.08247                  21871180.5784
        48.5004         35.2504
  24430452.3684    -720302.57849   -552149.43746                  24430454.5064
        38.7504         20.0004
  22663610.4714   -2906212.68049  -2262892.71147                  22663606.4254
        47.2504         33.7504
  20901571.9774    5004483.37149   3885582.21148                  20901569.6254
        52.0004         41.7504
 04  7 28 19 47 45.0000000  0  7G 1G11G14G20G16G23G25
  21566189.0534    -812649.86749   -635249.16447                  21566187.6764
        51.0004         37.7504
  21713329.8584    5328683.85249   4136186.73847                  21713327.5044
        50.5004         37.2504
  24078572.3924   10987631.02049   8522838.72346                  24078570.3534
        42.7504         23.0004
  21867514.5734   -3766390.03949  -2930606.03147                  21867512.0024
        48.7504         35.5004
  24425491.3294    -746374.57049   -572465.11346                  24425492.6154
        40.0004         20.0004
  22660942.9434   -2920230.49249  -2273815.64147                  22660939.1244
        47.5004         34.0004
  20908512.4614    5040956.55949   3914002.87948                  20908509.8844
        52.2504         41.7504
 04  7 28 19 48  0.0000000  0  7G 1G11G14G20G16G23G25
  21565934.1314    -813989.26249   -636292.83247                  21565932.7694
        50.5004         38.0004
  21720659.8884    5367202.93049   4166201.60547                  21720657.2934
        50.5004         36.5004
  24089473.7704   11044918.27049   8567478.14147                  24089472.1044
        44.0004         26.0004
  21863853.8834   -3785628.48449  -2945597.02047                  21863850.9974
        49.0004         36.5004
  24420525.8974    -772460.23049   -592791.42646                  24420528.5604
        39.5004         19.5004
  22658280.8424   -2934215.96149  -2284713.39147                  22658277.4674
        48.0004         34.0004
  20915472.8804    5077533.67249   3942504.52748                  20915470.4574
        53.0004         41.5004
 04  7 28 19 48 15.0000000  0  7G 1G11G14G20G16G23G25
  21565688.2634    -815282.61349   -637300.62547                  21565686.7634
        50.2504         38.2504
  21728010.9764    5405833.46549   4196303.31647                  21728008.6164
        50.0004         36.5004
  24100373.9534   11102198.38749   8612111.98847                  24100373.3864
        43.7504         28.5004
  21860201.0674   -3804824.96549  -2960555.30947                  21860198.2584
        49.0004         35.7504
  24415560.5024    -798555.92249   -613125.54746                  24415562.8974
        39.0004         18.5004
  22655626.5924   -2948166.00849  -2295583.52747                  22655623.0544
        47.7504         33.5004
  20922453.1684    5114217.67649   3971089.47348                  20922451.3184
        51.5004         41.2504
 04  7 28 19 48 30.0000000  0  7G 1G11G14G20G16G23G25
  21565449.7394    -816535.05149   -638276.53547                  21565448.0724
        50.2504         38.2504
  21735382.2114    5444570.24249   4226487.82047                  21735380.1754
        51.0004         36.7504
  24111270.7044   11159466.30149   8656736.29347                  24111270.7354
        41.7504         26.7504
  21856555.0444   -3823984.40249  -2975484.71547                  21856552.6844
        49.0004         35.7504
  24410591.2874    -824666.47749   -633471.27046                  24410594.1804
        39.0004         19.5004
  22652977.5424   -2962085.75849  -2306430.03947                  22652974.0414
        47.2504         33.5004
  20929453.7074    5151003.40249   3999753.66048                  20929451.2284
        52.0004         42.0004
 04  7 28 19 48 45.0000000  0  7G 1G11G14G20G16G23G25
  21565220.1364    -817742.39149   -639217.29747                  21565218.7564
        50.7504         38.2504
  21742774.9144    5483417.35549   4256758.28147                  21742772.7144
        49.7504         36.7504
  24122167.9534   11216726.21949   8701354.36347                  24122167.4304
        41.0004         26.0004
  21852917.0774   -3843102.24649  -2990381.72347                  21852913.9414
        49.0004         36.0004
  24405621.2474    -850787.24649   -653824.91046                  24405624.5854
        40.2504         20.5004
  22650334.5714   -2975970.82049  -2317249.54747                  22650331.2834
        46.7504         32.5004
  20936473.6064    5187894.80149   4028500.21148                  20936471.4474
        52.0004         41.0004
 04  7 28 19 49  0.0000000  0  7G 1G11G14G20G16G23G25
  21564998.4044    -818905.55149   -640123.64847                  21564997.0714
        50.0004         38.5004
  21750188.1894    5522373.63749   4287113.81647                  21750186.0644
        50.2504         36.7504
  24133061.3394   11273977.11349   8745965.39147                  24133061.7344
        41.7504         26.7504
  21849286.8464   -3862179.16849  -3005246.83247                  21849284.0854
        50.0004         35.5004
  24400648.7614    -876918.73849   -674186.98446                  24400651.4984
        40.5004         20.5004
  22647699.2754   -2989822.21549  -2328042.79747                  22647695.4914
        46.7504         32.7504
  20943513.9974    5224890.73449   4057328.21548                  20943512.0474
        52.2504         41.5004
 04  7 28 19 49 15.0000000  0  7G 1G11G14G20G16G23G25
  21564785.6804    -820022.80149   -640994.21947                  21564784.6024
        50.7504         38.5004
  21757621.9974    5561440.55549   4317555.57847                  21757619.9094
        51.0004         37.0004
  24143955.0754   11331220.82449   8790570.86746                  24143953.9944
        42.5004         23.2504
  21845664.7754   -3881213.09849  -3020078.46147                  21845661.9064
        49.5004         35.5004
  24395674.4534    -903058.84449   -694555.75446                  24395676.8414
        41.2504         21.2504
  22645069.9834   -3003638.04349  -2338808.34447                  22645066.7984
        46.2504         33.0004
  20950574.2134    5261992.76249   4086238.88348                  20950572.0674
        51.7504         41.7504
 04  7 28 19 49 30.0000000  0  7G 1G11G14G20G16G23G25
  21564581.1554    -821097.53149   -641831.65647                  21564579.6104
        49.5004         38.2504
  21765076.9204    5600614.61749   4348080.80547                  21765074.2634
        50.0004         36.5004
  24154846.4554   11388453.85949   8835168.02746                  24154844.4054
        42.2504         23.0004
  21842050.3144   -3900207.16049  -3034879.01247                  21842047.7144
        50.2504         36.2504
  24390696.9524    -929210.48849   -714933.46946                  24390699.4664
        39.2504         19.0004
  22642446.6314   -3017421.75449  -2349548.87947                  22642443.1044
        46.5004         33.5004
  20957653.7534    5299197.27049   4115229.41048                  20957651.7824
        51.5004         41.5004
 04  7 28 19 49 45.0000000  0  7G 1G11G14G20G16G23G25
  21564385.8764    -822125.72349   -642632.84047                  21564383.6444
        50.2504         38.2504
  21772552.2014    5639899.59849   4378692.46947                  21772549.9354
        50.2504         36.2504
  24165736.4824   11445680.28549   8879760.03946                  24165734.3104
        42.7504         23.5004
  21838443.9604   -3919156.99249  -3049645.10247                  21838441.7524
        50.2504         36.7504
  24385719.8474    -955369.27349   -735316.83246                  24385721.4714
        40.5004         19.5004
  22639830.9004   -3031169.28949  -2360261.21147                  22639826.9914
        47.2504         33.2504
  20964754.0754    5336508.15649   4144302.82848                  20964751.7934
        51.5004         41.5004
 04  7 28 19 50  0.0000000  0  7G 1G11G14G20G16G23G25
  21564198.6944    -823108.03949   -643398.25447                  21564197.1324
        50.5004         37.5004
  21780049.2914    5679294.73849   4409389.97747                  21780046.4254
        50.0004         36.0004
  24176624.8774   11502899.50049   8924346.41446                  24176622.8694
        42.7504         22.2504
  21834846.5914   -3938062.96949  -3064377.01647                  21834843.3094
        49.7504         36.0004
  24380739.9974    -981535.45749   -755705.88346                  24380742.3044
        40.0004         20.0004
  22637221.6874   -3044881.24649  -2370945.82047                  22637217.3464
        48.0004         33.0004
  20971874.0634    5373924.66449   4173458.53948                  20971872.1094
        51.2504         41.7504
 04  7 28 19 50 15.0000000  0  7G 1G11G14G20G16G23G25
  21564020.4064    -824045.82449   -644128.98847                  21564018.5234
        50.0004         37.7504
  21787566.5044    5718798.46949   4440172.10247                  21787563.8704
        50.5004         36.2504
  24187511.3604   11560110.12549   8968926.09846                  24187510.8204
        42.7504         22.7504
  21831256.8864   -3956926.13349  -3079075.57447                  21831254.1924
        50.2504         36.5004
  24375759.8674   -1007709.98849   -776101.46546                  24375761.6214
        40.2504         21.0004
  22634619.3514   -3058558.87549  -2381603.69147                  22634614.8734
        47.2504         33.0004
  20979013.8934    5411445.13749   4202695.27348                  20979011.8654
        51.5004         42.0004
 04  7 28 19 50 30.0000000  0  7G 1G11G14G20G16G23G25
  21563850.4854    -824937.59849   -644823.85947                  21563848.8374
        50.2504         38.2504
  21795104.3574    5758412.13749   4471039.88747                  21795102.3924
        49.0004         36.2504
  24198397.5704   11617313.73049   9013500.32046                  24198395.4744
        43.2504         23.5004
  21827675.9604   -3975744.69149  -3093739.36747                  21827673.6184
        49.0004         36.5004
  24370776.7164   -1033890.91849   -796501.99246                  24370779.8234
        40.7504         21.7504
  22632023.2244   -3072200.53949  -2392233.52347                  22632019.1644
        47.5004         33.5004
  20986173.5784    5449070.95749   4232014.10248                  20986171.8804
        51.2504         41.5004
 04  7 28 19 50 45.0000000  0  7G 1G11G14G20G16G23G25
  21563689.7334    -825783.59449   -645483.06647                  21563688.3904
        51.2504         37.5004
  21802663.8224    5798135.26249   4501992.96147                  21802661.3374
        50.2504         36.5004
  24209281.2154   11674510.06349   9058068.88346                  24209278.9174
        44.0004         23.7504
  21824103.4374   -3994518.53949  -3108368.32447                  21824100.7854
        49.7504         36.5004
  24365794.0994   -1060077.99949   -816907.35546                  24365795.7434
        41.0004         20.0004
  22629434.5924   -3085806.52049  -2402835.57847                  22629429.7874
        48.0004         34.0004
  20993353.9104    5486801.87949   4261414.81648                  20993352.0214
        51.2504         41.2504
 04  7 28 19 51  0.0000000  0  7G 1G11G14G20G16G23G25
  21563536.8824    -826584.87549   -646107.43047                  21563535.3264
        50.2504         37.7504
  21810243.3394    5837966.60949   4533030.37947                  21810241.1274
        50.7504         36.2504
  24220164.5994   11731698.04349   9102630.93846                  24220161.7924
        43.2504         24.5004
  21820539.1974   -4013248.44949  -3122963.05947                  21820535.8854
        49.5004         36.2504
  24360808.5174   -1086271.96149   -837318.08646                  24360811.6404
        41.2504         20.0004
  22626851.8924   -3099377.88749  -2413410.62947                  22626847.3784
        47.2504         33.2504
  21000553.7364    5524636.58649   4290896.40248                  21000551.2924
        52.0004         41.7504
 04  7 28 19 51 15.0000000  0  7G 1G11G14G20G16G23G25
  21563392.7774    -827342.84849   -646698.04347                  21563391.0764
        50.2504         38.2504
  21817843.2444    5877904.62549   4564150.89547                  21817840.8784
        50.7504         36.0004
  24231044.8354   11788876.36349   9147185.48046                  24231042.8904
        42.7504         22.2504
  21816983.3174   -4031935.48449  -3137524.37547                  21816980.4094
        49.5004         36.5004
  24355823.1654   -1112473.64549   -857734.80946                  24355825.2574
        41.0004         21.0004
  22624275.5484   -3112915.77749  -2423959.60247                  22624271.3874
        47.5004         33.5004
  21007773.0914    5562573.43449   4320457.58248                  21007770.3194
        51.7504         42.0004
 04  7 28 19 51 30.0000000  0  7G 1G11G14G20G16G23G25
  21563257.5824    -828054.43749   -647252.50847                  21563255.6024
        50.5004         37.7504
  21825464.4764    5917952.27749   4595356.85547                  21825461.3044
        50.0004         36.2504
  24241923.5494   11846048.00049   9191734.80146                  24241922.2864
        42.0004         22.2504
  21813435.8124   -4050576.32049  -3152049.68747                  21813433.5634
        49.5004         37.0004
  24350836.1564   -1138679.61749   -878154.90246                  24350837.5794
        40.5004         20.5004
  22621705.9904   -3126417.14549  -2434480.10247                  22621702.4334
        47.5004         33.5004
  21015012.0534    5600615.25849   4350100.56648                  21015009.5074
        51.0004         41.5004
 04  7 28 19 51 45.0000000  0  7G 1G11G14G20G16G23G25
  21563130.5964    -828721.14549   -647772.00847                  21563128.5004
        51.0004         37.5004
  21833105.4304    5958107.75049   4626646.82847                  21833103.3874
        50.2504         36.0004
  24252801.4774   11903211.39849   9236277.66446                  24252800.3544
        41.2504         25.5004
  21809897.3324   -4069172.21149  -3166539.96547                  21809894.7654
        49.5004         36.7504
  24345848.6094   -1164891.05949   -898579.23046                  24345849.8034
        41.0004         21.0004
  22619142.8034   -3139883.60949  -2444973.41447                  22619139.5144
        47.5004         34.0004
  21022270.6064    5638760.60249   4379824.21148                  21022268.3354
        52.0004         41.5004
 04  7 28 19 52  0.0000000  0  7G 1G11G14G20G16G23G25
  21563012.5584    -829340.40649   -648254.53547                  21563010.7964
        50.5004         37.5004
  21840767.8704    5998373.51249   4658022.72747                  21840765.7194
        50.2504         36.0004
  24263678.3954   11960369.33249   9280816.28146                  24263677.2964
        42.0004         24.2504
  21806367.6894   -4087720.16849  -3180992.91847                  21806364.5424
        50.2504         37.0004
  24340859.3924   -1191104.82449   -919005.37146                  24340862.0034
        40.7504         22.2504
  22616588.0214   -3153312.39549  -2455437.35947                  22616584.1804
        47.0004         33.2504
  21029549.7304    5677011.67649   4409630.24648                  21029547.4604
        51.5004         41.5004
 04  7 28 19 52 15.0000000  0  7G 1G11G14G20G16G23G25
  21562903.5754    -829913.25049   -648700.89547                  21562901.5684
        50.2504         37.7504
  21848450.7804    6038748.18049   4689483.51247                  21848448.2994
        50.0004         36.0004
  24274554.6344   12017520.77749   9325349.85246                  24274552.7824
        41.2504         22.5004
  21802846.9284   -4106220.93749  -3195409.10247                  21802843.6284
        49.0004         36.0004
  24335870.1404   -1217321.72349   -939433.93746                  24335872.8614
        39.7504         21.0004
  22614039.2464   -3166704.50049  -2465872.73447                  22614035.8114
        47.0004         33.5004
  21036848.7104    5715367.22349   4439517.67648                  21036846.1224
        51.7504         41.7504
 04  7 28 19 52 30.0000000  0  7G 1G11G14G20G16G23G25
  21562803.4224    -830438.78549   -649110.39547                  21562801.9084
        50.5004         38.2504
  21856154.4464    6079232.67249   4721029.87147                  21856152.6994
        48.7504         36.5004
  24285428.4044   12074666.57449   9369879.03146                  24285427.3214
        41.0004         22.2504
  21799335.4094   -4124673.38349  -3209787.60547                  21799333.5184
        48.2504         36.2504
  24330881.2384   -1243540.42249   -959863.94546                  24330883.8484
        40.5004         21.0004
  22611498.0714   -3180059.16449  -2476278.94147                  22611493.9654
        47.2504         33.7504
  21044167.3164    5753828.02349   4469487.14148                  21044165.2744
        51.5004         41.2504
 04  7 28 19 52 45.0000000  0  7G 1G11G14G20G16G23G25
  21562712.4234    -830919.31249   -649484.81247                  21562710.6904
        50.7504         38.5004
  21863878.9854    6119824.42649   4752659.78947                  21863876.5484
        49.2504         36.2504
  24296301.1424   12131804.44149   9414402.02346                  24296299.5654
        39.2504         22.2504
  21795833.1384   -4143079.37949  -3224129.93047                  21795830.8734
        49.5004         36.5004
  24325891.0554   -1269762.71149   -980296.72346                  24325892.6754
        41.0004         21.0004
  22608964.0344   -3193378.47749  -2486657.59847                  22608959.2014
        47.7504         33.7504
  21051505.7484    5792391.63749   4499536.70348                  21051503.4944
        51.7504         41.5004
 04  7 28 19 53  0.0000000  0  7G 1G11G14G20G16G23G25
  21562629.8774    -831351.18049   -649821.31647                  21562628.5854
        50.7504         38.5004
  21871624.2514    6160526.81649   4784375.93847                  21871622.4644
        48.5004         36.0004
  24307172.7854   12188938.23049   9458921.87946                  24307172.0164
        38.7504         21.0004
  21792339.9044   -4161434.89849  -3238432.92247                  21792337.0654
        48.2504         35.7504
  24320900.7564   -1295984.47749  -1000729.11746                  24320902.5164
        40.5004         19.5004
  22606436.4704   -3206658.71149  -2497005.80147                  22606432.2124
        47.5004         34.0004
  21058864.2904    5831061.65649   4529669.19148                  21058862.2114
        51.2504         42.0004
 04  7 28 19 53 15.0000000  0  7G 1G11G14G20G16G23G25
  21562556.4044    -831736.60949   -650121.64547                  21562555.2334
        51.0004         38.0004
  21879390.3054    6201337.48449   4816176.45347                  21879388.3174
        49.2504         35.5004
  24318044.8454   12246065.50849   9503436.59046                  24318043.4124
        40.0004         20.5004
  21788856.3594   -4179742.04349  -3252698.20747                  21788853.7794
        48.5004         36.5004
  24315910.4244   -1322207.59849  -1021162.53546                  24315912.9324
        40.0004         20.0004
  22603916.0114   -3219902.15249  -2507325.34847                  22603911.7984
        47.5004         34.2504
  21066242.9324    5869835.52749   4559882.60248                  21066240.7774
        51.2504         42.0004
 04  7 28 19 53 30.0000000  0  7G 1G11G14G20G16G23G25
  21562492.1464    -832075.96949   -650386.06247                  21562490.7874
        50.5004         37.7504
  21887177.1074    6242255.94549   4848060.95347                  21887175.0654
        49.2504         36.7504
  24328914.3964   12303185.88749   9547945.96146                  24328912.1114
        39.5004         21.0004
  21785381.9094   -4198000.75049  -3266925.76647                  21785379.4404
        48.5004         37.0004
  24310920.3664   -1348431.99649  -1041596.94946                  24310921.8854
        40.0004         21.0004
  22601402.9154   -3233109.04349  -2517616.39147                  22601398.5244
        46.7504         33.7504
  21073641.1174    5908712.83249   4590176.60248                  21073638.8084
        51.5004         41.7504
 04  7 28 19 53 45.0000000  0  7G 1G11G14G20G16G23G25
  21562436.7584    -832364.92249   -650611.21147                  21562435.4394
        50.5004         38.0004
  21894984.9564    6283286.25849   4880032.62547                  21894982.3854
        48.5004         36.7504
  24339783.6264   12360303.77049   9592453.39546                  24339781.0564
        40.0004         20.5004
  21781917.2804   -4216206.41849  -3281111.98847                  21781915.4144
        47.5004         36.7504
  24305930.4034   -1374652.85549  -1062028.62946                  24305932.4124
        41.0004         21.2504
  22598897.4784   -3246275.00449  -2527875.55947                  22598893.1524
        47.2504         34.2504
  21081059.7134    5947697.60949   4620554.35548                  21081057.1064
        52.0004         41.7504
 04  7 28 19 54  0.0000000  0  7G 1G11G14G20G16G23G25
  21562390.5134    -832608.53549   -650801.02347                  21562389.3524
        51.0004         38.2504
  21902812.7914    6324423.29349   4912087.44147                  21902810.9914
        48.7504         37.0004
  24350650.8714   12417414.15649   9636954.95346                  24350649.7834
        39.5004         20.5004
  21778462.1864   -4234363.77349  -3295260.56647                  21778459.3274
        48.2504         36.5004
  24300941.1554   -1400874.77349  -1082461.09846                  24300942.9124
        41.5004         22.5004
  22596398.8854   -3259405.02049  -2538106.69947                  22596394.9454
        48.0004         33.5004
  21088497.5304    5986784.78549   4651011.89148                  21088495.1494
        52.2504         41.7504
 04  7 28 19 54 15.0000000  0  7G 1G11G14G20G16G23G25
  21562353.1634    -832805.66049   -650954.62547                  21562351.8974
        51.0004         38.5004
  21910661.7204    6365667.82049   4944226.03147                  21910659.1954
        49.0004         36.2504
  24361516.6554   12474518.28949   9681451.67646                  24361515.8704
        38.7504         20.0004
  21775016.5144   -4252471.38349  -3309370.37947                  21775013.6094
        48.2504         37.0004
  24295950.4944   -1427096.19949  -1102893.20346                  24295952.7024
        40.5004         22.2504
  22593907.4164   -3272497.95749  -2548308.96147                  22593903.3794
        47.5004         35.0004
  21095955.1554    6025975.23049   4681549.90648                  21095952.8434
        52.0004         41.2504
 04  7 28 19 54 30.0000000  0  7G 1G11G14G20G16G23G25
  21562324.2684    -832956.57049   -651072.19547                  21562322.7284
        50.2504         39.2504
  21918530.7164    6407019.57049   4976448.16847                  21918528.0934
        48.2504         36.2504
  24372382.6394   12531615.91049   9725943.27746                  24372381.1074
        38.0004         20.0004
  21771580.1854   -4270529.17249  -3323441.37547                  21771578.3164
        47.5004         37.7504
  24290960.4814   -1453317.04749  -1123324.82046                  24290963.1064
        41.2504         22.0004
  22591423.1004   -3285553.98449  -2558482.45747                  22591418.8854
        47.0004         34.2504
  21103432.3514    6065268.42249   4712167.97748                  21103430.1564
        51.5004         41.5004
 04  7 28 19 54 45.0000000  0  7G 1G11G14G20G16G23G25
  21562304.8644    -833059.80549   -651152.62547                  21562303.3224
        50.7504         38.5004
  21926420.2224    6448479.66849   5008754.72347                  21926418.4524
        48.0004         36.2504
  24383247.3284   12588708.48049   9770431.00046                  24383245.0784
        39.5004         21.0004
  21768153.7034   -4288535.40649  -3337472.18447                  21768151.2604
        48.0004         37.5004
  24285971.7584   -1479535.46949  -1143754.61746                  24285974.2334
        40.5004         21.7504
  22588945.5704   -3298571.65249  -2568626.05947                  22588942.1924
        47.7504         34.2504
  21110929.5474    6104665.60249   4742867.08248                  21110927.1804
        51.0004         41.5004
 04  7 28 19 55  0.0000000  0  7G 1G11G14G20G16G23G25
  21562294.3104    -833115.79349   -651196.23847                  21562292.8704
        51.2504         38.5004
  21934330.3564    6490047.43849   5041145.18447                  21934328.0574
        47.2504         36.2504
  24394110.8034   12645795.46149   9814914.35546                  24394108.3864
        39.7504         21.2504
  21764736.9984   -4306490.18449  -3351462.91047                  21764734.1084
        48.0004         37.5004
  24280983.2984   -1505751.43749  -1164182.44146                  24280984.1944
        42.5004         22.0004
  22586475.4444   -3311551.28149  -2578740.02347                  22586472.3354
        47.5004         34.5004
  21118446.1804    6144166.16049   4773646.73048                  21118443.6074
        51.5004         41.7504
 04  7 28 19 55 15.0000000  0  7G 1G11G14G20G16G23G25
  21562292.1494    -833124.60549   -651203.09047                  21562291.0884
        51.0004         38.2504
  21942260.7614    6531722.67249   5073619.39547                  21942258.6724
        48.0004         36.2504
  24404972.7704   12702876.86749   9859393.36746                  24404970.5684
        38.2504         21.0004
  21761330.0584   -4324393.27749  -3365413.36747                  21761327.7704
        47.7504         37.5004
  24275994.0804   -1531964.55949  -1184608.06246                  24275995.8904
        40.5004         22.0004
  22584013.5344   -3324492.84849  -2588824.33647                  22584009.5674
        48.5004         34.2504
  21125982.9414    6183769.85549   4804506.76248                  21125980.3534
        50.5004         41.5004
 04  7 28 19 55 30.0000000  0  7G 1G11G14G20G16G23G25
  21262507.4804    -833085.96949   -651172.96547                  21262506.3074
        50.7504         38.5004
  21650419.9234    6573508.28149   5106179.59847                  21650417.8334
        47.5004         36.2504
  24116042.4364   12759956.82849   9903871.21946                  24116041.8584
        36.5004         21.7504
  21458140.4974   -4342245.32049  -3379324.02747                  21458138.1794
        47.5004         37.2504
  23971213.5204   -1558175.95349  -1205032.32046                  23971215.4234
        40.5004         22.2504
  22281765.3724   -3337396.98849  -2598879.48847                  22281761.0564
        47.5004         34.0004
  20833746.6184    6223479.44549   4835449.29748                  20833744.1064
        51.5004         41.5004
 04  7 28 19 55 45.0000000  0  7G 1G11G14G20G16G23G25
  21262523.5854    -832999.65249   -651105.69947                  21262522.7344
        50.5004         38.2504
  21658391.2734    6615398.64549   5138821.43047                  21658389.3694
        46.7504         36.0004
  24126902.7784   12817028.01249   9948342.23446                  24126901.8414
        37.5004         21.5004
  21454753.4374   -4360043.37149  -3393192.62947                  21454751.5704
        49.0004         37.5004
  23966227.2484   -1584381.33249  -1225451.91446                  23966228.3094
        41.5004         21.5004
  22279316.7404   -3350261.60249  -2608903.83647                  22279312.8634
        48.0004         34.0004
  20841322.4364    6263289.82449   4866470.37148                  20841319.4444
        50.5004         41.5004
 04  7 28 19 56  0.0000000  0  7G 1G11G14G20G16G23G25
  21262548.9684    -832866.54349   -651001.95747                  21262547.9764
        50.7504         38.2504
  21666382.9514    6657395.47749   5171546.23447                  21666380.4674
        49.0004         36.5004
  24137762.6964   12874093.35549   9992808.68046                  24137760.4394
        37.2504         21.7504
  21451376.7234   -4377789.14149  -3407020.49647                  21451373.8254
        49.0004         37.2504
  23961240.6564   -1610582.98449  -1245868.62146                  23961241.9554
        40.5004         22.0004
  22276875.9034   -3363088.41849  -2618898.73847                  22276871.6274
        48.0004         34.0004
  20848917.6344    6303202.40649   4897571.08648                  20848914.8244
        51.5004         41.5004
 04  7 28 19 56 15.0000000  0  7G 1G11G14G20G16G23G25
  21262582.8634    -832688.90649   -650863.52747                  21262581.7204
        50.5004         39.0004
  21674394.9784    6699496.39849   5204352.13747                  21674392.9064
        48.2504         36.5004
  24148620.0004   12931150.69549  10037268.89846                  24148619.0614
        39.0004         22.0004
  21448009.1904   -4395484.53549  -3420809.09847                  21448006.8014
        48.5004         37.2504
  23956254.4364   -1636782.79349  -1266283.88346                  23956255.8454
        40.0004         22.5004
  22274441.4674   -3375879.70349  -2628865.94947                  22274437.3424
        47.2504         34.0004
  20856531.3114    6343214.84049   4928749.60948                  20856529.3184
        51.0004         41.7504
 04  7 28 19 56 30.0000000  0  7G 1G11G14G20G16G23G25
  21262626.1094    -832463.84449   -650688.14547                  21262623.9824
        50.5004         39.2504
  21682426.6854    6741704.07449   5237241.22347                  21682424.1194
        49.5004         35.7504
  24159476.6314   12988202.69949  10081724.99646                  24159474.3464
        39.5004         23.0004
  21444652.2174   -4413126.41049  -3434556.00047                  21444650.2734
        49.7504         37.7504
  23951269.5984   -1662977.42649  -1286695.07846                  23951271.7074
        41.0004         22.2504
  22272015.1124   -3388632.43749  -2638803.12947                  22272010.5864
        47.0004         34.2504
  20864165.4554    6383329.94149   4960008.13348                  20864162.8864
        52.0004         41.5004
 04  7 28 19 56 45.0000000  0  7G 1G11G14G20G16G23G25
  21262677.4774    -832191.64149   -650476.02047                  21262676.0094
        50.7504         39.0004
  21690479.0364    6784017.90249   5270213.03147                  21690476.6184
        50.5004         36.0004
  24170332.6024   13045249.15649  10126176.79746                  24170330.2414
        38.0004         23.7504
  21441305.3604   -4430714.80549  -3448261.23847                  21441302.9934
        49.7504         37.5004
  23946287.0754   -1689166.73849  -1307102.14546                  23946288.5634
        42.0004         23.0004
  22269595.2504   -3401346.87549  -2648710.44947                  22269591.4554
        47.2504         33.5004
  20871818.1754    6423547.21549   4991346.26248                  20871816.1524
        51.5004         41.5004
 04  7 28 19 57  0.0000000  0  7G 1G11G14G20G16G23G25
  21262738.3474    -831872.07449   -650226.98847                  21262736.8554
        51.0004         38.7504
  21698551.1134    6826438.05549   5303267.68847                  21698548.8264
        49.5004         36.0004
  24181186.4404   13102290.50049  10170624.59846                  24181185.4134
        40.5004         22.5004
  21437968.1304   -4448249.16049  -3461924.36747                  21437965.8334
        48.7504         37.7504
  23941304.2664   -1715350.02049  -1327504.51246                  23941305.2264
        41.7504         22.5004
  22267183.1534   -3414022.76249  -2658587.72747                  22267179.1514
        47.2504         34.0004
  20879490.7884    6463866.50849   5022763.89548                  20879488.2454
        51.5004         41.5004
 04  7 28 19 57 15.0000000  0  7G 1G11G14G20G16G23G25
  21262808.4344    -831505.92249   -649941.66447                  21262806.2754
        51.0004         38.5004
  21706643.6414    6868963.51249   5336404.41047                  21706640.2744
        50.0004         36.0004
  24192039.7044   13159325.83649  10215067.66046                  24192039.1894
        38.5004         24.5004
  21434641.9784   -4465729.92249  -3475545.72747                  21434639.4974
        50.2504         37.5004
  23936322.9284   -1741527.72749  -1347902.53146                  23936323.5644
        42.2504         22.5004
  22264778.2714   -3426660.94549  -2668435.63747                  22264774.2784
        47.0004         34.5004
  20887182.5134    6504286.87549   5054260.28148                  20887180.1354
        51.5004         41.5004
 04  7 28 19 57 30.0000000  0  7G 1G11G14G20G16G23G25
  21262886.0404    -831093.71149   -649620.44547                  21262884.8794
        50.2504         38.7504
  21714755.5234    6911593.35249   5369622.45347                  21714753.3124
        50.5004         36.0004
  24202892.2914   13216354.72749  10259505.73446                  24202891.4084
        38.7504         23.0004
  21431325.8184   -4483157.18449  -3489125.40647                  21431323.4084
        50.0004         37.5004
  23931342.3824   -1767699.85949  -1368296.25446                  23931342.4194
        42.5004         22.5004
  22262380.5974   -3439261.80149  -2678254.45747                  22262376.6324
        47.7504         34.0004
  20894893.3954    6544807.62949   5085834.90248                  20894891.0244
        51.2504         41.2504
 04  7 28 19 57 45.0000000  0  7G 1G11G14G20G16G23G25
  21262973.8054    -830634.64549   -649262.71947                  21262972.0584
        51.2504         38.7504
  21722887.5354    6954328.16049   5402922.30547                  21722885.2034
        48.7504         36.0004
  24213743.0974   13273378.03149  10303939.44146                  24213742.4294
        40.5004         24.7504
  21428019.8634   -4500529.91849  -3502662.58247                  21428016.8554
        49.2504         37.7504
  23926362.4864   -1793865.21549  -1388684.67246                  23926362.7394
        41.7504         21.5004
  22259990.2704   -3451824.43749  -2688043.48847                  22259986.1874
        48.0004         34.7504
  20902623.6164    6585429.52049   5117488.31648                  20902621.5214
        50.5004         41.7504
 04  7 28 19 58  0.0000000  0  7G 1G11G14G20G16G23G25
  21263070.4374    -830128.30549   -648868.16047                  21263068.7744
        50.2504         38.7504
  21731040.1894    6997168.39149   5436304.28547                  21731037.6414
        49.0004         36.5004
  24224593.8234   13330396.05549  10348369.02746                  24224592.3414
        40.2504         23.0004
  21424724.1874   -4517847.31649  -3516156.64147                  21424722.2484
        50.0004         37.7504
  23921384.2464   -1820022.86349  -1409067.08646                  23921384.8414
        41.0004         20.5004
  22257606.9734   -3464348.41849  -2697802.42647                  22257603.2974
        47.7504         35.5004
  20910372.5714    6626152.60249   5149220.59048                  20910370.3744
        51.0004         41.5004
 04  7 28 19 58 15.0000000  0  7G 1G11G14G20G16G23G25
  21263175.2174    -829575.44549   -648437.34447                  21263173.8834
        50.7504         39.0004
  21739211.3864    7040112.98049   5469767.60247                  21739209.8974
        49.0004         36.2504
  24235442.7364   13387408.05549  10392793.96146                  24235441.9774
        39.5004         24.2504
  21421439.3344   -4535109.91449  -3529608.01647                  21421437.1104
        48.5004         37.5004
  23916407.9564   -1846173.27349  -1429443.83246                  23916409.0784
        41.2504         21.7504
  22255230.8064   -3476834.49649  -2707531.80147                  22255227.0924
        48.2504         34.2504
  20918141.2314    6666975.88349   5181030.93048                  20918139.0014
        52.0004         41.5004
 04  7 28 19 58 30.0000000  0  7G 1G11G14G20G16G23G25
  21263288.8114    -828977.25049   -647971.20347                  21263287.6514
        49.0004         39.0004
  21747403.6864    7083160.68449   5503311.25047                  21747401.5084
        48.5004         36.0004
  24246290.5384   13444413.09049  10437213.45346                  24246289.6604
        39.5004         23.0004
  21418164.7274   -4552318.57049  -3543017.34047                  21418162.2644
        48.5004         37.0004
  23911433.8444   -1872317.12949  -1449815.49246                  23911434.7504
        42.5004         21.7504
  22252861.8804   -3489283.64149  -2717232.40647                  22252858.3304
        47.7504         35.0004
  20925928.0334    6707898.09049   5212918.37148                  20925925.6594
        51.0004         41.7504
 04  7 28 19 58 45.0000000  0  7G 1G11G14G20G16G23G25
  21263411.8184    -828332.48849   -647468.77748                  21263410.5894
        50.5004         39.5004
  21755615.0744    7126312.36749   5536935.93447                  21755612.9734
        48.5004         36.5004
  24257136.7234   13501412.30549  10481628.37546                  24257136.4454
        39.5004         22.5004
  21414900.6274   -4569471.71549  -3556383.41847                  21414897.9004
        48.7504         37.0004
  23906459.2324   -1898452.69149  -1470180.73846                  23906460.7904
        43.0004         22.5004
  22250499.7794   -3501694.71149  -2726903.35247                  22250496.1324
        48.0004         34.7504
  20933734.7784    6748920.32849   5244883.74248                  20933732.7024
        52.2504         41.7504
 04  7 28 19 59  0.0000000  0  7G 1G11G14G20G16G23G25
  21263543.3334    -827641.21149   -646930.10547                  21263541.9494
        50.7504         39.2504
  21763846.4514    7169567.71549   5570641.37947                  21763844.2784
        47.7504         36.2504
  24267982.5574   13558405.72349  10526038.79346                  24267981.6624
        39.7504         24.7504
  21411647.2704   -4586569.14149  -3569706.08647                  21411644.7464
        48.0004         37.5004
  23901487.5454   -1924579.75049  -1490539.28946                  23901489.0564
        41.7504         22.0004
  22248145.3904   -3514067.77049  -2736544.65647                  22248141.3384
        47.5004         34.5004
  20941560.2154    6790042.35249   5276926.86748                  20941558.1234
        52.0004         42.0004
 04  7 28 19 59 15.0000000  0  7G 1G11G14G20G16G23G25
  21263683.2464    -826905.28149   -646356.63747                  21263681.9024
        50.5004         38.7504
  21772096.9904    7212924.64849   5604426.00447                  21772094.3014
        48.0004         35.5004
  24278826.5904   13615391.40249  10570443.20746                  24278825.7614
        39.7504         22.7504
  21408403.9494   -4603612.28149  -3582986.43447                  21408401.2394
        47.7504         37.2504
  23896517.3804   -1950699.66049  -1510892.32846                  23896518.1384
        42.0004         22.2504
  22245797.4344   -3526404.55949  -2746157.69947                  22245792.9364
        46.5004         34.0004
  20949403.7524    6831262.08249   5309046.14548                  20949401.4544
        51.2504         41.5004
 04  7 28 19 59 30.0000000  0  7G 1G11G14G20G16G23G25
  21263832.0954    -826124.17249   -645747.96948                  21263830.5704
        50.5004         39.5004
  21780366.8514    7256383.65249   5638290.15647                  21780364.7724
        47.2504         35.7504
  24289669.5304   13672370.03149  10614842.12546                  24289668.0834
        38.7504         22.5004
  21405171.2624   -4620600.30549  -3596223.84047                  21405168.6344
        49.0004         37.5004
  23891548.2574   -1976811.42249  -1531238.97346                  23891548.9414
        42.0004         25.0004
  22243456.8404   -3538704.47749  -2755742.02347                  22243452.7844
        47.0004         33.5004
  20957266.3374    6872579.92249   5341241.85948                  20957263.7804
        51.0004         41.2504
 04  7 28 19 59 45.0000000  0  7G 1G11G14G20G16G23G25
  21263989.2594    -825296.57449   -645103.07047                  21263987.9514
        50.2504         38.7504
  21788656.5854    7299945.60949   5672234.53147                  21788654.4454
        48.0004         35.5004
  24300511.6164   13729342.91849  10659236.55946                  24300509.8964
        37.0004         23.0004
  21401949.1554   -4637531.66849  -3609417.10547                  21401946.1044
        47.0004         37.2504
  23886580.8684   -2002913.34049  -1551577.96946                  23886581.7894
        41.5004         22.5004
  22241123.6734   -3550966.16049  -2765296.55947                  22241118.4934
        46.5004         33.5004
  20965147.8164    6913996.79749   5373514.74248                  20965144.8144
        51.5004         41.0004
 04  7 28 20  0  0.0000000  0  7G 1G11G14G20G16G23G25
  21264155.5854    -824422.40649   -644421.89147                  21264153.8944
        50.0004         39.0004
  21796965.5044    7343610.55549   5706259.15647                  21796963.1924
        46.5004         35.5004
  24311351.2954   13786310.06349  10703626.53146                  24311350.3034
        40.5004         22.5004
  21398737.8334   -4654405.90249  -3622565.84447                  21398735.6904
        47.2504         37.2504
  23881615.7674   -2029004.79349  -1571908.78946                  23881616.9754
        41.5004         23.0004
  22238797.5584   -3563189.48849  -2774821.21547                  22238793.0184
        47.7504         34.5004
  20973047.7104    6955512.77049   5405864.85548                  20973045.5364
        50.7504         41.0004
 04  7 28 20  0 15.0000000  0  7G 1G11G14G20G16G23G25
  21264330.8484    -823503.79749   -643706.07447                  21264328.5694
        51.0004         39.2504
  21805293.8644    7387376.14849   5740362.20747                  21805292.3764
        46.5004         36.2504
  24322190.5954   13843269.43449  10748010.43446                  24322189.8274
        38.5004         22.5004
  21395537.8274   -4671224.80549  -3635671.47347                  21395534.9514
        48.7504         37.5004
  23876651.6004   -2055087.58249  -1592232.90646                  23876651.7174
        40.0004         21.7504
  22236478.8524   -3575376.50449  -2784317.56247                  22236473.6114
        48.0004         34.5004
  20980966.9034    6997125.37549   5438290.26248                  20980964.5824
        50.7504         41.7504
 04  7 28 20  0 30.0000000  0  7G 1G11G14G20G16G23G25
  21264514.1144    -822539.39549   -642954.58247                  21264512.2154
        45.5004         38.7504
  21813641.5964    7431243.41449   5774544.49247                  21813639.2444
        44.2504         35.5004
  24333028.5004   13900222.47749  10792389.40246                  24333027.0354
        37.5004         23.0004
  21392347.5804   -4687986.74649  -3648732.69947                  21392345.1224
        44.5004         36.7504
  23871690.8944   -2081159.85549  -1612548.83246                  23871690.3554
        40.5004         21.7504
  22234166.6884   -3587525.85249  -2793784.57047                  22234162.4494
        44.5004         33.7504
  20988904.0054    7038835.82449   5470791.90248                  20988901.4114
        45.7504         40.5004
 04  7 28 20  0 45.0000000  0  7G 1G11G14G20G16G23G25
  21264706.7584    -821527.35249   -642165.96947                  21264704.5934
        51.5004         38.5004
  21822008.9014    7475213.94149   5808807.22747                  21822006.6354
        47.7504         35.7504
  24343865.2064   13957170.90249  10836764.78146                  24343864.2684
        38.7504         22.2504
  21389169.1094   -4704689.44549  -3661747.78147                  21389167.1884
        48.0004         37.2504
  23866731.7774   -2107219.48049  -1632854.89146                  23866731.8794
        41.5004         21.2504
  22231862.2534   -3599635.64849  -2803220.75847                  22231858.2854
        48.5004         34.5004
  20996860.4004    7080645.77349   5503371.07048                  20996857.6744
        51.2504         41.2504
 04  7 28 20  1  0.0000000  0  7G 1G11G14G20G16G23G25
  21264908.1494    -820470.12949   -641342.14547                  21264905.7564
        51.5004         39.0004
  21830395.2774    7519284.98849   5843148.30147                  21830393.1364
        47.2504         35.5004
  24354700.2974   14014112.28549  10881134.64846                  24354699.6674
        38.5004         22.2504
  21386001.9584   -4721335.23049  -3674718.50447                  21385999.4594
        49.0004         37.7504
  23861774.3334   -2133268.34849  -1653152.59046                  23861775.3784
        40.2504         24.2504
  22229564.9124   -3611708.33649  -2812628.02047                  22229561.2384
        47.7504         35.0004
  21004834.3064    7122552.47749   5536025.64848                  21004831.8974
        50.2504         40.7504
 04  7 28 20  1 15.0000000  0  7G 1G11G14G20G16G23G25
  21265117.8344    -819366.81249   -640482.40647                  21265115.9384
        50.7504         38.2504
  21838800.8264    7563457.36349   5877568.32447                  21838798.9054
        48.5004         35.2504
  24365535.2834   14071047.64849  10925499.80546                  24365533.9224
        38.2504         22.5004
  21382845.1934   -4737922.78549  -3687643.86347                  21382842.4514
        49.2504         38.2504
  23856820.6484   -2159305.27749  -1673440.97746                  23856820.3634
        41.7504         22.2504
  22227274.6744   -3623742.90249  -2822005.57447                  22227271.4194
        47.7504         35.0004
  21012827.8164    7164556.79749   5568756.28548                  21012825.4004
        51.5004         40.5004
 04  7 28 20  1 30.0000000  0  7G 1G11G14G20G16G23G25
  21265336.8024    -818216.25449   -639585.85547                  21265334.3834
        50.5004         39.2504
  21847226.1504    7607732.04349   5912068.06347                  21847224.0834
        48.0004         35.5004
  24376368.4374   14127978.22749  10969861.26246                  24376368.0344
        38.5004         22.0004
  21379699.8904   -4754450.66849  -3700522.71947                  21379697.3734
        48.5004         37.5004
  23851867.4024   -2185328.55549  -1693718.69546                  23851867.9804
        41.5004         22.5004
  22224991.8704   -3635738.13349  -2831352.47347                  22224988.7684
        47.5004         35.0004
  21020839.8904    7206659.79349   5601563.80548                  21020837.5324
        52.0004         41.0004
 04  7 28 20  1 45.0000000  0  7G 1G11G14G20G16G23G25
  21265564.7984    -817018.34849   -638652.41047                  21265562.7244
        51.5004         39.0004
  21855670.9254    7652108.94549   5946647.45347                  21855668.8264
        47.5004         35.5004
  24387201.4144   14184904.09849  11014219.07846                  24387200.7184
        38.2504         22.5004
  21376566.3374   -4770918.31249  -3713354.64547                  21376563.4414
        48.5004         37.7504
  23846918.5374   -2211337.58649  -1713985.34046                  23846918.6064
        41.7504         22.5004
  22222716.5164   -3647693.94949  -2840668.66847                  22222713.7134
        47.0004         34.2504
  21028870.3084    7248861.22749   5634448.03548                  21028867.8894
        51.0004         41.0004
 04  7 28 20  2  0.0000000  0  7G 1G11G14G20G16G23G25
  21265801.5844    -815773.30549   -637682.23847                  21265799.7874
        51.0004         39.0004
  21864134.8654    7696587.50049   5981306.07047                  21864132.7374
        48.5004         35.7504
  24398032.5804   14241825.04749  11058573.02346                  24398032.0184
        38.0004         22.2504
  21373444.1864   -4787325.84049  -3726139.70747                  21373441.7134
        49.0004         37.5004
  23841971.3354   -2237332.17249  -1734240.73846                  23841971.3874
        42.0004         23.0004
  22220449.1254   -3659610.41849  -2849954.18747                  22220445.5824
        47.0004         34.2504
  21036919.6944    7291160.61749   5667408.59848                  21036917.2834
        50.5004         41.7504
 04  7 28 20  2 15.0000000  0  7G 1G11G14G20G16G23G25
  21266047.6364    -814481.49649   -636675.61748                  21266045.3844
        51.2504         39.5004
  21872617.9564    7741167.18849   6016043.48447                  21872615.8254
        48.0004         35.7504
  24408863.6964   14298740.80949  11102922.94546                  24408862.5514
        39.5004         22.2504
  21370333.0844   -4803673.23049  -3738877.93047                  21370330.5614
        49.2504         38.0004
  23837027.1934   -2263312.36749  -1754484.90646                  23837027.8804
        41.7504         23.0004
  22218188.9234   -3671487.82449  -2859209.28147                  22218184.9664
        47.7504         33.7504
  21044987.5484    7333557.48449   5700445.12148                  21044984.9244
        50.2504         41.5004
 04  7 28 20  2 30.0000000  0  7G 1G11G14G20G16G23G25
  21266302.1044    -813144.52749   -635633.81647                  21266299.9724
        51.0004         39.0004
  21881120.4134    7785846.18849   6050858.27347                  21881118.0034
        48.0004         35.2504
  24419692.9864   14355649.78149  11147267.57046                  24419692.1004
        38.7504         22.0004
  21367233.8404   -4819961.62949  -3751570.18047                  21367230.9064
        49.0004         38.2504
  23832085.6384   -2289279.22349  -1774718.66046                  23832086.5024
        41.5004         23.0004
  22215936.0644   -3683327.82849  -2868435.23047                  22215931.7144
        47.2504         34.7504
  21053073.6514    7376050.05149   5733556.20748                  21053071.5884
        50.7504         41.0004
 04  7 28 20  2 45.0000000  0  7G 1G11G14G20G16G23G25
  21266565.3534    -811761.44949   -634556.08647                  21266563.3954
        51.2504         38.5004
  21889641.2654    7830625.10549   6085750.93847                  21889638.9764
        48.0004         35.0004
  24430521.6774   14412552.91849  11191607.66846                  24430520.0274
        39.2504         21.7504
  21364145.4124   -4836189.89549  -3764215.56247                  21364143.2244
        49.0004         37.5004
  23827148.0284   -2315231.46949  -1794941.11346                  23827148.1034
        41.5004         22.7504
  22213690.4554   -3695129.43049  -2877631.27047                  22213685.2874
        48.0004         35.5004
  21061178.2424    7418638.89849   5766742.30948                  21061175.4564
        50.5004         41.0004
 04  7 28 20  3  0.0000000  0  7G 1G11G14G20G16G23G25
  21266837.0864    -810332.18749   -633442.36347                  21266835.2064
        51.0004         39.0004
  21898181.2664    7875503.81649   6120721.35947                  21898179.7634
        48.7504         35.0004
  24441349.0354   14469450.26249  11235943.25446                  24441347.3914
        40.5004         22.0004
  21361068.9074   -4852357.61349  -3776813.77047                  21361066.3764
        50.2504         38.2504
  23822211.4244   -2341168.56249  -1815151.69946                  23822212.0544
        42.0004         22.5004
  22211451.7154   -3706892.53549  -2886797.30547                  22211446.4834
        48.0004         34.7504
  21069300.5944    7461324.08249   5800003.51248                  21069298.2944
        51.7504         41.2504
 04  7 28 20  3 15.0000000  0  7G 1G11G14G20G16G23G25
  21267118.0844    -808857.07049   -632292.91447                  21267116.1674
        51.5004         39.2504
  21906740.7974    7920481.79349   6155769.10547                  21906738.5544
        48.7504         35.5004
  24452174.9154   14526341.65649  11280274.19146                  24452173.2724
        40.5004         20.0004
  21358003.7134   -4868464.83249  -3789364.84047                  21358001.3414
        49.2504         37.7504
  23817278.7694   -2367090.40249  -1835350.43046                  23817279.4234
        41.5004         23.0004
  22209220.9114   -3718617.36749  -2895933.53147                  22209215.5794
        48.2504         35.0004
  21077441.7164    7504105.03949   5833339.30148                  21077439.1694
        51.0004         41.2504
 04  7 28 20  3 30.0000000  0  7G 1G11G14G20G16G23G25
  21267407.3074    -807335.28549   -631107.10247                  21267406.1024
        50.7504         39.0004
  21915318.6424    7965559.60549   6190894.68447                  21915315.7904
        50.0004         35.7504
  24463000.0724   14583227.91049  11324601.15246                  24462998.8004
        40.0004         19.5004
  21354950.6304   -4884510.36349  -3801867.84047                  21354948.1544
        48.7504         37.5004
  23812348.5964   -2392995.66849  -1855536.22346                  23812349.7524
        40.5004         23.5004
  22206997.7524   -3730303.14849  -2905039.31247                  22206992.0094
        47.5004         35.0004
  21085601.0084    7546982.40249   5866750.23848                  21085598.4604
        50.7504         41.5004
 04  7 28 20  3 45.0000000  0  7G 1G11G14G20G16G23G25
  21267705.4124    -805767.42249   -629885.37547                  21267704.5644
        51.0004         39.0004
  21923915.4984    8010736.45349   6226097.41047                  21923913.5704
        48.2504         35.5004
  24473824.1454   14640108.54749  11368923.67646                  24473822.2754
        39.2504         20.0004
  21351909.1284   -4900494.46549  -3814322.96947                  21351906.5424
        49.5004         38.2504
  23807422.5974   -2418884.63749  -1875709.34046                  23807422.7284
        42.0004         25.0004
  22204780.5724   -3741950.31249  -2914114.99247                  22204776.2074
        47.2504         34.5004
  21093778.8244    7589955.32849   5900235.61348                  21093775.9524
        50.7504         41.7504
 04  7 28 20  4  0.0000000  0  7G 1G11G14G20G16G23G25
  21268012.6844    -804153.40249   -628627.68447                  21268011.1614
        50.7504         39.2504
  21932531.0934    8056012.30949   6261377.28547                  21932528.9604
        49.2504         35.0004
  24484647.2294   14696983.55149  11413241.86346                  24484645.9004
        40.2504         20.0004
  21348878.8424   -4916416.65249  -3826729.85947                  21348876.2214
        49.5004         38.7504
  23802499.1354   -2444756.62549  -1895869.23446                  23802500.0334
        41.2504         23.0004
  22202571.2074   -3753558.80149  -2923160.55947                  22202567.4394
        48.0004         34.7504
  21101973.6924    7633023.59849   5933795.31348                  21101972.1784
        51.5004         41.0004
 04  7 28 20  4 15.0000000  0  7G 1G11G14G20G16G23G25
  21268329.2134    -802491.66049   -627332.81248                  21268327.5224
        50.5004         39.7504
  21941165.6684    8101388.28949   6296735.19147                  21941163.9624
        48.7504         34.5004
  24495469.9314   14753854.53549  11457556.87146                  24495468.0684
        42.7504         20.5004
  21345861.1134   -4932275.20349  -3839087.15647                  21345858.4774
        48.7504         38.2504
  23797579.5654   -2470609.85549  -1916014.48446                  23797579.4764
        41.7504         22.5004
  22200369.8044   -3765126.99249  -2932174.70747                  22200366.5214
        47.5004         35.0004
  21110187.8734    7676188.67249   5967430.42648                  21110185.7584
        50.0004         41.0004
 04  7 28 20  4 30.0000000  0  7G 1G11G14G20G16G23G25
  21268654.1194    -800784.01249   -626002.16848                  21268652.5064
        50.2504         39.5004
  21949819.4014    8146862.40649   6332169.55147                  21949817.4484
        48.0004         35.0004
  24506290.3874   14810719.66449  11501867.34446                  24506288.9974
        43.0004         21.5004
  21342854.9854   -4948071.52049  -3851395.97347                  21342852.7704
        49.0004         38.0004
  23792663.4664   -2496445.51649  -1936146.06646                  23792663.2764
        41.7504         24.0004
  22198176.1914   -3776656.69149  -2941158.85247                  22198172.3564
        47.7504         34.7504
  21118420.1494    7719448.57049   6001139.44148                  21118417.6484
        50.5004         40.5004
 04  7 28 20  4 45.0000000  0  7G 1G11G14G20G16G23G25
  21268987.7874    -799029.70749   -624635.16848                  21268986.6744
        50.7504         39.5004
  21958491.5274    8192435.20349   6367680.81647                  21958489.7604
        49.0004         35.0004
  24517110.1394   14867579.85549  11546173.98046                  24517109.7154
        42.5004         21.7504
  21339861.1144   -4963804.58249  -3863655.47747                  21339858.4734
        48.5004         38.0004
  23787750.5364   -2522262.52049  -1956263.12146                  23787750.0064
        42.7504         24.7504
  22195989.2164   -3788147.08649  -2950112.37147                  22195986.4314
        47.7504         35.7504
  21126670.3134    7762803.84449   6034922.76648                  21126667.9734
        50.5004         40.7504
 04  7 28 20  5  0.0000000  0  7G 1G11G14G20G16G23G25
  21269330.2184    -797230.31249   -623233.03548                  21269328.9744
        50.2504         39.5004
  21967182.0474    8238104.98849   6403267.66047                  21967180.0234
        48.2504         35.0004
  24527929.1194   14924433.47349  11590475.48846                  24527928.5374
        41.0004         22.2504
  21336879.2264   -4979475.53149  -3875866.59447                  21336876.2224
        48.0004         37.7504
  23782841.2334   -2548061.98849  -1976366.48446                  23782840.1934
        41.2504         23.5004
  22193809.7954   -3799599.72349  -2959036.48047                  22193806.3834
        48.0004         35.2504
  21134938.1804    7806252.61749   6068778.96148                  21134935.9764
        49.7504         41.0004
 04  7 28 20  5 15.0000000  0  7G 1G11G14G20G16G23G25
  21269681.7464    -795383.22349   -621793.73447                  21269680.0274
        50.2504         39.2504
  21975891.6854    8283873.97749   6438931.77347                  21975889.9454
        48.0004         34.7504
  24538748.2104   14981283.19549  11634773.94946                  24538746.2924
        41.5004         21.0004
  21333909.5464   -4995081.53149  -3888027.10947                  21333907.0204
        48.0004         38.2504
  23777934.3894   -2573840.93749  -1996453.89846                  23777934.4334
        41.5004         23.0004
  22191638.4204   -3811011.86349  -2967929.02747                  22191634.4894
        48.7504         35.2504
  21143224.6394    7849797.31349   6102709.88348                  21143222.2614
        50.2504         41.0004
 04  7 28 20  5 30.0000000  0  7G 1G11G14G20G16G23G25
  21270041.9884    -793488.84049   -620317.57048                  21270040.8414
        49.5004         39.5004
  21984619.5274    8329741.57849   6474672.77047                  21984617.1904
        47.2504         35.2504
  24549565.1444   15038128.65249  11679069.08246                  24549563.2834
        42.0004         20.5004
  21330952.2604   -5010622.61349  -3900137.02347                  21330949.4984
        47.0004         37.7504
  23773032.9994   -2599599.17249  -2016525.13346                  23773032.5844
        40.2504         22.7504
  22189474.5194   -3822383.73849  -2976790.21547                  22189470.1044
        48.5004         35.0004
  21151529.0054    7893437.39149   6136715.14548                  21151527.0474
        50.0004         40.7504
 04  7 28 20  5 45.0000000  0  7G 1G11G14G20G16G23G25
  21270411.0104    -791549.13749   -618806.09847                  21270409.4624
        49.5004         39.0004
  21993366.8014    8375705.56349   6510488.84447                  21993364.9844
        48.0004         35.0004
  24560381.7074   15094967.91049  11723359.37546                  24560379.8574
        42.5004         21.7504
  21328006.5494   -5026100.47749  -3912197.68747                  21328004.1304
        48.5004         38.5004
  23768135.3774   -2625338.27049  -2036581.48046                  23768134.9484
        41.7504         22.7504
  22187317.8974   -3833717.39149  -2985621.61347                  22187312.4904
        48.5004         35.0004
  21159851.5534    7937170.77349   6170793.09448                  21159848.5244
        50.0004         40.5004
 04  7 28 20  6  0.0000000  0  7G 1G11G14G20G16G23G25
  21270789.1284    -789562.68749   -617258.21547                  21270787.8974
        48.0004         39.2504
  22002132.3824    8421767.20749   6546381.01647                  22002129.5894
        46.2504         34.2504
  24571196.4874   15151802.49649  11767646.07046                  24571194.8964
        42.0004         21.0004
  21325073.4554   -5041513.27049  -3924207.65247                  21325070.9444
        47.0004         38.2504
  23763240.9354   -2651056.30949  -2056621.41046                  23763241.9414
        41.7504         24.0004
  22185168.7014   -3845011.35549  -2994422.10547                  22185163.0494
        48.5004         34.7504
  21168191.5764    7980998.65649   6204944.69148                  21168188.7674
        49.5004         40.7504
 04  7 28 20  6 15.0000000  0  7G 1G11G14G20G16G23G25
  21271176.3994    -787528.34049   -615672.99648                  21271174.8844
        50.2504         39.5004
  22010916.2734    8467927.33649   6582349.94147                  22010914.3414
        49.0004         35.0004
  24582011.7964   15208633.42249  11811929.87546                  24582009.3944
        41.0004         19.5004
  21322153.4984   -5056859.69149  -3936165.87547                  21322150.8694
        47.7504         38.0004
  23758351.0794   -2676751.76249  -2076643.76246                  23758351.3264
        41.2504         24.2504
  22183027.8444   -3856264.44949  -3003190.73047                  22183021.6924
        48.2504         34.7504
  21176549.8114    8024921.93849   6239170.61748                  21176547.4694
        49.0004         40.5004
 04  7 28 20  6 30.0000000  0  7G 1G11G14G20G16G23G25
  21271572.0054    -785450.84449   -614054.16448                  21271570.1624
        50.0004         39.7504
  22019717.6944    8514181.00049   6618391.75047                  22019716.0954
        48.0004         34.5004
  24592824.1094   15265456.06349  11856207.24246                  24592822.4634
        41.0004         19.5004
  21319244.9254   -5072144.03949  -3948075.76647                  21319241.9414
        48.0004         38.5004
  23753465.3254   -2702428.98049  -2096651.89846                  23753464.8464
        41.2504         22.2504
  22180892.4004   -3867481.35249  -3011931.14847                  22180887.3464
        46.5004         34.5004
  21184925.3144    8068935.45749   6273466.87148                  21184923.1124
        50.0004         40.5004
 04  7 28 20  6 45.0000000  0  7G 1G11G14G20G16G23G25
  21271975.5594    -783329.40649   -612401.08248                  21271973.9604
        49.5004         39.5004
  22028537.5934    8560528.70749   6654506.82447                  22028535.5774
        47.0004         34.5004
  24603634.8784   15322271.23849  11900478.79746                  24603634.0774
        39.5004         18.5004
  21316348.3524   -5087365.25449  -3959936.43047                  21316345.6384
        47.2504         38.2504
  23748582.0494   -2728086.89549  -2116645.00446                  23748581.4714
        42.5004         24.5004
  22178765.4564   -3878661.31649  -3020642.78547                  22178760.0424
        47.7504         35.2504
  21193317.8584    8113039.87549   6307833.95348                  21193315.7934
        50.0004         40.7504
 04  7 28 20  7  0.0000000  0  7G 1G11G14G20G16G23G25
  21272387.4084    -781164.50849   -610714.13747                  21272386.1664
        48.7504         39.2504
  22037375.0344    8606969.79749   6690694.68447                  22037372.5784
        46.2504         35.0004
  24614446.4434   15379078.54349  11944744.23846                  24614443.9474
        40.5004         17.5004
  21313463.7144   -5102523.45349  -3971747.99247                  21313461.5144
        47.0004         38.2504
  23743703.5264   -2753725.30549  -2136622.90246                  23743703.1834
        40.2504         25.5004
  22176644.4264   -3889804.69549  -3029325.91847                  22176639.8134
        46.5004         34.5004
  21201728.4144    8157234.61749   6342271.40648                  21201725.8654
        49.5004         40.5004
 04  7 28 20  7 15.0000000  0  7G 1G11G14G20G16G23G25
  21272807.9544    -778954.70749   -608992.19948                  21272806.4644
        49.7504         39.5004
  22046230.6674    8653505.38749   6726956.16447                  22046228.8014
        47.0004         35.2504
  24625254.5874   15435879.48849  11989004.66846                  24625252.4864
        40.5004         18.5004
  21310591.4154   -5117616.89149  -3983509.11347                  21310588.7844
        46.5004         38.2504
  23738828.4914   -2779342.46549  -2156584.23846                  23738828.8754
        42.7504         24.5004
  22174531.0024   -3900909.98049  -3037979.35247                  22174527.2204
        47.5004         35.0004
  21210155.1714    8201520.88349   6376780.18848                  21210153.0904
        49.0004         40.5004
 04  7 28 20  7 30.0000000  0  7G 1G11G14G20G16G23G25
  21273236.8764    -776700.33649   -607235.52747                  21273235.2474
        49.2504         39.0004
  22055102.9824    8700135.03149   6763290.94947                  22055101.7124
        46.0004         34.2504
  24636062.0334   15492673.73849  12033259.90246                  24636060.3394
        40.7504         19.5004
  21307732.1144   -5132645.61749  -3995219.79747                  21307729.2214
        47.5004         38.0004
  23733958.2564   -2804938.27749  -2176528.94146                  23733957.5904
        42.5004         25.2504
  22172424.7474   -3911977.41849  -3046603.31247                  22172421.1964
        46.7504         35.7504
  21218600.4564    8245898.14549   6411359.86748                  21218597.5774
        49.5004         40.5004
 04  7 28 20  7 45.0000000  0  7G 1G11G14G20G16G23G25
  21273674.1454    -774401.59449   -605444.30148                  21273672.7744
        49.0004         39.5004
  22063995.0114    8746858.21549   6799698.61347                  22063992.1994
        45.7504         34.7504
  24646868.3544   15549461.00849  12077509.71946                  24646866.9694
        41.5004         20.0004
  21304884.3134   -5147609.45349  -4006879.91047                  21304882.0254
        47.5004         38.7504
  23729091.7974   -2830512.39149  -2196456.70746                  23729091.1114
        42.7504         24.2504
  22170326.1584   -3923007.24649  -3055197.95747                  22170322.5584
        47.5004         35.7504
  21227061.9924    8290365.87549   6446010.05148                  21227059.6354
        49.2504         40.5004
 04  7 28 20  8  0.0000000  0  7G 1G11G14G20G16G23G25
  21274120.4734    -772056.87149   -603617.23847                  21274118.7714
        49.2504         38.7504
  22072904.0984    8793676.27349   6836180.21547                  22072902.3324
        47.0004         35.0004
  24657673.4144   15606243.05149  12121755.45746                  24657672.5414
        40.0004         19.0004
  21302049.4714   -5162506.40249  -4018487.91447                  21302046.9374
        47.5004         38.2504
  23724229.6964   -2856062.74649  -2216366.01646                  23724229.0174
        42.7504         23.2504
  22168234.6244   -3933997.78549  -3063761.98847                  22168231.3764
        48.0004         36.5004
  21235541.3854    8334925.62949   6480731.93048                  21235539.4794
        50.2504         40.7504
 04  7 28 20  8 15.0000000  0  7G 1G11G14G20G16G23G25
  21274575.3534    -769668.08649   -601755.83647                  21274573.2554
        50.0004         38.7504
  22081830.9164    8840587.18049   6872734.15647                  22081828.9684
        47.0004         35.0004
  24668477.8894   15663017.96549  12165995.63346                  24668475.8444
        41.0004         19.2504
  21299227.1814   -5177338.13749  -4030045.09847                  21299224.0934
        47.5004         38.5004
  23719372.1884   -2881590.89849  -2236257.99246                  23719370.9424
        40.5004         25.0004
  22166150.5044   -3944950.99249  -3072296.93047                  22166147.1244
        48.2504         36.2504
  21244038.2374    8379575.17649   6515523.79348                  21244035.7684
        49.7504         40.0004
 04  7 28 20  8 30.0000000  0  7G 1G11G14G20G16G23G25
  21275038.3534    -767232.84049   -599858.24248                  21275037.1104
        50.0004         39.5004
  22090775.6284    8887592.94149   6909362.00847                  22090773.6034
        47.2504         34.7504
  24679280.1784   15719788.33649  12210232.27046                  24679279.6834
        39.5004         20.5004
  21296417.3074   -5192101.89849  -4041549.32047                  21296415.0944
        47.2504         38.5004
  23714518.0854   -2907094.00049  -2256130.43746                  23714517.6384
        40.5004         23.0004
  22164073.9164   -3955864.25449  -3080800.76247                  22164069.5954
        48.5004         36.0004
  21252552.3054    8424316.82049   6550387.41048                  21252549.5774
        48.7504         40.0004
 04  7 28 20  8 45.0000000  0  7G 1G11G14G20G16G23G25
  21275511.0154    -764750.06649   -597923.59848                  21275509.1654
        49.5004         39.5004
  22099738.5974    8934694.35249   6946064.40247                  22099737.4614
        47.2504         34.7504
  24690082.0664   15776555.16049  12254466.09046                  24690082.0514
        39.2504         19.0004
  21293621.3664   -5206796.37549  -4052999.54747                  21293618.4024
        46.7504         38.5004
  23709670.1784   -2932570.48449  -2275982.15646                  23709669.7684
        42.5004         22.5004
  22162004.4374   -3966736.51649  -3089272.63747                  22162000.3774
        47.0004         35.5004
  21261084.1664    8469151.43449   6585323.46548                  21261082.1164
        49.5004         40.2504
 04  7 28 20  9  0.0000000  0  7G 1G11G14G20G16G23G25
  21275992.2694    -762220.62549   -595952.59848                  21275990.4754
        50.2504         39.5004
  22108719.9494    8981890.40249   6982840.52747                  22108718.3684
        47.2504         34.2504
  24700884.3834   15833317.53949  12298696.51246                  24700883.3864
        40.2504         20.5004
  21290838.3314   -5221421.97749  -4064396.10947                  21290835.2014
        48.5004         39.0004
  23704827.0234   -2958020.77749  -2295813.48046                  23704825.6964
        43.5004         24.0004
  22159943.1694   -3977568.50849  -3097713.12547                  22159938.3184
        47.7504         34.7504
  21269633.3174    8514077.96549   6620331.15648                  21269630.5334
        49.2504         40.5004
 04  7 28 20  9 15.0000000  0  7G 1G11G14G20G16G23G25
  21276482.1204    -759644.93449   -593945.55148                  21276480.9644
        50.0004         39.7504
  22117719.1974    9029180.29749   7019689.79347                  22117716.8934
        47.5004         34.7504
  24711685.5814   15890075.21149  12342923.27746                  24711684.0524
        41.0004         21.0004
  21288067.9864   -5235978.83649  -4075739.11347                  21288065.6784
        47.2504         39.0004
  23699989.0924   -2983444.94549  -2315624.42646                  23699988.2784
        43.0004         24.5004
  22157889.7464   -3988360.73849  -3106122.64147                  22157884.5614
        48.2504         34.2504
  21278199.6134    8559095.54749   6655409.79348                  21278197.4704
        49.5004         40.5004
 04  7 28 20  9 30.0000000  0  7G 1G11G14G20G16G23G25
  21276981.5974    -757021.53549   -591901.33248                  21276979.6424
        50.2504         39.5004
  22126736.0834    9076565.06649   7056612.97747                  22126733.9054
        48.7504         34.2504
  24722485.2494   15946829.64149  12387147.48046                  24722484.3744
        40.2504         21.0004
  21285311.3084   -5250465.27349  -4087027.22747                  21285308.6984
        48.0004         38.7504
  23695156.0964   -3008840.96949  -2335413.47346                  23695155.5964
        41.7504         25.5004
  22155843.7994   -3999111.74249  -3114500.01647                  22155838.3744
        46.5004         35.0004
  21286783.6434    8604205.64549   6690560.52048                  21286781.2204
        49.2504         40.0004
 04  7 28 20  9 45.0000000  0  7G 1G11G14G20G16G23G25
  21277489.6984    -754350.59849   -589820.07047                  21277487.7244
        50.0004         39.0004
  22135771.0704    9124044.81649   7093610.16847                  22135768.7304
        48.0004         34.5004
  24733284.5954   16003580.62549  12431369.03946                  24733283.9134
        40.0004         19.5004
  21282568.3554   -5264881.06649  -4098260.30947                  21282565.0684
        48.0004         38.7504
  23690328.4724   -3034208.75849  -2355180.48846                  23690327.7254
        42.7504         24.5004
  22153805.6704   -4009821.52749  -3122845.28147                  22153800.3674
        48.0004         34.7504
  21295385.6274    8649407.74249   6725782.93048                  21295382.8324
        49.0004         40.2504
 04  7 28 20 10  0.0000000  0  7G 1G11G14G20G16G23G25
  21278006.1044    -751636.73849   -587705.36748                  21278004.3614
        50.0004         39.5004
  22144823.3674    9171614.43849   7130677.39147                  22144821.3574
        47.5004         34.7504
  24744082.0034   16060323.65649  12475584.31346                  24744081.4614
        38.7504         19.5004
  21279837.3024   -5279230.46549  -4109441.64848                  21279834.9354
        48.0004         39.5004
  23685505.7964   -3059552.41049  -2374928.72746                  23685505.6634
        42.2504         25.2504
  22151774.5454   -4020494.72349  -3131162.05547                  22151769.7214
        48.0004         35.0004
  21304003.8674    8694696.99649   6761073.25848                  21304001.8004
        49.5004         40.0004
 04  7 28 20 10 15.0000000  0  7G 1G11G14G20G16G23G25
  21278531.3234    -748876.89849   -585554.83648                  21278529.3924
        51.0004         39.5004
  22153893.3004    9219276.63749   7167816.75047                  22153890.4384
        48.5004         34.7504
  24754878.1914   16117061.71949  12519795.78546                  24754878.4804
        37.5004         18.2504
  21277120.3474   -5293510.14549  -4120568.65247                  21277117.5434
        48.0004         39.2504
  23680688.5814   -3084868.52749  -2394655.49246                  23680687.8464
        43.2504         24.2504
  22149751.0374   -4031128.24249  -3139447.87947                  22149746.4894
        48.0004         35.0004
  21312639.2114    8740076.40249   6796433.82848                  21312636.7724
        50.0004         40.5004
 04  7 28 20 10 30.0000000  0  7G 1G11G14G20G16G23G25
  21279065.6804    -746069.78949   -583367.48048                  21279063.5854
        50.7504         39.7504
  22162980.8094    9267032.44549   7205029.06347                  22162978.4704
        49.0004         34.0004
  24765675.7064   16173796.30549  12564004.52046                  24765674.9064
        39.5004         18.5004
  21274416.2734   -5307718.56249  -4131640.14147                  21274413.3174
        47.5004         38.5004
  23675875.9324   -3110155.27749  -2414359.36346                  23675875.8184
        42.0004         24.2504
  22147735.3614   -4041720.74249  -3147701.76247                  22147731.0584
        48.7504         35.0004
  21321292.1694    8785547.02349   6831865.48848                  21321289.3654
        49.7504         40.0004
 04  7 28 20 10 45.0000000  0  7G 1G11G14G20G16G23G25
  21279607.9174    -743218.08649   -581145.36347                  21279606.2944
        50.2504         39.2504
  22172085.6994    9314879.19149   7242312.23447                  22172083.9974
        48.5004         35.0004
  24776470.3304   16230524.77049  12608208.47346                  24776469.6734
        38.5004         20.0004
  21271725.9054   -5321857.91049  -4142657.80548                  21271723.2004
        48.7504         39.5004
  23671069.7104   -3135414.84049  -2434042.07046                  23671068.4024
        43.0004         25.0004
  22145727.0204   -4052274.73849  -3155925.63747                  22145723.1414
        48.0004         35.2504
  21329961.3904    8831105.87949   6867365.89548                  21329959.0364
        49.5004         40.0004
 04  7 28 20 11  0.0000000  0  7G 1G11G14G20G16G23G25
  21280158.8264    -740321.94149   -578888.61348                  21280157.3994
        50.2504         39.5004
  22181207.7324    9362816.26649   7279665.79347                  22181206.0874
        48.2504         34.0004
  24787264.6364   16287246.94549  12652407.52346                  24787263.3374
        39.0004         20.0004
  21269048.2524   -5335928.03149  -4153621.52347                  21269045.7314
        49.2504         39.2504
  23666268.5374   -3160646.91049  -2453703.33246                  23666267.2994
        41.5004         25.5004
  22143725.9894   -4062790.39149  -3164119.63747                  22143722.4464
        47.0004         36.2504
  21338647.9774    8876752.71549   6902934.84448                  21338644.9964
        49.5004         40.2504
 04  7 28 20 11 15.0000000  0  7G 1G11G14G20G16G23G25
  21280719.1374    -737381.72349   -576597.52347                  21280717.1394
        50.2504         39.0004
  22190347.2144    9410843.13749   7317089.30547                  22190345.5494
        47.7504         34.0004
  24798056.7404   16343962.47349  12696601.43446                  24798055.7144
        40.0004         19.5004
  21266384.0204   -5349929.09449  -4164531.42647                  21266381.2764
        48.0004         39.0004
  23661471.6654   -3185851.50449  -2473343.19546                  23661471.2694
        42.2504         23.2504
  22141732.2284   -4073268.01249  -3172283.99247                  22141728.4034
        47.5004         35.5004
  21347351.0564    8922486.89149   6938571.86748                  21347348.6854
        50.2504         40.5004
 04  7 28 20 11 30.0000000  0  7G 1G11G14G20G16G23G25
  21281287.3204    -734394.03549   -574269.44948                  21281285.4634
        49.5004         39.5004
  22199504.0334    9458962.81649   7354585.14847                  22199501.4714
        47.5004         34.2504
  24808849.1604   16400674.82449  12740792.84046                  24808848.0614
        41.0004         19.2504
  21263733.5924   -5363857.38749  -4175384.63347                  21263730.4464
        48.7504         38.7504
  23656681.0994   -3211024.88749  -2492958.73446                  23656680.9804
        43.0004         24.2504
  22139746.1934   -4083704.24249  -3180416.10247                  22139741.7364
        47.5004         35.0004
  21356070.8644    8968311.60549   6974279.43848                  21356068.4884
        49.2504         40.5004
 04  7 28 20 11 45.0000000  0  6G 1G11G20G16G23G25
  21281864.3114    -731360.55149   -571905.68448                  21281862.7844
        49.7504         39.5004
  22208678.4034    9507173.35949   7392151.80147                  22208676.0574
        47.7504         34.7504
  21261096.5314   -5377714.07849  -4186182.05147                  21261094.1404
        48.0004         39.0004
  23651896.7134   -3236168.07049  -2512550.76246                  23651896.5054
        42.5004         25.0004
  22137768.2084   -4094100.61349  -3188517.15247                  22137763.7284
        48.5004         34.7504
  21364808.0004    9014224.90249   7010056.03548                  21364805.2394
        49.5004         40.0004
 04  7 28 20 12  0.0000000  0  6G 1G11G20G16G23G25
  21282450.0804    -728281.87549   -569506.70748                  21282448.9564
        49.7504         39.5004
  22217869.5264    9555474.04349   7429788.69947                  22217867.1324
        48.5004         33.5004
  21258473.5524   -5391499.57449  -4196923.98047                  21258470.8384
        49.0004         38.7504
  23647117.3224   -3261281.38349  -2532119.48846                  23647117.0924
        42.5004         24.0004
  22135796.7384   -4104457.77049  -3196587.62947                  22135792.2834
        48.5004         34.5004
  21373561.7944    9060225.90249   7045900.96148                  21373559.6574
        50.0004         40.2504
 04  7 28 20 12 15.0000000  0  6G 1G11G20G16G23G25
  21283044.9134    -725157.56649   -567072.16848                  21283043.2774
        49.7504         39.5004
  22227078.2654    9603865.06649   7467495.95747                  22227075.6004
        47.2504         33.5004
  21255863.5534   -5405213.02349  -4207609.78947                  21255860.7054
        49.5004         38.2504
  23642344.6224   -3286363.85549  -2551664.18446                  23642344.2064
        42.7504         25.0004
  22133834.0954   -4114775.15649  -3204627.12947                  22133828.4584
        48.7504         35.0004
  21382332.5104    9106314.93849   7081814.49248                  21382329.7314
        50.7504         40.2504
 04  7 28 20 12 30.0000000  0  6G 1G11G20G16G23G25
  21283648.4404    -721985.23049   -564600.21147                  21283647.1654
        49.2504         39.2504
  22236304.0404    9652348.44149   7505275.21547                  22236301.9014
        47.0004         34.0004
  21253268.4414   -5418851.75449  -4218237.37147                  21253265.5324
        49.5004         39.0004
  23637577.9754   -3311412.65249  -2571182.64146                  23637577.0194
        43.0004         25.0004
  22131878.3864   -4125050.43449  -3212633.82447                  22131873.1754
        48.7504         35.5004
  21391119.8164    9152494.22349   7117798.34848                  21391117.4354
        49.7504         40.7504
 04  7 28 20 12 45.0000000  0  6G 1G11G20G16G23G25
  21284261.3014    -718765.56249   -562091.36747                  21284259.4634
        50.0004         39.2504
  22245547.6554    9700923.12949   7543125.60247                  22245545.9684
        47.2504         34.0004
  21250687.1464   -5432416.25449  -4228807.07847                  21250684.4824
        50.5004         39.2504
  23632817.3264   -3336428.18049  -2590675.18447                  23632817.0634
        42.5004         25.7504
  22129931.1274   -4135284.16449  -3220608.15647                  22129924.9474
        48.7504         35.2504
  21399924.4504    9198762.71149   7153851.71148                  21399922.5774
        51.7504         40.7504
 04  7 28 20 13  0.0000000  0  6G 1G11G20G16G23G25
  21284883.1984    -715496.98449   -559544.41447                  21284881.4144
        49.7504         39.2504
  22254808.6404    9749590.59449   7581048.29747                  22254806.2544
        46.5004         33.7504
  21248120.2264   -5445904.44949  -4239317.36347                  21248117.8464
        50.5004         39.0004
  23628064.2534   -3361408.27049  -2610140.11347                  23628063.9054
        42.0004         26.0004
  22127991.7684   -4145474.76649  -3228548.86747                  22127985.7654
        48.7504         35.7504
  21408745.7444    9245121.75449   7189975.64148                  21408743.5614
        50.7504         40.5004
 04  7 28 20 13 15.0000000  0  6G 1G11G20G16G23G25
  21285514.3984    -712180.39849   -556960.04347                  21285512.2744
        49.7504         39.2504
  22264087.3764    9798349.65249   7619042.35247                  22264085.6334
        46.7504         34.7504
  21245568.2374   -5459317.05549  -4249768.72747                  21245565.3164
        50.2504         39.2504
  23623316.8614   -3386353.57449  -2629577.91846                  23623316.4994
        42.0004         25.0004
  22126060.7994   -4155623.07049  -3236456.63347                  22126055.3394
        48.5004         35.5004
  21417585.2364    9291570.26249   7226169.28148                  21417582.8254
        51.5004         40.5004
 04  7 28 20 13 30.0000000  0  6G 1G11G20G16G23G25
  21286154.2624    -708817.65649   -554339.71548                  21286152.7684
        49.5004         39.5004
  22273382.7064    9847198.43449   7657106.32047                  22273380.5764
        45.7504         34.0004
  21243029.9874   -5472655.48849  -4260162.31647                  21243027.4314
        50.2504         39.0004
  23618576.1164   -3411265.34449  -2648989.59047                  23618575.8584
        43.0004         26.2504
  22124137.3474   -4165730.80149  -3244332.78147                  22124132.5354
        47.7504         35.7504
  21426440.5554    9338106.25849   7262431.09048                  21426438.2754
        50.2504         40.0004
 04  7 28 20 13 45.0000000  0  6G 1G11G20G16G23G25
  21286803.2484    -705407.37149   -551682.35247                  21286801.4464
        50.7504         39.2504
  22282696.0664    9896137.77349   7695240.85247                  22282693.6744
        45.7504         34.0004
  21240506.1614   -5485918.13749  -4270496.82848                  21240503.5064
        49.5004         39.5004
  23613842.5354   -3436141.71949  -2668373.71947                  23613841.5414
        43.5004         26.7504
  22122221.9384   -4175796.63749  -3252176.25447                  22122217.4774
        47.0004         35.5004
  21435312.8884    9384730.99649   7298762.05548                  21435310.2254
        51.0004         40.2504
 04  7 28 20 14  0.0000000  0  6G 1G11G20G16G23G25
  21287461.1034    -701949.00049   -548987.50447                  21287459.5394
        48.7504         39.0004
  22292025.4584    9945167.75849   7733446.03547                  22292023.7584
        44.5004         33.2504
  21237996.9674   -5499104.03149  -4280771.54747                  21237993.7844
        50.2504         39.0004
  23609115.4244   -3460981.80949  -2687729.54746                  23609114.6864
        41.5004         24.5004
  22120314.1164   -4185819.99249  -3259986.64847                  22120310.5614
        47.7504         35.5004
  21444202.2524    9431444.73049   7335162.36748                  21444200.2304
        50.7504         40.2504
 04  7 28 20 14 15.0000000  0  6G 1G11G20G16G23G25
  21288128.1144    -698444.33249   -546256.58248                  21288126.3544
        50.2504         39.5004
  22301372.7614    9994286.60249   7771720.43847                  22301370.9164
        45.2504         34.7504
  21235501.8344   -5512214.75049  -4290987.68447                  21235499.1744
        50.2504         39.0004
  23604395.0824   -3485786.89849  -2707058.10947                  23604395.2304
        42.0004         26.5004
  22118414.5014   -4195802.66449  -3267765.32447                  22118411.2314
        47.0004         35.5004
  21453108.1384    9478245.33249   7371630.36348                  21453105.7544
        51.0004         40.2504
 04  7 28 20 14 30.0000000  0  6G 1G11G20G16G23G25
  21288803.4494    -694894.75449   -543490.66848                  21288801.9694
        49.5004         39.5004
  22310736.6684   10043492.63349   7810062.77047                  22310734.3804
        44.5004         34.0004
  21233021.1614   -5525251.29349  -4301146.01647                  21233018.6584
        50.7504         39.0004
  23599681.2694   -3510558.04749  -2726360.21146                  23599680.6364
        42.0004         25.5004
  22116522.2144   -4205745.87549  -3275513.25447                  22116518.5614
        47.0004         35.5004
  21462030.2154    9525131.19949   7408164.81348                  21462028.2284
        50.7504         40.5004
 04  7 28 20 14 45.0000000  0  6G 1G11G20G16G23G25
  21289487.6444    -691298.93049   -540688.71948                  21289486.0564
        49.0004         39.7504
  22320117.2004   10092786.82849   7848473.82447                  22320114.6464
        45.0004         33.7504
  21230554.7934   -5538212.05949  -4311245.29748                  21230551.8124
        51.0004         39.5004
  23594974.3504   -3535293.41449  -2745634.44147                  23594973.5254
        41.7504         25.7504
  22114637.7904   -4215648.32449  -3283229.43447                  22114633.8194
        46.7504         36.0004
  21470968.8124    9572103.46149   7444766.55948                  21470966.7694
        51.2504         40.2504
 04  7 28 20 15  0.0000000  0  6G 1G11G20G16G23G25
  21290180.5004    -687658.33249   -537851.87948                  21290178.9224
        50.0004         39.5004
  22329513.5004   10142167.37549   7886952.17647                  22329511.1254
        45.7504         33.5004
  21228102.8874   -5551098.14849  -4321286.41047                  21228100.1054
        50.2504         38.7504
  23590273.9634   -3559994.14149  -2764881.67247                  23590273.6944
        42.7504         26.2504
  22112760.8744   -4225511.36349  -3290914.89147                  22112756.8114
        46.7504         35.5004
  21479923.3464    9619160.43849   7481434.34048                  21479920.9124
        51.0004         39.7504
 04  7 28 20 15 15.0000000  0  6G 1G11G20G16G23G25
  21290881.8034    -683973.35949   -534980.46548                  21290879.9984
        50.5004         39.7504
  22338926.3104   10191633.76249   7925497.41047                  22338924.2594
        44.7504         34.0004
  21225664.7454   -5563909.58649  -4331269.32848                  21225662.2634
        50.0004         39.5004
  23585579.7174   -3584660.02349  -2784101.75047                  23585579.5314
        41.5004         25.7504
  22110891.5844   -4235335.38749  -3298569.95747                  22110887.2704
        47.0004         35.5004
  21488894.0004    9666301.48049   7518167.60548                  21488891.9214
        50.5004         40.0004
 04  7 28 20 15 30.0000000  0  6G 1G11G20G16G23G25
  21291591.7954    -680242.69949   -532073.44947                  21291590.1714
        49.5004         39.2504
  22348356.6114   10241186.97749   7964110.26247                  22348354.7894
        45.2504         33.5004
  21223241.4004   -5576644.86349  -4341192.93047                  21223238.3454
        50.0004         39.0004
  23580893.2324   -3609289.41049  -2803293.40647                  23580891.9804
        43.0004         25.7504
  22109029.8014   -4245119.00849  -3306193.53947                  22109025.3324
        46.7504         36.0004
  21497880.4384    9713527.73049   7554967.29348                  21497878.6094
        51.5004         40.2504
 04  7 28 20 15 45.0000000  0  6G 1G11G20G16G23G25
  21292310.3534    -676466.41449   -529130.88347                  21292308.6554
        49.7504         39.2504
  22357802.2834   10290826.72749   8002790.58647                  22357800.7844
        45.0004         33.7504
  21220832.6024   -5589303.59049  -4351056.85548                  21220829.7714
        50.5004         39.5004
  23576213.4174   -3633881.86349  -2822456.28147                  23576210.9474
        43.0004         25.7504
  22107176.0074   -4254862.22349  -3313785.65647                  22107170.4744
        47.5004         36.0004
  21506884.0474    9760839.05549   7591833.26248                  21506881.4534
        50.7504         40.5004
